[[{"header":{"parameterUnit":"m.s-1","parameterCategory":1,"la1":31.0,"la2":29.5877,"lo1":-88.7671,"lo2":-86.6584,"dy":0.0162,"dx":0.0185,"nx":115,"ny":88,"refTime":"2024-02-16T06:00:00:Z","depth":0,"parameterNumber":2,"parameterNumberName":"U-component_of_WINDS"},"data":[0.0,0.0,0.0,0.0,0.0,0.0,0.0,0.0,0.0,0.0,0.0,0.0,0.0,0.0,0.0,0.0,0.0,0.0,0.0,0.0,0.0,0.0,0.0,0.0,0.0,0.0,0.0,0.0,0.0,0.0,0.0,0.0,0.0,0.0,0.0,0.0,0.0,0.0,0.0,0.0,0.0,0.0,0.0,0.0,0.0,0.0,0.0,0.0,0.0,0.0,0.0,0.0,0.0,0.0,0.0,0.0,0.0,0.0,0.0,0.0,0.0,0.0,0.0,0.0,0.0,0.0,0.0,0.0,0.0,0.0,0.0,0.0,0.0,0.0,0.0,0.0,0.0,0.0,0.0,0.0,0.0,0.0,0.0,0.0,0.0,0.0,0.0,0.0,0.0,0.0,0.0,0.0,0.0,0.0,0.0,0.0,0.0,0.0,0.0,0.0,0.0,0.0,0.0,0.0,0.0,0.0,0.0,0.0,0.0,0.0,0.0,0.0,0.0,0.0,0.0,0.0,0.0,0.0,0.0,0.0,0.0,0.0,0.0,0.0,0.0,0.0,0.0,0.0,0.0,0.0,0.0,0.0,0.0,0.0,0.0,0.0,0.0,0.0,0.0,0.0,0.0,0.0,0.0,0.0,0.0,0.0,0.0,0.0,0.0,0.0,0.0,0.0,0.0,0.0,0.0,0.0,0.0,0.0,0.0,0.0,0.0,0.0,0.0,0.0,0.0,0.0,0.0,0.0,0.0,0.0,0.0,0.0,0.0,0.0,0.0,0.0,0.0,0.0,0.0,0.0,0.0,0.0,0.0,0.0,0.0,0.0,0.0,0.0,0.0,0.0,0.0,0.0,0.0,0.0,0.0,0.0,0.0,0.0,0.0,0.0,0.0,0.0,0.0,0.0,0.0,0.0,0.0,0.0,0.0,0.0,0.0,0.0,0.0,0.0,0.0,0.0,0.0,0.0,0.0,0.0,0.0,0.0,0.0,0.0,0.0,0.0,0.0,0.0,0.0,0.0,0.0,0.0,0.0,0.0,0.0,0.0,0.0,0.0,0.0,0.0,0.0,0.0,0.0,0.0,0.0,0.0,0.0,0.0,0.0,0.0,0.0,0.0,0.0,0.0,0.0,0.0,0.0,0.0,0.0,0.0,0.0,0.0,0.0,0.0,0.0,0.0,0.0,0.0,0.0,0.0,0.0,0.0,0.0,0.0,0.0,0.0,0.0,0.0,0.0,0.0,0.0,0.0,0.0,0.0,0.0,0.0,0.0,0.0,0.0,0.0,0.0,0.0,0.0,0.0,0.0,0.0,0.0,0.0,0.0,0.0,0.0,0.0,0.0,0.0,0.0,0.0,0.0,0.0,0.0,0.0,0.0,0.0,0.0,0.0,0.0,0.0,0.0,0.0,0.0,0.0,0.0,0.0,0.0,0.0,0.0,0.0,0.0,0.0,0.0,0.0,0.0,0.0,0.0,0.0,0.0,0.0,0.0,0.0,0.0,0.0,0.0,0.0,0.0,0.0,0.0,0.0,0.0,0.0,0.0,0.0,0.0,0.0,0.0,0.0,0.0,0.0,0.0,0.0,0.0,0.0,0.0,0.0,0.0,0.0,0.0,0.0,0.0,0.0,0.0,0.0,0.0,0.0,0.0,0.0,0.0,0.0,0.0,0.0,0.0,0.0,0.0,0.0,0.0,0.0,0.0,0.0,0.0,0.0,0.0,0.0,0.0,0.0,0.0,0.0,0.0,0.0,0.0,0.0,0.0,0.0,0.0,0.0,0.0,0.0,0.0,0.0,0.0,0.0,0.0,0.0,0.0,0.0,0.0,0.0,0.0,0.0,0.0,0.0,0.0,0.0,0.0,0.0,0.0,0.0,0.0,0.0,0.0,0.0,0.0,0.0,0.0,0.0,0.0,0.0,0.0,0.0,0.0,0.0,0.0,0.0,0.0,0.0,0.0,0.0,0.0,0.0,0.0,0.0,0.0,0.0,0.0,0.0,0.0,0.0,0.0,0.0,0.0,0.0,0.0,0.0,0.0,0.0,0.0,0.0,0.0,0.0,0.0,0.0,0.0,0.0,0.0,0.0,0.0,0.0,0.0,0.0,0.0,0.0,0.0,0.0,0.0,0.0,0.0,0.0,0.0,0.0,0.0,0.0,0.0,0.0,0.0,0.0,0.0,0.0,0.0,0.0,0.0,0.0,0.0,0.0,0.0,0.0,0.0,0.0,0.0,0.0,0.0,0.0,0.0,0.0,0.0,0.0,0.0,0.0,0.0,0.0,0.0,0.0,0.0,0.0,0.0,0.0,0.0,0.0,0.0,0.0,0.0,0.0,0.0,0.0,0.0,0.0,0.0,0.0,0.0,0.0,0.0,0.0,0.0,0.0,0.0,0.0,0.0,0.0,0.0,0.0,0.0,0.0,0.0,0.0,0.0,0.0,0.0,0.0,0.0,0.0,0.0,0.0,0.0,0.0,0.0,0.0,0.0,0.0,0.0,0.0,0.0,0.0,0.0,0.0,0.0,0.0,0.0,0.0,0.0,0.0,0.0,0.0,0.0,0.0,0.0,0.0,0.0,0.0,0.0,0.0,0.0,0.0,0.0,0.0,0.0,0.0,0.0,0.0,0.0,0.0,0.0,0.0,0.0,0.0,0.0,0.0,0.0,0.0,0.0,0.0,0.0,0.0,0.0,0.0,0.0,0.0,0.0,0.0,0.0,0.0,0.0,0.0,0.0,0.0,0.0,0.0,0.0,0.0,0.0,0.0,0.0,0.0,0.0,0.0,0.0,0.0,0.0,0.0,0.0,0.0,0.0,0.0,0.0,0.0,0.0,0.0,0.0,0.0,0.0,0.0,0.0,0.0,0.0,0.0,0.0,0.0,0.0,0.0,0.0,0.0,0.0,0.0,0.0,0.0,0.0,0.0,0.0,0.0,0.0,0.0,0.0,0.0,0.0,0.0,0.0,0.0,0.0,0.0,0.0,0.0,0.0,0.0,0.0,0.0,0.0,0.0,0.0,0.0,0.0,0.0,0.0,0.0,0.0,0.0,0.0,0.0,0.0,0.0,0.0,0.0,0.0,0.0,0.0,0.0,0.0,0.0,0.0,0.0,0.0,0.0,0.0,0.0,0.0,0.0,0.0,0.0,0.0,0.0,0.0,0.0,0.0,0.0,0.0,0.0,0.0,0.0,0.0,0.0,0.0,0.0,0.0,0.0,0.0,0.0,0.0,0.0,0.0,0.0,0.0,0.0,0.0,0.0,0.0,0.0,0.0,0.0,0.0,0.0,0.0,0.0,0.0,0.0,0.0,0.0,0.0,0.0,0.0,0.0,0.0,0.0,0.0,0.0,0.0,0.0,0.0,0.0,0.0,0.0,0.0,0.0,0.0,0.0,0.0,0.0,0.0,0.0,0.0,0.0,0.0,0.0,0.0,0.0,0.0,0.0,0.0,0.0,0.0,0.0,0.0,0.0,0.0,0.0,0.0,0.0,0.0,0.0,0.0,0.0,0.0,0.0,0.0,0.0,0.0,0.0,0.0,0.0,0.0,0.0,0.0,0.0,0.0,0.0,0.0,0.0,0.0,0.0,0.0,0.0,0.0,0.0,0.0,0.0,0.0,0.0,0.0,0.0,0.0,0.0,0.0,0.0,0.0,0.0,0.0,0.0,0.0,0.0,0.0,0.0,0.0,0.0,0.0,0.0,0.0,0.0,0.0,0.0,0.0,0.0,0.0,0.0,0.0,0.0,0.0,0.0,0.0,0.0,0.0,0.0,0.0,0.0,0.0,0.0,0.0,0.0,0.0,0.0,0.0,0.0,0.0,0.0,0.0,0.0,0.0,0.0,0.0,0.0,0.0,0.0,0.0,0.0,0.0,0.0,0.0,0.0,0.0,0.0,0.0,0.0,0.0,0.0,0.0,0.0,0.0,0.0,0.0,0.0,0.0,0.0,0.0,0.0,0.0,0.0,0.0,0.0,0.0,0.0,0.0,0.0,0.0,0.0,0.0,0.0,0.0,0.0,0.0,0.0,0.0,0.0,0.0,0.0,0.0,0.0,0.0,0.0,0.0,0.0,0.0,0.0,0.0,0.0,0.0,0.0,0.0,0.0,0.0,0.0,0.0,0.0,0.0,0.0,0.0,0.0,0.0,0.0,0.0,0.0,0.0,0.0,0.0,0.0,0.0,0.0,0.0,0.0,0.0,0.0,0.0,0.0,0.0,0.0,0.0,0.0,0.0,0.0,0.0,0.0,0.0,0.0,0.0,0.0,2.4275,0.0,0.0,0.0,0.0,0.0,0.0,0.0,0.0,0.0,0.0,0.0,0.0,0.0,0.0,0.0,0.0,0.0,0.0,0.0,0.0,0.0,0.0,0.0,0.0,0.0,0.0,0.0,0.0,0.0,0.0,0.0,0.0,0.0,0.0,0.0,0.0,0.0,0.0,0.0,0.0,0.0,0.0,0.0,0.0,0.0,0.0,0.0,0.0,0.0,0.0,0.0,0.0,0.0,0.0,0.0,0.0,0.0,0.0,0.0,0.0,0.0,0.0,0.0,0.0,0.0,0.0,0.0,0.0,0.0,0.0,0.0,0.0,0.0,0.0,0.0,0.0,0.0,0.0,0.0,0.0,0.0,0.0,0.0,0.0,0.0,0.0,0.0,0.0,0.0,0.0,0.0,0.0,0.0,0.0,0.0,0.0,0.0,0.0,0.0,0.0,0.0,0.0,0.0,0.0,0.0,0.0,0.0,0.0,0.0,0.0,2.6697,2.5971,2.5297,2.458,2.3846,0.0,0.0,0.0,0.0,0.0,0.0,0.0,0.0,0.0,0.0,0.0,0.0,0.0,0.0,0.0,0.0,0.0,0.0,0.0,0.0,0.0,0.0,0.0,0.0,0.0,0.0,0.0,0.0,0.0,0.0,0.0,0.0,0.0,0.0,0.0,0.0,0.0,0.0,0.0,0.0,0.0,0.0,0.0,0.0,0.0,0.0,0.0,0.0,0.0,0.0,0.0,0.0,0.0,0.0,0.0,0.0,0.0,0.0,0.0,0.0,0.0,0.0,0.0,0.0,0.0,0.0,0.0,0.0,0.0,0.0,0.0,0.0,0.0,0.0,0.0,0.0,0.0,0.0,0.0,0.0,0.0,0.0,0.0,0.0,0.0,0.0,0.0,0.0,0.0,0.0,0.0,0.0,0.0,0.0,0.0,0.0,0.0,0.0,0.0,0.0,0.0,0.0,0.0,0.0,0.0,0.0,0.0,0.0,0.0,0.0,0.0,0.0,2.483,2.4215,2.3519,0.0,0.0,0.0,0.0,0.0,0.0,0.0,0.0,0.0,0.0,0.0,0.0,0.0,0.0,0.0,0.0,0.0,0.0,0.0,0.0,0.0,0.0,0.0,0.0,0.0,0.0,0.0,0.0,0.0,0.0,0.0,0.0,0.0,0.0,0.0,0.0,0.0,0.0,0.0,0.0,0.0,0.0,0.0,0.0,0.0,0.0,0.0,0.0,0.0,0.0,0.0,0.0,0.0,0.0,0.0,0.0,0.0,0.0,0.0,0.0,0.0,0.0,0.0,0.0,0.0,0.0,0.0,0.0,0.0,0.0,0.0,0.0,0.0,0.0,0.0,0.0,0.0,0.0,0.0,0.0,0.0,0.0,0.0,0.0,0.0,0.0,0.0,0.0,0.0,0.0,0.0,0.0,0.0,0.0,0.0,0.0,0.0,0.0,0.0,0.0,0.0,0.0,0.0,0.0,0.0,0.0,0.0,0.0,0.0,0.0,2.6246,2.5424,2.5096,0.0,2.3029,0.0,0.0,0.0,0.0,0.0,0.0,0.0,0.0,0.0,0.0,0.0,0.0,0.0,0.0,0.0,0.0,0.0,0.0,0.0,0.0,0.0,0.0,0.0,0.0,0.0,0.0,0.0,0.0,0.0,0.0,0.0,0.0,0.0,0.0,0.0,0.0,0.0,0.0,0.0,0.0,0.0,0.0,0.0,0.0,0.0,0.0,0.0,0.0,0.0,0.0,0.0,0.0,0.0,0.0,0.0,0.0,0.0,0.0,0.0,0.0,0.0,0.0,0.0,0.0,0.0,0.0,0.0,0.0,0.0,0.0,0.0,0.0,0.0,0.0,0.0,0.0,0.0,0.0,0.0,0.0,0.0,0.0,0.0,0.0,0.0,0.0,0.0,0.0,0.0,0.0,0.0,0.0,0.0,0.0,0.0,0.0,0.0,0.0,0.0,0.0,0.0,0.0,0.0,0.0,0.0,0.0,0.0,0.0,0.0,0.0,2.5962,2.5063,2.4328,2.332,0.0,0.0,0.0,0.0,0.0,0.0,0.0,0.0,0.0,0.0,0.0,0.0,0.0,0.0,0.0,0.0,0.0,0.0,0.0,0.0,0.0,0.0,0.0,0.0,0.0,0.0,0.0,0.0,0.0,0.0,0.0,0.0,0.0,0.0,0.0,0.0,0.0,0.0,0.0,0.0,0.0,0.0,0.0,0.0,0.0,0.0,0.0,0.0,0.0,0.0,0.0,0.0,0.0,0.0,0.0,0.0,0.0,0.0,0.0,0.0,0.0,0.0,0.0,0.0,0.0,0.0,0.0,0.0,0.0,0.0,0.0,0.0,0.0,0.0,0.0,0.0,0.0,0.0,0.0,0.0,0.0,0.0,0.0,0.0,0.0,0.0,0.0,0.0,0.0,0.0,0.0,0.0,0.0,0.0,0.0,0.0,0.0,0.0,0.0,0.0,0.0,0.0,0.0,0.0,0.0,0.0,0.0,0.0,0.0,0.0,2.6219,2.5797,2.4932,2.3527,2.2391,2.1599,0.0,0.0,0.0,0.0,0.0,0.0,0.0,0.0,0.0,0.0,0.0,0.0,0.0,0.0,0.0,0.0,0.0,0.0,0.0,0.0,0.0,0.0,0.0,0.0,0.0,0.0,0.0,0.0,0.0,0.0,0.0,0.0,0.0,0.0,0.0,0.0,0.0,0.0,0.0,0.0,0.0,0.0,0.0,0.0,0.0,0.0,0.0,0.0,0.0,0.0,0.0,0.0,0.0,0.0,0.0,0.0,0.0,0.0,0.0,0.0,0.0,0.0,0.0,0.0,0.0,0.0,0.0,0.0,0.0,0.0,0.0,0.0,0.0,0.0,0.0,0.0,0.0,0.0,0.0,0.0,0.0,0.0,0.0,0.0,0.0,0.0,0.0,0.0,0.0,0.0,0.0,0.0,0.0,0.0,0.0,0.0,0.0,0.0,0.0,0.0,0.0,0.0,0.0,0.0,0.0,0.0,0.0,0.0,2.6341,2.6016,2.5632,2.5197,2.2919,2.1794,0.0,0.0,0.0,0.0,0.0,0.0,0.0,0.0,0.0,0.0,0.0,0.0,0.0,0.0,0.0,0.0,0.0,0.0,0.0,0.0,0.0,0.0,0.0,0.0,0.0,0.0,0.0,0.0,0.0,0.0,0.0,0.0,0.0,0.0,0.0,0.0,0.0,0.0,0.0,0.0,0.0,0.0,0.0,0.0,0.0,0.0,0.0,0.0,0.0,0.0,0.0,0.0,0.0,0.0,0.0,0.0,0.0,0.0,0.0,0.0,0.0,0.0,0.0,0.0,0.0,0.0,0.0,0.0,0.0,0.0,0.0,0.0,0.0,0.0,0.0,0.0,0.0,0.0,0.0,0.0,0.0,0.0,0.0,0.0,0.0,0.0,0.0,0.0,0.0,0.0,0.0,0.0,0.0,0.0,0.0,0.0,0.0,0.0,0.0,0.0,0.0,0.0,0.0,0.0,0.0,0.0,0.0,0.0,0.0,2.5111,2.4986,2.4623,2.4026,2.2827,2.191,0.0,0.0,0.0,0.0,0.0,0.0,0.0,0.0,0.0,0.0,0.0,0.0,0.0,0.0,0.0,0.0,0.0,0.0,0.0,0.0,0.0,0.0,0.0,0.0,0.0,0.0,0.0,0.0,0.0,0.0,0.0,0.0,0.0,0.0,0.0,0.0,0.0,0.0,0.0,0.0,0.0,0.0,0.0,0.0,0.0,0.0,0.0,0.0,0.0,0.0,0.0,0.0,0.0,0.0,0.0,0.0,0.0,0.0,0.0,0.0,0.0,0.0,0.0,0.0,0.0,0.0,0.0,0.0,0.0,0.0,0.0,0.0,0.0,0.0,0.0,0.0,0.0,0.0,0.0,0.0,0.0,0.0,0.0,0.0,0.0,0.0,0.0,0.0,0.0,0.0,0.0,0.0,0.0,0.0,0.0,0.0,0.0,0.0,0.0,0.0,0.0,0.0,0.0,0.0,0.0,0.0,0.0,0.0,0.0,2.3896,0.0,2.3779,2.3179,2.2461,2.1663,0.0,0.0,0.0,0.0,0.0,0.0,0.0,0.0,0.0,0.0,0.0,0.0,0.0,0.0,0.0,0.0,0.0,0.0,0.0,0.0,0.0,0.0,0.0,0.0,0.0,0.0,0.0,0.0,0.0,0.0,0.0,0.0,0.0,0.0,0.0,0.0,0.0,0.0,0.0,0.0,0.0,0.0,0.0,0.0,0.0,0.0,0.0,0.0,0.0,0.0,0.0,0.0,0.0,0.0,0.0,0.0,0.0,0.0,0.0,0.0,0.0,0.0,0.0,0.0,0.0,0.0,0.0,0.0,0.0,0.0,0.0,0.0,0.0,0.0,0.0,0.0,0.0,0.0,0.0,0.0,0.0,0.0,0.0,0.0,0.0,0.0,0.0,0.0,0.0,0.0,0.0,0.0,0.0,0.0,0.0,0.0,0.0,0.0,0.0,0.0,0.0,0.0,0.0,0.0,0.0,0.0,0.0,0.0,2.287,2.2928,2.3233,2.3304,2.2891,2.1804,2.1014,0.0,0.0,0.0,0.0,0.0,0.0,0.0,0.0,0.0,0.0,0.0,0.0,0.0,0.0,0.0,0.0,0.0,0.0,0.0,0.0,0.0,0.0,0.0,0.0,0.0,0.0,0.0,0.0,0.0,0.0,0.0,0.0,0.0,0.0,0.0,0.0,0.0,0.0,0.0,0.0,0.0,0.0,0.0,0.0,0.0,0.0,0.0,0.0,0.0,0.0,0.0,0.0,0.0,0.0,0.0,0.0,0.0,0.0,0.0,0.0,0.0,0.0,0.0,0.0,0.0,0.0,0.0,0.0,0.0,0.0,0.0,0.0,0.0,0.0,0.0,0.0,0.0,0.0,0.0,0.0,0.0,0.0,0.0,0.0,0.0,0.0,0.0,0.0,0.0,0.0,0.0,0.0,0.0,0.0,0.0,0.0,0.0,0.0,0.0,0.0,0.0,0.0,0.0,0.0,0.0,0.0,0.0,0.0,0.0,2.2767,2.3008,2.3333,2.367,2.1995,2.0914,0.0,0.0,0.0,0.0,0.0,0.0,0.0,0.0,0.0,0.0,0.0,0.0,0.0,0.0,0.0,0.0,0.0,0.0,0.0,0.0,0.0,0.0,0.0,0.0,0.0,0.0,0.0,0.0,0.0,0.0,0.0,0.0,0.0,0.0,0.0,0.0,0.0,0.0,0.0,0.0,0.0,0.0,0.0,0.0,0.0,0.0,0.0,0.0,0.0,0.0,0.0,0.0,0.0,0.0,0.0,0.0,0.0,0.0,0.0,0.0,0.0,0.0,0.0,0.0,0.0,0.0,0.0,0.0,0.0,0.0,0.0,0.0,0.0,0.0,0.0,0.0,0.0,0.0,0.0,0.0,0.0,0.0,0.0,0.0,0.0,0.0,0.0,0.0,0.0,0.0,0.0,0.0,0.0,0.0,0.0,0.0,0.0,0.0,0.0,0.0,0.0,0.0,0.0,0.0,0.0,0.0,0.0,0.0,0.0,2.2944,2.2996,2.3273,2.371,2.1932,2.0723,2.0312,0.0,0.0,0.0,0.0,0.0,0.0,0.0,0.0,0.0,0.0,0.0,0.0,0.0,0.0,0.0,0.0,0.0,0.0,0.0,0.0,0.0,0.0,0.0,0.0,0.0,0.0,0.0,0.0,0.0,0.0,0.0,0.0,0.0,0.0,0.0,0.0,0.0,0.0,0.0,0.0,0.0,0.0,0.0,0.0,0.0,0.0,0.0,0.0,0.0,0.0,0.0,0.0,0.0,0.0,0.0,0.0,0.0,0.0,0.0,0.0,0.0,0.0,0.0,0.0,0.0,0.0,0.0,0.0,0.0,0.0,0.0,0.0,0.0,0.0,0.0,0.0,0.0,0.0,0.0,0.0,0.0,0.0,0.0,0.0,0.0,0.0,0.0,0.0,0.0,0.0,0.0,0.0,0.0,0.0,0.0,0.0,0.0,0.0,0.0,0.0,0.0,0.0,0.0,0.0,0.0,0.0,0.0,0.0,2.3396,2.3301,2.3294,2.3196,2.1666,2.0565,0.0,0.0,0.0,0.0,0.0,0.0,0.0,0.0,0.0,0.0,0.0,0.0,0.0,0.0,0.0,0.0,0.0,0.0,0.0,0.0,0.0,0.0,0.0,0.0,0.0,0.0,0.0,0.0,0.0,0.0,0.0,0.0,0.0,0.0,0.0,0.0,0.0,0.0,0.0,0.0,0.0,0.0,0.0,0.0,0.0,0.0,0.0,0.0,0.0,0.0,0.0,0.0,0.0,0.0,0.0,0.0,0.0,0.0,0.0,0.0,0.0,0.0,0.0,0.0,0.0,0.0,0.0,0.0,0.0,0.0,0.0,0.0,0.0,0.0,0.0,0.0,0.0,0.0,0.0,0.0,0.0,0.0,0.0,0.0,0.0,0.0,0.0,0.0,0.0,0.0,0.0,0.0,0.0,0.0,0.0,0.0,0.0,0.0,0.0,0.0,0.0,0.0,0.0,0.0,0.0,0.0,0.0,0.0,0.0,2.4455,2.5131,2.5133,2.4474,2.2552,2.094,0.0,0.0,0.0,0.0,0.0,0.0,0.0,0.0,0.0,0.0,0.0,0.0,0.0,0.0,0.0,0.0,0.0,0.0,0.0,0.0,0.0,0.0,0.0,0.0,0.0,0.0,0.0,0.0,0.0,0.0,0.0,0.0,0.0,0.0,0.0,0.0,0.0,0.0,0.0,0.0,0.0,0.0,0.0,0.0,0.0,0.0,0.0,0.0,0.0,0.0,0.0,0.0,0.0,0.0,0.0,0.0,0.0,0.0,0.0,0.0,0.0,0.0,0.0,0.0,0.0,0.0,0.0,0.0,0.0,0.0,0.0,0.0,0.0,0.0,0.0,0.0,0.0,0.0,0.0,0.0,0.0,0.0,0.0,0.0,0.0,0.0,0.0,0.0,0.0,0.0,0.0,0.0,0.0,0.0,0.0,0.0,0.0,0.0,0.0,0.0,0.0,0.0,0.0,0.0,0.0,0.0,0.0,0.0,2.4751,2.5157,2.6145,2.6214,2.5241,2.3512,2.1775,0.0,0.0,0.0,0.0,0.0,0.0,0.0,0.0,0.0,0.0,0.0,0.0,0.0,0.0,0.0,0.0,0.0,0.0,0.0,0.0,0.0,0.0,0.0,0.0,0.0,0.0,0.0,0.0,0.0,0.0,0.0,0.0,0.0,0.0,0.0,0.0,0.0,0.0,0.0,0.0,0.0,0.0,0.0,0.0,0.0,0.0,0.0,0.0,0.0,0.0,0.0,0.0,0.0,0.0,0.0,0.0,0.0,0.0,0.0,0.0,0.0,0.0,0.0,0.0,0.0,0.0,0.0,0.0,0.0,0.0,0.0,0.0,0.0,0.0,0.0,0.0,0.0,0.0,0.0,0.0,0.0,0.0,0.0,0.0,0.0,0.0,0.0,0.0,0.0,0.0,0.0,0.0,0.0,0.0,0.0,0.0,0.0,0.0,0.0,0.0,0.0,0.0,0.0,0.0,0.0,0.0,0.0,0.0,2.538,2.5771,2.6848,2.6858,2.5742,2.4459,2.2714,0.0,0.0,0.0,0.0,0.0,0.0,0.0,0.0,0.0,0.0,0.0,0.0,0.0,0.0,0.0,0.0,0.0,0.0,0.0,0.0,0.0,0.0,0.0,0.0,0.0,0.0,0.0,0.0,0.0,0.0,0.0,0.0,0.0,0.0,0.0,0.0,0.0,0.0,0.0,0.0,0.0,0.0,0.0,0.0,0.0,0.0,0.0,0.0,0.0,0.0,0.0,0.0,0.0,0.0,0.0,0.0,0.0,0.0,0.0,0.0,0.0,0.0,0.0,0.0,0.0,0.0,0.0,0.0,0.0,0.0,0.0,0.0,0.0,0.0,0.0,0.0,0.0,0.0,0.0,0.0,0.0,0.0,0.0,0.0,0.0,0.0,0.0,0.0,0.0,0.0,0.0,0.0,0.0,0.0,0.0,0.0,0.0,0.0,0.0,0.0,0.0,0.0,0.0,0.0,0.0,0.0,0.0,0.0,2.5845,2.7598,2.8326,2.8216,2.7183,2.5257,2.2931,0.0,0.0,0.0,0.0,0.0,0.0,0.0,0.0,0.0,0.0,0.0,0.0,0.0,0.0,0.0,0.0,0.0,0.0,0.0,0.0,0.0,0.0,0.0,0.0,0.0,0.0,0.0,0.0,0.0,0.0,0.0,0.0,0.0,0.0,0.0,0.0,0.0,0.0,0.0,0.0,0.0,0.0,0.0,0.0,0.0,0.0,0.0,0.0,1.1244,0.0,0.0,0.0,0.0,0.0,0.0,0.0,0.0,0.0,0.0,0.0,0.0,0.0,0.0,0.0,0.0,0.0,0.0,0.0,0.0,0.0,0.0,0.0,0.0,0.0,0.0,0.0,0.0,0.0,0.0,0.0,0.0,0.0,0.0,0.0,0.0,0.0,0.0,0.0,0.0,0.0,0.0,0.0,0.0,0.0,0.0,0.0,0.0,0.0,0.0,0.0,0.0,0.0,0.0,0.0,0.0,0.0,0.0,0.0,2.7029,2.8132,2.8515,2.8275,2.74,2.6203,2.4204,0.0,0.0,0.0,0.0,0.0,0.0,0.0,0.0,0.0,0.0,0.0,0.0,0.0,0.0,0.0,0.0,0.0,0.0,0.0,0.0,0.0,0.0,0.0,0.0,0.0,0.0,0.0,0.0,0.0,0.0,0.0,0.0,0.0,0.0,0.0,0.0,0.0,0.0,0.0,0.0,0.0,0.0,0.0,0.0,0.0,0.0,0.0,0.0,0.0,0.0,0.0,0.0,0.0,0.0,0.0,0.0,0.0,0.0,0.0,0.0,0.0,0.0,0.0,0.0,0.0,0.0,0.0,0.0,0.0,0.0,0.0,0.0,0.0,0.0,0.0,0.0,0.0,0.0,0.0,0.0,0.0,0.0,0.0,0.0,0.0,0.0,0.0,0.0,0.0,0.0,0.0,0.0,0.0,0.0,0.0,0.0,0.0,0.0,0.0,0.0,0.0,0.0,0.0,0.0,0.0,0.0,0.0,2.6453,2.7852,2.8298,2.8366,2.8058,2.7384,2.7099,2.5515,2.2603,0.0,0.0,0.0,0.0,0.0,0.0,0.0,0.0,0.0,0.0,0.0,0.0,0.0,0.0,0.0,0.0,0.0,0.0,0.0,0.0,0.0,0.0,0.0,0.0,0.0,0.0,0.0,0.0,0.0,0.0,0.0,0.0,0.0,0.0,0.0,0.0,0.0,0.0,1.2554,1.241,0.0,0.0,0.0,0.0,0.0,0.0,0.0,0.0,1.1742,0.0,0.0,0.0,0.0,0.0,0.0,0.0,0.0,0.0,0.0,0.0,0.0,0.0,0.0,0.0,0.0,0.0,0.0,0.0,0.0,0.0,0.0,0.0,0.0,0.0,0.0,0.0,0.0,0.0,0.0,0.0,0.0,0.0,0.0,0.0,0.0,0.0,0.0,0.0,0.0,0.0,0.0,0.0,0.0,0.0,0.0,0.0,0.0,0.0,0.0,0.0,0.0,0.0,0.0,0.0,0.0,2.5025,2.5223,2.6394,2.862,2.8748,2.8492,2.8139,2.7298,2.5506,2.2644,0.0,0.0,0.0,0.0,0.0,0.0,0.0,0.0,0.0,0.0,0.0,0.0,0.0,0.0,0.0,0.0,0.0,0.0,0.0,0.0,0.0,0.0,0.0,0.0,0.0,0.0,0.0,0.0,0.0,0.0,0.0,0.0,0.0,0.0,0.0,0.0,0.0,0.0,0.0,1.2415,1.2748,0.0,0.0,0.0,0.0,0.0,0.0,0.0,0.0,1.232,0.0,0.0,0.0,0.0,0.0,0.0,0.0,0.0,0.0,0.0,0.0,0.0,0.0,0.0,0.0,0.0,0.0,0.0,0.0,0.0,0.0,0.0,0.0,0.0,0.0,0.0,0.0,0.0,0.0,0.0,0.0,0.0,0.0,0.0,0.0,0.0,0.0,0.0,0.0,0.0,0.0,0.0,0.0,0.0,0.0,0.0,0.0,0.0,0.0,0.0,0.0,0.0,0.0,0.0,0.0,2.4804,2.6073,2.729,2.836,2.8338,2.8105,2.7643,2.7196,2.5504,0.0,0.0,0.0,0.0,0.0,0.0,0.0,0.0,0.0,0.0,0.0,0.0,0.0,0.0,0.0,0.0,0.0,0.0,0.0,0.0,0.0,0.0,0.0,0.0,0.0,0.0,0.0,0.0,0.0,0.0,0.0,0.0,0.0,0.0,0.0,0.0,0.0,0.0,0.0,0.0,1.2702,1.3199,1.3064,0.0,0.0,0.0,0.0,0.0,0.0,1.3148,1.327,0.0,0.0,0.0,0.0,0.0,0.0,0.0,0.0,0.0,0.0,0.0,0.0,0.0,0.0,0.0,0.0,0.0,0.0,0.0,0.0,0.0,0.0,0.0,0.0,0.0,0.0,0.0,0.0,0.0,0.0,0.0,0.0,0.0,0.0,0.0,0.0,0.0,0.0,0.0,0.0,0.0,0.0,0.0,0.0,0.0,0.0,0.0,0.0,0.0,0.0,0.0,0.0,0.0,0.0,0.0,2.4425,2.6872,2.8116,2.7933,2.7815,2.759,2.7092,2.7011,2.5422,0.0,0.0,0.0,0.0,0.0,0.0,0.0,0.0,0.0,0.0,0.0,0.0,0.0,0.0,0.0,0.0,0.0,0.0,0.0,0.0,0.0,0.0,0.0,0.0,0.0,0.0,0.0,0.0,0.0,0.0,0.0,0.0,0.0,0.0,0.0,0.0,0.0,0.0,0.0,0.0,0.0,1.3579,1.3776,1.3661,0.0,0.0,0.0,0.0,1.3571,1.4054,0.0,0.0,0.0,0.0,0.0,0.0,0.0,0.0,0.0,0.0,0.0,0.0,0.0,0.0,0.0,0.0,0.0,0.0,0.0,0.0,0.0,0.0,0.0,0.0,0.0,0.0,0.0,0.0,0.0,0.0,0.0,0.0,0.0,0.0,0.0,0.0,0.0,0.0,0.0,0.0,0.0,0.0,0.0,0.0,0.0,0.0,0.0,0.0,0.0,0.0,0.0,0.0,0.0,0.0,0.0,0.0,2.4041,2.5838,2.7067,2.7775,2.7829,2.7656,2.7281,2.693,2.5039,0.0,0.0,0.0,0.0,0.0,0.0,0.0,0.0,0.0,0.0,0.0,0.0,0.0,0.0,0.0,0.0,0.0,0.0,0.0,0.0,0.0,0.0,0.0,0.0,0.0,0.0,0.0,0.0,0.0,0.0,0.0,0.0,0.0,0.0,0.0,0.0,0.0,0.0,0.0,0.0,0.0,1.3699,1.4326,1.4297,1.442,0.0,0.0,0.0,1.4224,1.4628,0.0,0.0,0.0,0.0,0.0,0.0,0.0,0.0,0.0,0.0,0.0,0.0,0.0,0.0,0.0,0.0,0.0,0.0,0.0,0.0,0.0,0.0,0.0,0.0,0.0,0.0,0.0,0.0,0.0,0.0,0.0,0.0,0.0,0.0,0.0,0.0,0.0,0.0,0.0,0.0,0.0,0.0,0.0,0.0,0.0,0.0,0.0,0.0,0.0,0.0,0.0,0.0,0.0,0.0,0.0,2.3398,2.4122,2.6367,2.7548,2.7629,2.793,2.7647,2.6875,2.6974,2.5191,0.0,0.0,0.0,0.0,0.0,0.0,0.0,0.0,0.0,0.0,0.0,0.0,0.0,0.0,0.0,0.0,0.0,0.0,0.0,0.0,0.0,0.0,0.0,0.0,0.0,0.0,0.0,0.0,0.0,0.0,0.0,0.0,0.0,0.0,0.0,0.0,0.0,0.0,0.0,0.0,0.0,0.0,1.4921,1.4836,0.0,0.0,0.0,1.5401,1.5323,0.0,0.0,0.0,0.0,0.0,0.0,0.0,0.0,0.0,0.0,0.0,0.0,0.0,0.0,0.0,0.0,0.0,0.0,0.0,0.0,0.0,0.0,0.0,0.0,0.0,0.0,0.0,0.0,0.0,0.0,0.0,0.0,0.0,0.0,0.0,0.0,0.0,0.0,0.0,0.0,0.0,0.0,0.0,0.0,0.0,0.0,0.0,0.0,0.0,0.0,0.0,0.0,0.0,0.0,0.0,0.0,0.0,2.4109,2.6938,2.8145,2.7654,2.8069,2.7769,2.6683,2.7188,0.0,0.0,0.0,0.0,0.0,0.0,0.0,0.0,0.0,0.0,0.0,0.0,0.0,0.0,0.0,0.0,0.0,0.0,0.0,0.0,0.0,0.0,0.0,0.0,0.0,0.0,0.0,1.387,0.0,0.0,0.0,0.0,0.0,0.0,0.0,0.0,0.0,0.0,0.0,0.0,0.0,0.0,1.5326,1.5607,1.547,1.5645,0.0,0.0,1.64,1.6315,1.6715,1.6707,0.0,0.0,0.0,0.0,0.0,0.0,0.0,0.0,0.0,0.0,0.0,0.0,0.0,0.0,0.0,0.0,0.0,0.0,0.0,0.0,0.0,0.0,0.0,0.0,0.0,0.0,0.0,0.0,0.0,0.0,0.0,0.0,0.0,0.0,0.0,0.0,0.0,0.0,0.0,0.0,0.0,0.0,0.0,0.0,0.0,0.0,0.0,0.0,0.0,0.0,0.0,0.0,0.0,0.0,0.0,2.4091,2.701,2.8406,2.8106,2.8221,2.7906,2.7011,2.7695,2.5816,0.0,0.0,0.0,0.0,0.0,0.0,0.0,0.0,0.0,0.0,0.0,0.0,0.0,0.0,0.0,0.0,0.0,0.0,0.0,0.0,0.0,0.0,0.0,0.0,0.0,0.0,0.0,0.0,0.0,0.0,0.0,0.0,0.0,0.0,0.0,0.0,0.0,0.0,0.0,0.0,0.0,1.5981,1.6444,1.6462,1.6492,0.0,0.0,1.7292,1.6945,1.7672,1.7837,1.6513,0.0,0.0,0.0,0.0,0.0,0.0,0.0,0.0,0.0,0.0,0.0,0.0,0.0,0.0,0.0,0.0,0.0,0.0,0.0,0.0,0.0,0.0,0.0,0.0,0.0,0.0,0.0,0.0,0.0,0.0,0.0,0.0,0.0,0.0,0.0,0.0,0.0,0.0,0.0,0.0,0.0,0.0,0.0,0.0,0.0,0.0,0.0,0.0,0.0,0.0,0.0,0.0,0.0,2.4404,2.4067,2.7426,2.8835,2.8132,2.8576,2.8495,2.773,2.8239,2.7056,0.0,0.0,0.0,0.0,0.0,0.0,0.0,0.0,0.0,0.0,0.0,0.0,0.0,0.0,0.0,0.0,0.0,0.0,0.0,0.0,0.0,0.0,0.0,0.0,0.0,0.0,0.0,0.0,1.472,1.4735,1.4726,0.0,0.0,0.0,0.0,0.0,0.0,0.0,0.0,0.0,0.0,1.6361,1.7334,1.7188,0.0,0.0,1.8239,1.8208,1.7937,1.8271,1.8226,1.7432,1.7496,0.0,0.0,0.0,0.0,0.0,0.0,0.0,0.0,0.0,0.0,0.0,0.0,0.0,0.0,0.0,0.0,0.0,0.0,0.0,0.0,0.0,0.0,0.0,0.0,0.0,0.0,0.0,0.0,0.0,0.0,0.0,0.0,0.0,0.0,0.0,0.0,0.0,0.0,0.0,0.0,0.0,0.0,0.0,0.0,0.0,0.0,0.0,0.0,0.0,0.0,0.0,0.0,2.4638,2.4127,2.7789,2.9309,2.8638,2.9171,2.9093,2.8433,2.8908,2.7956,0.0,0.0,0.0,0.0,0.0,0.0,0.0,0.0,0.0,0.0,0.0,0.0,0.0,0.0,0.0,0.0,0.0,0.0,0.0,0.0,0.0,0.0,0.0,0.0,0.0,0.0,0.0,0.0,1.492,1.4761,1.4812,0.0,0.0,0.0,0.0,0.0,0.0,0.0,0.0,0.0,0.0,1.7115,1.8074,1.7921,1.8068,1.8955,1.9039,1.9042,1.891,1.8939,1.886,1.8431,0.0,0.0,0.0,0.0,0.0,0.0,0.0,0.0,0.0,0.0,0.0,0.0,0.0,0.0,0.0,0.0,0.0,0.0,0.0,0.0,0.0,0.0,0.0,0.0,0.0,0.0,0.0,0.0,0.0,0.0,1.9465,0.0,0.0,0.0,0.0,0.0,0.0,0.0,0.0,0.0,0.0,0.0,0.0,0.0,0.0,0.0,0.0,0.0,0.0,0.0,0.0,0.0,0.0,0.0,2.4464,2.816,2.9941,2.9767,2.9966,2.9678,2.8931,2.9479,2.8448,2.5594,0.0,0.0,0.0,0.0,0.0,0.0,0.0,0.0,0.0,0.0,0.0,0.0,0.0,0.0,0.0,0.0,0.0,0.0,0.0,0.0,0.0,0.0,0.0,0.0,0.0,0.0,1.6034,1.5428,1.5101,0.0,0.0,0.0,0.0,0.0,0.0,0.0,0.0,0.0,0.0,1.8224,1.8377,1.8619,1.8896,1.9256,1.9587,1.9722,1.9713,1.9692,2.0009,2.0001,0.0,0.0,0.0,0.0,0.0,0.0,0.0,0.0,0.0,0.0,0.0,0.0,0.0,0.0,0.0,0.0,0.0,0.0,0.0,0.0,0.0,0.0,0.0,0.0,0.0,0.0,0.0,2.2748,2.2328,0.0,0.0,0.0,0.0,0.0,0.0,0.0,0.0,0.0,0.0,0.0,3.0515,3.0509,0.0,0.0,0.0,0.0,0.0,0.0,0.0,0.0,0.0,0.0,0.0,0.0,2.5217,2.4817,2.8616,3.0432,2.998,3.0046,3.0032,2.9909,3.0046,2.8829,2.5845,0.0,0.0,0.0,0.0,0.0,0.0,0.0,0.0,0.0,0.0,0.0,0.0,0.0,0.0,0.0,0.0,0.0,0.0,0.0,0.0,0.0,0.0,0.0,0.0,0.0,1.6305,0.0,0.0,0.0,0.0,0.0,0.0,0.0,0.0,0.0,0.0,0.0,1.8024,1.8641,1.8833,1.9083,1.9745,1.9982,2.0114,0.0,0.0,0.0,0.0,0.0,0.0,0.0,0.0,0.0,0.0,0.0,0.0,0.0,0.0,1.9182,1.792,1.7826,1.77,1.7183,0.0,0.0,0.0,0.0,0.0,0.0,0.0,0.0,0.0,0.0,0.0,0.0,0.0,0.0,0.0,0.0,2.3379,0.0,0.0,0.0,0.0,0.0,0.0,0.0,0.0,2.9088,3.07,3.1951,3.2008,3.1624,0.0,3.1433,3.0127,0.0,0.0,0.0,0.0,0.0,0.0,0.0,0.0,2.6554,2.6155,2.9419,3.0956,3.0448,3.0433,3.0438,3.0511,3.0163,2.8949,2.6619,2.5871,2.432,0.0,0.0,0.0,0.0,0.0,0.0,0.0,0.0,0.0,0.0,0.0,0.0,0.0,0.0,0.0,0.0,0.0,0.0,0.0,0.0,0.0,0.0,0.0,1.6697,0.0,0.0,0.0,0.0,0.0,0.0,0.0,0.0,0.0,1.8056,1.8427,1.8988,1.947,1.9689,1.9969,2.0419,0.0,0.0,0.0,0.0,0.0,0.0,0.0,2.1079,2.1054,2.0744,2.0585,2.0643,2.09,2.0977,2.0728,0.0,0.0,1.9245,1.9123,1.9042,1.8518,1.8322,1.8131,1.7986,1.8073,1.8081,0.0,0.0,0.0,0.0,0.0,0.0,0.0,0.0,2.7924,2.7219,0.0,2.4605,0.0,0.0,0.0,0.0,0.0,0.0,0.0,0.0,3.1476,3.243,3.2648,3.2662,3.2187,3.1382,3.2085,3.2044,3.1208,2.9792,0.0,0.0,0.0,0.0,0.0,0.0,2.8711,2.8326,3.0454,3.1373,3.1035,3.0973,3.0911,3.0685,2.9896,2.8926,2.7782,2.6615,2.5455,2.4304,2.1027,0.0,0.0,0.0,0.0,0.0,0.0,0.0,0.0,0.0,0.0,0.0,0.0,0.0,0.0,0.0,0.0,0.0,0.0,0.0,0.0,1.737,0.0,0.0,0.0,0.0,0.0,0.0,0.0,0.0,0.0,0.0,2.001,1.9645,1.9632,2.042,0.0,0.0,0.0,0.0,2.1877,2.1618,2.1971,2.207,2.183,2.188,2.1803,2.1479,0.0,0.0,2.1448,2.1448,2.1456,2.1448,2.1456,2.1216,2.0506,2.0218,2.0062,2.0025,1.9604,1.9239,1.9204,1.9052,1.8883,3.6097,0.0,0.0,0.0,0.0,2.8252,2.8426,2.9218,2.8931,2.8547,2.7989,2.7509,0.0,0.0,0.0,0.0,0.0,0.0,2.765,2.9898,3.0432,3.1363,3.2676,3.269,3.2407,3.1951,3.2581,3.2568,3.201,3.1981,3.0687,2.8043,0.0,0.0,0.0,0.0,2.8738,2.8664,3.0521,3.1474,3.1228,3.1088,3.0911,3.0698,3.0152,2.9601,2.8963,2.8277,2.7005,2.4872,2.3789,0.0,0.0,0.0,0.0,0.0,0.0,0.0,0.0,0.0,0.0,0.0,0.0,0.0,0.0,0.0,0.0,0.0,0.0,0.0,1.8694,1.8881,1.8926,0.0,0.0,0.0,0.0,0.0,0.0,0.0,0.0,0.0,2.1476,2.1024,2.0717,0.0,0.0,2.1503,2.1726,2.1998,2.2253,2.2245,0.0,0.0,0.0,2.2906,2.3169,2.2892,2.2722,2.2535,2.2261,2.2227,2.2218,2.2218,2.2218,2.2141,2.1927,2.1406,2.101,2.0821,2.0541,2.0249,2.0031,1.9958,1.9868,4.0133,3.6238,3.3527,3.2241,3.1954,3.1068,3.1221,3.2072,3.1845,3.123,3.0249,2.9722,2.9025,2.8243,2.7636,0.0,0.0,0.0,2.9836,3.2009,3.1875,3.2388,3.3234,3.3216,3.3009,3.2827,3.309,3.3152,3.2888,3.3118,3.2359,3.061,0.0,0.0,2.8298,2.9556,3.0078,2.986,3.1173,3.1686,3.1215,3.1013,3.0877,3.0791,3.0189,2.9686,2.9492,2.8992,2.7997,2.6421,2.5526,2.4271,0.0,0.0,0.0,0.0,0.0,0.0,0.0,0.0,0.0,0.0,0.0,1.7867,0.0,0.0,0.0,0.0,1.9104,1.9251,1.9548,1.9568,0.0,0.0,0.0,0.0,0.0,0.0,0.0,2.1344,2.1519,2.1749,2.2114,2.2095,2.1951,2.1762,2.1947,2.219,2.2483,0.0,2.299,2.2944,2.3162,2.3363,2.318,2.3653,2.3992,2.3765,2.3644,2.3367,2.3152,2.2997,2.3006,2.2997,2.2989,2.2989,2.3092,2.2624,2.2123,2.1786,2.1445,2.1143,2.0949,2.0764,2.0628,4.3018,4.2324,3.7421,3.522,3.4772,3.4349,3.4718,3.5638,3.5638,3.4571,3.2727,3.1381,3.0427,2.9717,2.8727,0.0,3.2225,3.2028,3.3042,3.5138,3.4854,3.454,3.4175,3.4009,3.3792,3.3638,3.3692,3.3769,3.3842,3.3457,3.3186,3.3105,3.2695,3.2395,3.2169,3.2155,3.1977,3.1662,3.2168,3.1968,3.113,3.0903,3.0933,3.095,3.0027,2.9559,2.9638,2.8935,2.851,2.8438,2.6554,2.5294,2.499,0.0,0.0,0.0,0.0,0.0,0.0,0.0,0.0,0.0,0.0,0.0,0.0,0.0,0.0,0.0,2.0616,0.0,2.0121,1.9985,0.0,0.0,0.0,2.0918,2.1279,2.1964,2.2231,2.2085,0.0,0.0,2.2485,0.0,2.3271,2.2934,2.2941,2.2981,2.2942,2.349,2.3846,2.3584,2.3895,2.4143,2.3909,2.419,2.4464,2.4333,2.4123,2.4008,2.3737,2.3639,2.3682,2.3648,2.3674,2.3639,2.3657,2.3582,2.3503,2.2756,2.2393,2.2071,2.1808,2.1628,2.1329,4.3205,4.198,4.0501,3.9325,3.8372,3.7282,3.6645,3.6266,3.5983,3.5468,3.4753,3.437,3.4016,3.379,3.3507,3.3635,3.4108,3.389,3.4136,3.4677,3.4616,3.4493,3.4175,3.4175,3.4023,3.391,3.4329,3.4316,3.391,3.4116,3.4035,3.3666,3.3148,3.2626,3.2209,3.2036,3.2031,3.2222,3.2203,3.2211,3.228,3.2058,3.1898,3.18,3.083,3.0194,2.9942,2.9175,2.8657,2.851,2.8361,2.7981,2.7186,2.5408,0.0,0.0,0.0,0.0,0.0,0.0,0.0,0.0,0.0,2.0508,2.0764,0.0,2.1561,0.0,2.2073,2.2436,2.1908,2.2127,0.0,0.0,2.198,2.2036,2.2589,2.2973,2.3236,2.3431,2.3751,2.3846,2.3861,2.3862,2.3954,2.4173,2.3645,2.3308,2.3632,2.3771,2.3948,2.4039,2.4088,2.4262,2.4537,2.4968,2.5245,2.5272,2.4854,2.4436,2.4026,2.3877,2.3674,2.3674,2.3525,2.3525,2.3699,2.3808,2.3826,2.3522,2.3252,2.2913,2.2639,2.2331,2.2014,4.3697,4.2606,4.2406,4.098,3.9005,3.89,3.8454,3.797,3.7471,3.69,3.624,3.5554,3.5455,3.5559,3.5498,3.5501,3.56,3.5523,3.5585,3.5884,3.548,3.5352,3.5271,3.4776,3.451,3.4286,3.4607,3.4674,3.4431,3.4419,3.4271,3.4041,3.3395,3.2944,3.256,3.2457,3.2439,3.2513,3.2448,3.2568,3.3064,3.2442,3.2188,3.2243,3.1154,3.038,3.0135,2.9448,2.8911,2.8522,2.8787,2.865,2.8042,2.7085,2.6358,0.0,0.0,0.0,0.0,0.0,0.0,0.0,0.0,0.0,0.0,0.0,2.3032,0.0,2.3315,0.0,2.3111,2.3153,2.3165,2.3104,2.2996,2.3108,2.367,2.4055,2.4296,2.4317,2.4549,2.461,2.4485,2.4507,2.4726,2.4898,2.4364,2.4029,2.4147,2.4203,2.4189,2.4205,2.4387,2.4647,2.5267,2.5554,2.5711,2.5757,2.5468,2.5072,2.4628,2.4386,2.4179,2.417,2.4045,2.4045,2.4196,2.4339,2.433,2.4187,2.4054,2.3693,2.3193,2.2806,2.2486,4.4189,4.3551,4.3409,4.1516,3.8766,3.9886,3.9836,3.8871,3.8413,3.7734,3.7082,3.6005,3.5855,3.6416,3.6213,3.6443,3.693,3.6795,3.7073,3.7574,3.6778,3.6496,3.6673,3.5693,3.511,3.4958,3.4878,3.4921,3.5059,3.4579,3.434,3.43,3.3728,3.3331,3.3186,3.3093,3.2974,3.2816,3.2789,3.3088,3.3584,3.2452,3.2098,3.2407,3.1218,3.0518,3.0481,2.9747,2.9114,2.867,2.8694,2.8626,2.83,2.8209,2.7754,0.0,2.6657,0.0,0.0,0.0,0.0,0.0,0.0,0.0,0.0,2.4948,2.4724,2.4382,2.4346,2.4239,2.4041,2.3698,2.3577,2.3791,2.3953,2.428,2.4644,2.5078,2.5167,2.4993,2.5268,2.5339,2.4773,2.5042,2.5276,2.5188,2.514,2.4979,2.4712,2.4613,2.4631,2.4334,2.469,2.5247,2.5845,2.5982,2.6071,2.6155,2.5872,2.5569,2.5296,2.4982,2.4804,2.4795,2.477,2.4787,2.4821,2.4684,2.4667,2.465,2.4633,2.4446,2.3719,2.3228,2.2947,4.4112,4.3409,4.3329,4.2589,4.1368,4.1651,3.8967,3.4434,3.4236,3.4889,3.6139,3.6965,3.7737,3.8327,3.8056,3.8045,3.8128,3.7344,3.7373,3.8076,3.6837,3.6685,3.727,3.6226,3.5708,3.5681,3.5395,3.5249,3.5072,3.4979,3.4912,3.4926,3.4232,3.3931,3.3848,0.0,0.0,0.0,3.3341,3.354,3.3643,3.2877,3.2536,3.2623,3.1589,0.0,3.1016,3.0133,2.9558,2.9475,2.9697,0.0,0.0,0.0,0.0,0.0,0.0,0.0,0.0,0.0,0.0,0.0,2.7093,2.6462,2.598,2.5576,2.5193,2.5022,2.5124,2.5251,2.5188,2.5315,2.532,2.5245,2.5247,2.5259,2.5451,2.5737,2.591,2.5645,2.5829,2.5915,2.5723,2.5752,2.5606,2.5625,2.5888,2.5833,2.5314,2.5324,2.5252,2.4794,2.5273,2.5784,2.5937,2.6236,2.6454,2.6473,2.6026,2.5679,2.5569,2.5136,2.4821,2.4821,2.4821,2.4821,2.4821,2.442,2.4164,2.447,2.4454,2.4394,2.4183,2.4157,2.3944,4.4112,0.0,4.3344,4.2189,0.0,4.0397,3.8032,3.4416,3.6197,3.7259,3.7625,3.8187,3.8566,3.8873,3.7712,3.707,3.6922,3.5494,3.57,3.7242,3.6039,3.6307,3.7894,3.6436,3.5698,3.56,3.5269,3.5086,3.4921,3.5086,3.499,3.4743,3.4397,3.4076,3.3751,3.3641,3.35,3.3469,3.35,3.3556,3.3556,3.2896,3.255,3.255,0.0,0.0,0.0,0.0,0.0,0.0,0.0,0.0,0.0,0.0,0.0,2.8561,2.8418,2.823,2.7966,2.7713,2.7782,2.8276,2.8103,2.7793,2.7286,2.7076,2.6801,2.6646,2.672,2.6682,2.6387,2.6445,2.6336,2.5996,2.6011,2.6064,2.6105,2.6465,2.665,2.6402,2.633,2.6217,2.614,2.5849,2.5732,2.5742,2.581,2.5756,2.5629,2.5828,2.5916,2.5618,2.5866,2.6203,2.6327,2.6436,2.6591,2.6582,2.6136,2.5789,2.5679,2.5145,2.4821,2.483,2.4838,2.4735,2.4565,2.4172,2.3941,2.4239,2.4248,2.4239,2.4368,2.4264,2.4033,4.4112,4.3359,4.3464,4.1941,3.9576,3.9542,3.8458,3.6882,0.0,0.0,0.0,3.9201,3.9168,3.9126,3.7408,3.6575,3.6283,3.4524,3.4967,3.7105,3.5822,3.6468,3.8437,3.6764,3.5845,3.566,3.535,3.5156,3.5143,3.5285,3.5136,3.4708,3.4533,3.4147,3.3556,3.3484,3.3471,3.3628,3.3386,3.3227,3.3227,3.2649,3.23,3.23,3.1937,3.1456,3.1036,3.1011,3.0819,3.0301,3.0278,3.017,2.9936,2.9717,2.9468,2.9259,2.9051,2.8964,2.8964,2.8884,2.8838,2.8838,2.8919,2.8809,2.8411,2.84,2.8302,2.8128,2.8107,2.7888,2.7435,2.7255,2.6928,2.6487,2.6547,2.6693,2.6713,2.7013,2.721,2.6999,2.6638,2.639,2.6187,2.5907,2.5732,2.5655,2.5731,2.5756,2.5977,2.6228,2.6399,2.6567,2.6495,2.6412,2.659,2.6582,2.6591,2.6591,2.6136,2.5679,2.5569,2.5255,2.4821,2.4821,2.4855,2.4735,2.4462,2.3966,2.3863,2.4153,2.4049,2.3937,2.4153,2.4041,2.3809,4.4112,4.3374,4.3943,4.3456,4.2451,4.3018,4.2727,4.1732,3.9139,3.8146,3.8504,3.9515,4.018,4.0633,4.021,3.9999,3.9859,3.9002,3.9128,0.0,3.8809,3.8533,3.9115,3.7939,3.7281,3.7091,3.6698,3.6591,3.6551,3.6324,3.5985,3.5681,3.509,3.4507,3.3979,3.3823,3.3543,3.3484,3.297,3.2723,3.2562,3.2025,3.1849,3.1849,3.1749,3.1637,3.1565,3.1364,3.1252,3.118,3.098,3.0814,3.085,3.0582,3.0403,3.0368,3.0099,2.9998,2.9975,2.9619,2.9389,2.9412,2.9768,2.9564,2.8479,2.84,2.8302,2.815,2.8344,2.8197,2.7688,2.7817,2.7649,2.7212,2.7201,2.7158,2.7148,2.721,2.7262,2.7241,2.6774,2.6506,2.642,2.6024,2.5732,2.584,2.618,2.6958,2.7284,2.6729,2.6421,2.699,2.6859,2.6571,2.6554,2.6591,2.6591,2.6591,2.6136,2.5679,2.5679,2.5255,2.4821,2.4821,2.4838,2.4735,2.4418,2.364,2.3407,2.3617,2.3601,2.3544,2.3689,2.3593,2.3585,4.3957,4.3245,4.3886,4.3661,4.3036,4.3703,4.3616,4.2861,4.1229,4.0321,4.0206,4.0581,4.0844,4.0873,3.9776,3.9178,3.8918,3.7366,3.7494,3.8904,3.8072,3.8379,3.9508,3.8519,3.7886,3.7784,3.731,3.7016,3.7002,3.699,3.677,3.6391,3.5423,3.464,3.4102,3.3797,3.3641,3.3386,3.3068,3.2736,3.2388,3.2038,3.1849,3.1749,3.1661,3.1661,3.1661,3.1572,3.1484,3.1484,3.1407,3.1318,3.1139,3.0906,3.0714,3.0578,3.0306,3.0216,3.0216,3.0009,2.9894,2.9906,3.0354,3.0377,2.984,2.9521,2.9361,2.9272,2.9297,2.9138,2.851,2.843,2.8186,2.7536,2.7347,2.7262,2.7272,2.7272,2.7272,2.7262,2.6986,2.6709,2.6526,2.6217,2.583,2.581,2.6374,2.705,2.7881,2.7313,2.6924,2.7267,2.7051,2.6834,2.6682,2.6591,2.6591,2.6591,2.6136,2.5789,2.5679,2.5255,2.4821,2.4821,2.4847,2.4735,2.4504,2.3664,2.3352,2.3537,2.3392,2.3344,2.3472,2.336,2.3247,4.3786,4.312,4.3723,4.3755,4.3456,4.3964,4.3819,4.3224,4.305,4.2545,4.1843,4.1549,4.1297,4.0887,3.939,3.8546,3.8075,3.6558,3.6671,3.814,3.7807,3.8436,3.9802,3.8891,3.8438,3.831,3.7806,3.7591,3.7663,3.7714,3.7407,3.6804,3.5733,3.4966,3.4367,3.4043,3.3713,3.3581,3.3411,3.3068,3.2475,3.2125,3.1937,3.1849,3.1749,3.1661,3.1661,3.1661,3.1661,3.1661,3.1661,3.1572,3.1395,3.1305,3.1184,3.0945,3.0765,3.056,3.056,3.056,3.056,3.0572,3.0939,3.118,3.1239,3.0859,3.0457,3.0399,3.0262,2.992,2.9279,2.8932,2.8571,2.782,2.7441,2.7357,2.7357,2.7272,2.7272,2.7262,2.7081,2.6805,2.6506,2.6294,2.6112,2.6113,2.6478,2.7098,2.7639,2.7873,2.7716,2.752,2.7286,2.6952,2.6682,2.6591,2.6591,2.6582,2.6136,2.5789,2.5578,2.5136,2.4821,2.4821,2.4855,2.4727,2.4437,2.3607,2.3223,2.344,2.3295,2.2998,2.3247,2.3135,2.3014,4.3895,4.3434,4.3819,4.427,4.472,4.4763,4.4429,4.3834,4.3268,4.2658,4.2053,4.18,4.1549,4.1367,4.0871,4.0533,4.0309,4.0182,4.0111,4.0294,4.0364,4.022,3.9982,3.9651,3.936,3.9197,3.8822,3.883,3.8918,3.8572,3.7798,3.6817,3.6231,3.5698,3.5168,3.4601,3.4256,3.403,3.4004,3.3569,3.2711,3.2213,3.2125,3.23,3.1937,3.1661,3.1761,3.1661,3.1661,3.1661,3.1761,3.1673,3.1721,3.1848,3.2019,3.1952,3.1879,3.1889,3.17,3.1605,3.1547,3.1605,3.1628,3.178,3.1935,3.1832,3.1402,3.1055,3.0526,3.0023,2.9497,2.9265,2.8855,2.822,2.782,2.7547,2.7388,2.7272,2.7272,2.7272,2.7081,2.6805,2.6602,2.6294,2.631,2.668,2.7119,2.7637,2.8076,2.8145,2.7999,2.7755,2.7384,2.6952,2.6682,2.6591,2.6591,2.6582,2.6136,2.5798,2.5569,2.5255,2.4821,2.4821,2.483,2.4701,2.4292,2.3645,2.3095,2.3206,2.3077,2.2749,2.3006,2.3014,2.3014,4.3957,4.3548,4.3819,4.4581,4.5402,4.523,4.4821,4.4408,4.3874,4.3224,4.2673,4.2516,4.2146,4.1535,4.1367,4.1114,4.0845,4.0773,4.0702,4.0702,4.0702,4.0616,4.043,4.0184,3.9922,3.9747,3.9482,3.9305,3.9264,3.9047,3.8452,3.7665,3.7184,3.6645,3.6042,3.5306,3.4803,3.4611,3.4296,3.392,3.3496,3.3068,3.281,3.2711,3.2376,3.2125,3.2125,3.1849,3.1661,3.1685,3.1961,3.2154,3.2166,3.2452,3.2543,3.2554,3.2465,3.23,3.2217,3.2016,3.2016,3.2111,3.2306,3.2564,3.2744,3.2746,3.2557,3.2299,3.1576,3.0962,3.0631,3.0287,2.9789,2.9299,2.8935,2.8549,2.7976,2.7955,2.786,2.7419,2.7177,2.6986,2.6699,2.64,2.6379,2.6918,2.7207,2.7578,2.8154,2.8203,2.7881,2.7638,2.7286,2.707,2.689,2.6691,2.6591,2.6473,2.6136,2.5679,2.5569,2.5255,2.4821,2.4821,2.4821,2.4693,2.442,2.3702,2.3023,2.3085,2.3093,2.2885,2.3014,2.3014,2.3014,4.4127,4.3765,4.4161,4.4876,4.5654,4.5432,4.5169,4.4884,4.4206,4.3612,4.3175,4.2971,4.265,4.2092,4.1791,4.1539,4.1256,4.0858,4.0702,4.0702,4.0702,4.0702,4.0702,4.0471,4.0312,4.0097,3.9862,3.9584,3.9305,3.9305,3.8986,3.8343,3.7953,3.7483,3.6783,3.6068,3.5495,3.5305,3.4725,3.4451,3.4386,3.3959,3.3556,3.3215,3.2636,3.24,3.2388,3.1937,3.1821,3.2055,3.2364,3.2629,3.2805,3.3047,3.3243,3.3268,3.3102,3.3007,3.2912,3.2721,3.2732,3.2947,3.3083,3.3379,3.3464,3.3405,3.3309,3.3309,3.2456,3.1785,3.1445,3.0975,3.048,3.0177,2.9807,2.9232,2.8473,2.8421,2.8135,2.745,2.7272,2.7228,2.7074,2.6919,2.7093,2.7406,2.755,2.7633,2.8231,2.8194,2.7881,2.7539,2.7314,2.7098,2.6999,2.6791,2.6582,2.6473,2.6136,2.5679,2.5679,2.5145,2.4821,2.4821,2.4821,2.4693,2.442,2.3727,2.2927,2.307,2.3085,2.2901,2.3014,2.3014,2.3014,4.4205,4.3871,4.4802,4.5206,4.509,4.5498,4.5563,4.5427,4.4265,4.3608,4.349,4.3057,4.2813,4.2953,4.2461,4.2152,4.1808,4.1113,4.0702,4.0702,4.0702,4.0702,4.0688,4.0471,4.0399,4.0312,3.995,3.9584,3.9305,3.9305,3.9189,3.8827,3.837,3.7987,3.7576,3.6823,3.6478,3.6231,3.5594,3.5188,3.5139,3.4638,3.4102,3.3641,3.2896,3.2487,3.24,3.195,3.2067,3.2718,3.2684,3.2841,3.3448,3.3784,3.4019,3.4231,3.4326,3.424,3.4032,3.3911,3.3911,3.3958,3.3923,3.4103,3.4216,3.3684,3.3476,3.3575,3.2872,3.2188,3.1769,3.1155,3.0623,3.0406,3.0057,2.9449,2.8591,2.8494,2.8114,2.7471,2.7303,2.7404,2.758,2.8077,2.8166,2.8334,2.8466,2.8532,2.8562,2.8447,2.8116,2.7881,2.7577,2.7399,2.6818,2.6709,2.67,2.6473,2.6136,2.5679,2.5467,2.5247,2.5034,2.4821,2.4821,2.4693,2.4309,2.383,2.3039,2.2877,2.2812,2.2788,2.2788,2.2901,2.2901,4.5141,4.4858,4.5711,4.6336,4.6613,4.6523,4.6289,4.5785,4.4989,4.4444,4.4072,4.3819,4.3939,4.4408,4.3539,4.2745,4.1949,4.1397,4.1043,4.093,4.0773,4.0702,4.0702,4.063,4.0558,4.0399,4.0023,3.9659,3.9305,3.9305,3.9292,3.9087,3.8809,3.8599,3.8314,3.7656,3.714,3.6763,3.6302,3.5652,3.4969,3.4723,3.4438,3.3738,3.3313,3.2896,3.2636,3.2619,3.2711,3.2779,3.3564,3.4003,3.4137,3.4401,3.4522,3.4605,3.464,3.4628,3.4543,3.4347,3.4359,3.4543,3.4347,3.4433,3.4507,3.4071,3.3742,3.3697,3.3015,3.2387,3.2128,3.1794,3.1506,3.1306,3.1083,3.0446,2.9556,2.9147,2.8686,2.7787,2.7585,2.7678,2.7791,2.8066,2.8248,2.8221,2.8316,2.843,2.8562,2.832,2.7989,2.7666,2.7389,2.7092,2.67,2.6728,2.6737,2.6591,2.6245,2.5907,2.5688,2.5348,2.5026,2.4821,2.4821,2.4573,2.43,2.3648,2.3071,2.2749,2.2675,2.257,2.2449,2.2562,2.2449,4.6067,4.6034,4.6698,4.7318,4.7639,4.7048,4.6671,4.627,4.5191,4.4608,4.4464,4.4173,4.4323,4.4704,4.402,4.3183,4.2392,4.1717,4.1297,4.1114,4.0859,4.0702,4.0702,4.0702,4.063,4.0471,4.0184,3.9733,3.9394,3.9305,3.9305,3.9305,3.91,3.9011,3.893,3.8252,3.7701,3.7326,3.6765,3.6002,3.52,3.5082,3.4773,3.4267,3.4018,3.3669,3.3096,3.3328,3.3531,3.3661,3.4404,3.4789,3.47,3.486,3.4859,3.4823,3.4823,3.4823,3.4823,3.4628,3.4628,3.4738,3.464,3.4628,3.4702,3.4219,3.3938,3.361,3.2959,3.2272,3.2263,3.2004,3.1924,3.1812,3.1721,3.12,3.0162,2.9856,2.9197,2.8258,2.8084,2.815,2.835,2.8665,2.8706,2.8659,2.8471,2.8525,2.8542,2.8291,2.796,2.7647,2.7625,2.73,2.7054,2.7082,2.6855,2.6609,2.6364,2.6017,2.5789,2.5459,2.5128,2.4923,2.4693,2.4556,2.4103,2.3568,2.3239,2.2901,2.2683,2.257,2.2456,2.223,2.2108,4.6998,4.7106,4.7727,4.8038,4.7957,4.7111,4.6808,4.6707,4.472,4.4263,4.4682,4.3882,4.3874,4.4141,4.3874,4.3423,4.301,4.2034,4.1465,4.1381,4.0958,4.0702,4.0702,4.0702,4.0702,4.063,4.017,3.9733,3.9305,3.9305,3.9305,3.9305,3.9203,3.9114,3.9203,3.8509,3.816,3.7769,3.6962,3.6315,3.616,3.5686,3.5213,3.4997,3.5009,3.4628,3.3972,3.3987,3.4366,3.4879,3.4984,3.4985,3.5198,3.5187,3.5126,3.4847,3.4823,3.4823,3.4823,3.4835,3.4726,3.4823,3.4738,3.4726,3.4593,3.4074,3.3625,3.3499,3.2701,3.2002,3.2037,3.1823,3.1618,3.1629,3.1618,3.1298,3.0604,3.0274,2.9722,2.8869,2.8618,2.8804,2.9249,2.9477,2.961,2.9442,2.9157,2.8956,2.8814,2.8504,2.8184,2.7979,2.7793,2.7577,2.7498,2.7319,2.7082,2.6728,2.6373,2.6136,2.5798,2.5459,2.5128,2.4923,2.4693,2.4556,2.4342,2.3801,2.3456,2.3231,2.2901,2.2578,2.2116,2.1888,2.1881,4.8247,4.8169,4.8985,4.9204,4.9108,4.8714,4.8038,4.6976,4.6078,4.5416,4.4726,4.4358,4.4343,4.4343,4.3864,4.3551,4.3394,4.2363,4.18,4.1702,4.1198,4.0916,4.0845,4.0773,4.0544,4.0312,4.011,3.9747,3.9394,3.9305,3.9127,3.8859,3.8922,3.8729,3.8368,3.82,3.8018,3.7441,3.7219,3.6685,3.5843,3.5732,3.5466,3.4904,3.5181,3.5203,3.5064,3.5007,3.5077,3.5264,3.5612,3.5817,3.5787,3.5549,3.5356,3.5126,3.5114,3.492,3.4823,3.4823,3.4823,3.4726,3.4628,3.4531,3.4495,3.3832,3.3417,3.33,3.2521,3.1971,3.1913,3.1721,3.1618,3.1618,3.1618,3.1342,3.0817,3.0249,2.9732,2.9467,2.9377,2.9382,2.9539,2.9848,2.9869,2.9669,2.9343,2.9132,2.9132,2.8717,2.8301,2.8194,2.797,2.7862,2.7676,2.7361,2.7008,2.6809,2.6591,2.6245,2.5907,2.5688,2.5357,2.5026,2.4795,2.4573,2.4359,2.3999,2.364,2.3239,2.2933,2.2358,2.1774,2.1546,2.1546,4.919,4.9158,4.9647,4.9836,4.963,4.9426,4.8435,4.7123,4.6468,4.5588,4.4649,4.4266,4.4174,4.4097,4.3786,4.3551,4.3314,4.2592,4.2213,4.2049,4.1451,4.11,4.1001,4.0773,4.0471,4.0138,3.9922,3.9631,3.9203,3.9038,3.8872,3.8679,3.8769,3.8562,3.8109,3.8031,3.7756,3.7307,3.7307,3.6849,3.6105,3.6109,3.5945,3.5429,3.5667,3.583,3.5843,3.5855,3.5762,3.5694,3.6194,3.6263,3.6003,3.5775,3.5667,3.5416,3.532,3.532,3.5114,3.5126,3.5017,3.4823,3.4628,3.4433,3.4299,3.3781,3.3424,3.3312,3.2789,3.2331,3.2319,3.1924,3.1823,3.1721,3.1618,3.1385,3.0947,3.0435,3.0113,2.9986,2.9905,2.9755,2.9933,2.9879,2.9879,2.9669,2.9448,2.9237,2.9237,2.8824,2.8611,2.8398,2.8155,2.795,2.7745,2.7394,2.7041,2.6971,2.68,2.6354,2.6017,2.5907,2.5688,2.5255,2.4923,2.4821,2.4607,2.4036,2.3541,2.3183,2.2835,2.2245,2.1653,2.1432,2.1318,4.99,4.9916,4.9916,4.9916,4.9773,4.9143,4.8373,4.7465,4.6097,4.5202,4.4634,4.3988,4.3551,4.363,4.3551,4.3314,4.2981,4.2688,4.2474,4.2228,4.1731,4.1283,4.0986,4.0759,4.0443,4.0083,3.9793,3.9428,3.8997,3.8769,3.8602,3.8512,3.8498,3.8512,3.8239,3.8044,3.7677,3.74,3.7201,3.6896,3.6402,3.6577,3.6564,3.6351,3.627,3.6295,3.6282,3.6282,3.632,3.6345,3.6345,3.6263,3.6073,3.5986,3.5904,3.562,3.562,3.562,3.562,3.5524,3.532,3.4835,3.4726,3.4543,3.415,3.3784,3.3552,3.3557,3.3089,3.2878,3.2745,3.2342,3.2128,3.2026,3.1823,3.1494,3.1176,3.0788,3.0665,3.0696,3.024,2.9887,3.0338,3.0183,2.9984,2.9764,2.9554,2.9448,2.9353,2.9036,2.8737,2.8601,2.8359,2.8155,2.795,2.7561,2.721,2.7286,2.6999,2.6464,2.5972,2.5836,2.5436,2.5133,2.5,2.4915,2.4693,2.4028,2.3558,2.332,2.2683,2.1995,2.1517,2.1274,2.1072,4.9916,4.9916,4.9916,4.9916,4.99,4.9631,4.9095,4.8263,4.7356,4.6269,4.5341,4.4557,4.408,4.3895,4.3409,4.3076,4.296,4.257,4.2242,4.2175,4.1995,4.1492,4.093,4.0731,4.0516,4.0142,3.9779,3.9441,3.9203,3.8769,3.8408,3.8122,3.8226,3.8031,3.7585,3.7585,3.7492,3.7214,3.7108,3.7095,3.6922,3.6815,3.6709,3.6628,3.6439,3.6452,3.637,3.637,3.637,3.637,3.637,3.637,3.6263,3.6225,3.6143,3.6003,3.592,3.5812,3.562,3.562,3.532,3.4823,3.4628,3.4359,3.3901,3.3568,3.3469,3.3369,3.3101,3.2889,3.2857,3.2555,3.2342,3.2331,3.1936,3.1618,3.1494,3.1429,3.1294,3.1073,3.0884,3.07,3.0432,3.0287,3.0193,2.9984,2.9774,2.9659,2.9564,2.9142,2.8834,2.8698,2.8572,2.8368,2.8038,2.763,2.7514,2.7599,2.7206,2.6564,2.5909,2.5248,2.4789,2.4149,2.4446,2.4522,2.4275,2.3822,2.3536,2.3199,2.2717,2.2009,2.1632,2.1262,2.0979,4.9916,4.9916,4.9916,4.9916,4.9916,4.9916,4.9442,4.8749,4.8091,4.7029,4.5742,4.5048,4.4476,4.4018,4.3588,4.3345,4.3249,4.2952,4.2573,4.2146,4.1814,4.1324,4.093,4.0901,4.0574,4.0027,3.9706,3.9469,3.9216,3.8602,3.8239,3.8226,3.8148,3.7861,3.7598,3.7598,3.7518,3.7333,3.732,3.74,3.707,3.7176,3.7095,3.7015,3.6828,3.664,3.6452,3.6452,3.6452,3.6465,3.637,3.637,3.637,3.637,3.637,3.6193,3.6193,3.6098,3.5991,3.5895,3.5704,3.5223,3.4823,3.4347,3.3965,3.358,3.3281,3.3281,3.3135,3.3047,3.2869,3.2555,3.224,3.2026,3.1834,3.1629,3.1721,3.1618,3.1527,3.1424,3.123,3.1127,3.0703,3.0599,3.0401,3.0193,2.9994,2.9879,2.9879,2.9353,2.9026,2.891,2.8708,2.8408,2.8174,2.7883,2.7649,2.7716,2.7196,2.6554,2.5918,2.5095,2.4611,2.4324,2.4183,2.4014,2.3844,2.3579,2.3199,2.2847,2.2495,2.2012,2.1443,2.107,2.0803,4.9916,4.9916,4.9916,4.9916,4.9916,4.99,4.96,4.9,4.8498,4.7418,4.6034,4.5303,4.472,4.4109,4.4043,4.3938,4.3832,4.3617,4.3128,4.2519,4.1889,4.1468,4.1611,4.107,4.0684,4.0148,3.9591,3.9495,3.9397,3.8633,3.8358,3.8423,3.8136,3.7952,3.7821,3.79,3.7729,3.765,3.7716,3.7585,3.7348,3.7559,3.7677,3.7492,3.7214,3.6934,3.664,3.6628,3.6628,3.6439,3.6452,3.637,3.637,3.637,3.637,3.637,3.637,3.637,3.637,3.6275,3.6181,3.5608,3.5126,3.4593,3.3981,3.3633,3.3515,3.3457,3.3369,3.3358,3.3069,3.2544,3.2342,3.2139,3.1924,3.1823,3.1924,3.1823,3.1618,3.1618,3.1322,3.123,3.1023,3.0806,3.0495,3.0401,3.0203,2.9994,2.9984,2.9659,2.9343,2.9026,2.8844,2.8573,2.831,2.8028,2.7921,2.7843,2.7088,2.6436,2.6082,2.5493,2.499,2.4633,2.3973,2.3643,2.352,2.3283,2.2878,2.256,2.2243,2.1542,2.0992,2.0805,2.0614,4.9916,4.9916,4.9916,4.9916,4.9916,4.9916,4.9821,4.9647,4.8907,4.801,4.7037,4.5859,4.5243,4.4967,4.4444,4.4273,4.4561,4.4137,4.349,4.3098,4.2789,4.2824,4.2639,4.1731,4.0877,4.0694,4.0745,4.0418,4.0019,3.9548,3.911,3.8371,3.8477,3.8318,3.7939,3.7992,3.7913,3.7821,3.79,3.7887,3.7769,3.7848,3.7861,3.7769,3.7585,3.7294,3.7015,3.7015,3.6909,3.6628,3.6534,3.6465,3.6465,3.637,3.637,3.637,3.637,3.637,3.637,3.637,3.6181,3.5716,3.5404,3.4909,3.3664,3.3918,3.4012,3.4028,3.3883,3.3819,3.3668,3.3481,3.3158,3.2958,3.2768,3.2465,3.2353,3.1936,3.1629,3.1629,3.1527,3.1424,3.123,3.092,3.0713,3.062,3.0412,3.0203,2.9984,2.9869,2.9554,2.9343,2.895,2.866,2.8427,2.8165,2.8057,2.7736,2.7098,2.6445,2.6082,2.5422,2.4867,2.4173,2.3505,2.3338,2.3243,2.2994,2.2608,2.2293,2.1932,2.149,2.1147,2.088,2.0484,4.952,4.9473,4.9868,4.9995,4.9931,4.9916,4.9916,4.9852,4.941,4.8637,4.7753,4.6868,4.6356,4.5875,4.5409,4.54,4.5391,4.4679,4.4039,4.3573,4.3338,4.3344,4.3283,4.2665,4.1911,4.155,4.1155,4.0944,4.0559,4.016,3.964,3.9079,3.9068,3.8751,3.837,3.8239,3.8279,3.8201,3.8005,3.7979,3.8213,3.8122,3.8031,3.8122,3.8031,3.7926,3.7307,3.7387,3.7201,3.7015,3.6828,3.664,3.6452,3.637,3.6465,3.637,3.637,3.637,3.637,3.637,3.6263,3.5991,3.58,3.5198,3.4377,3.4374,3.4335,3.419,3.408,3.3993,3.3843,3.3557,3.3457,3.3457,3.3269,3.2857,3.2544,3.2026,3.1721,3.1618,3.1618,3.1516,3.1322,3.1127,3.1023,3.0931,3.0734,3.0412,3.0297,3.0078,2.9869,2.9554,2.9162,2.8854,2.8631,2.8291,2.8067,2.7745,2.7206,2.6554,2.6109,2.5351,2.4468,2.3877,2.3453,2.3134,2.3014,2.2675,2.2465,2.2265,2.2006,2.1731,2.1352,2.0989,2.0565,4.9372,4.9249,5.0008,5.0262,4.9995,4.9995,4.9995,4.9995,4.9916,4.9172,4.8289,4.81,4.7349,4.6955,4.6637,4.6515,4.6127,4.5545,4.4729,4.431,4.4078,4.4037,4.3916,4.3726,4.3392,4.2565,4.2021,4.1567,4.1121,4.0599,4.0426,4.011,3.9848,3.9334,3.9043,3.8769,3.8732,3.8695,3.8461,3.8291,3.8599,3.8535,3.8459,3.8472,3.8652,3.8472,3.7952,3.7861,3.7664,3.7294,3.7201,3.6922,3.6734,3.6546,3.6546,3.6559,3.6559,3.6559,3.6465,3.637,3.637,3.637,3.5991,3.5679,3.5426,3.5017,3.4751,3.4483,3.4385,3.4201,3.3831,3.3645,3.3557,3.3446,3.3346,3.3147,3.2723,3.2319,3.2218,3.1618,3.1618,3.1516,3.1516,3.1322,3.1333,3.124,3.0931,3.0734,3.0609,3.0287,3.0078,2.9754,2.9343,2.9046,2.8824,2.8698,2.8368,2.8067,2.753,2.7098,2.6599,2.5916,2.511,2.4149,2.353,2.3237,2.2886,2.2515,2.2374,2.2349,2.2029,2.1603,2.1338,2.0987,2.0693,5.049,5.0336,5.0448,5.0496,5.0434,5.034,5.0246,5.0184,4.9852,4.947,4.9025,4.814,4.7876,4.776,4.716,4.6811,4.6515,4.6028,4.5699,4.538,4.5141,4.5098,4.5329,4.4996,4.469,4.4379,4.364,4.2716,4.2024,4.2058,4.1325,4.059,4.055,4.0332,3.9495,3.923,3.9181,3.9146,3.8989,3.8908,3.9019,3.9135,3.9176,3.9024,3.9114,3.8845,3.8498,3.8226,3.8031,3.7769,3.7598,3.7413,3.74,3.7307,3.7214,3.7015,3.7015,3.6828,3.6546,3.6452,3.6465,3.637,3.6275,3.6275,3.6061,3.587,3.5475,3.5174,3.4896,3.4617,3.4628,3.4335,3.4237,3.4139,3.4052,3.3767,3.3446,3.3235,3.2723,3.2026,3.1823,3.164,3.1662,3.1549,3.1527,3.1435,3.1127,3.0931,3.0827,3.0495,3.0183,2.9848,2.9618,2.9323,2.9122,2.8996,2.888,2.8698,2.8378,2.8048,2.7418,2.6855,2.5956,2.4986,2.3955,2.3323,2.2987,2.2595,2.241,2.2281,2.1932,2.1464,2.1385,2.1306,2.0964,5.0392,5.0121,5.0583,5.0666,5.0589,5.0496,5.0418,5.0418,5.0089,4.9836,4.9503,4.8948,4.8624,4.8496,4.8079,4.738,4.6749,4.6866,4.6535,4.6129,4.6062,4.6138,4.6388,4.5956,4.5619,4.5263,4.4655,4.3798,4.2528,4.2533,4.2017,4.119,4.1135,4.088,4.0054,3.976,3.9672,3.9598,3.9407,3.9469,3.9516,3.9645,3.9571,3.9394,3.9305,3.9114,3.8845,3.8652,3.8472,3.833,3.8175,3.8148,3.8135,3.8135,3.7952,3.7559,3.7466,3.7281,3.6815,3.6734,3.6653,3.6465,3.6465,3.637,3.637,3.6086,3.5895,3.5596,3.5404,3.5126,3.503,3.4835,3.4726,3.4628,3.4445,3.4249,3.3941,3.3843,3.3224,3.2521,3.2499,3.2443,3.2057,3.1922,3.1753,3.1629,3.1322,3.1127,3.1034,3.0713,3.0391,3.0037,2.9786,2.9464,2.9286,2.9201,2.9167,2.9112,2.8936,2.8608,2.816,2.7412,2.6727,2.5853,2.4847,2.3815,2.3112,2.2771,2.2552,2.2333,2.2181,2.202,2.1816,2.1612,2.1304,5.044,5.0027,5.0639,5.0896,5.0743,5.0666,5.0666,5.0589,5.0434,5.0246,4.9995,4.9741,4.9421,4.9128,4.8738,4.8079,4.7107,4.7498,4.7121,4.6599,4.6649,4.6829,4.6668,4.655,4.6212,4.5712,4.5283,4.4681,4.3533,4.3223,4.2579,4.1979,4.1878,4.1415,4.0733,4.0295,4.0097,3.9954,3.9793,3.9848,4.0065,3.9977,3.9686,3.9482,3.9482,3.9278,3.9011,3.8908,3.8819,3.8679,3.8629,3.8655,3.8845,3.8886,3.8615,3.82,3.7991,3.773,3.7374,3.7201,3.7108,3.6653,3.6546,3.6546,3.637,3.6193,3.5908,3.5716,3.5704,3.5512,3.5211,3.5223,3.5126,3.4823,3.4726,3.4628,3.4335,3.4127,3.3895,3.3476,3.3453,3.3132,3.2644,3.2217,3.2026,3.1924,3.1629,3.1322,3.1127,3.1034,3.0703,3.0338,2.9933,2.9518,2.9394,2.9248,2.938,2.9448,2.9171,2.883,2.8351,2.7776,2.7109,2.6362,2.5462,2.4486,2.3755,2.3081,2.2872,2.2771,2.2662,2.2569,2.2173,2.1918,2.1636,5.1671,5.1451,5.1194,5.1183,5.1108,5.0896,5.082,5.0836,5.0666,5.0589,5.0402,5.0089,4.9852,4.9597,4.9225,4.8738,4.8361,4.8027,4.7804,4.7342,4.7204,4.7091,4.6829,4.6668,4.6638,4.63,4.5727,4.4921,4.4238,4.4251,4.3892,4.3181,4.265,4.2269,4.1404,4.084,4.0616,4.0602,4.0516,4.053,4.0544,4.0385,4.011,4.0009,3.9821,3.9733,3.9292,3.91,3.8922,3.8935,3.8732,3.8732,3.8845,3.8886,3.9065,3.8962,3.8756,3.8304,3.7821,3.773,3.7466,3.7108,3.6922,3.6734,3.6452,3.6181,3.6003,3.6003,3.5978,3.5787,3.5404,3.5416,3.5223,3.503,3.4835,3.4835,3.4628,3.4433,3.4288,3.4095,3.3962,3.3555,3.3168,3.2719,3.2308,3.2117,3.1924,3.1505,3.1322,3.1127,3.0942,3.0484,3.0213,2.9889,2.9672,2.9518,2.9559,2.9724,2.9394,2.9065,2.8594,2.8158,2.7522,2.6725,2.5879,2.5187,2.452,2.3863,2.3391,2.3173,2.3038,2.2828,2.2434,2.2181,2.2045,5.2252,5.1762,5.1631,5.1408,5.1183,5.1124,5.1048,5.1032,5.082,5.0743,5.0743,5.0418,5.0168,4.9916,4.9613,4.921,4.8883,4.865,4.8385,4.8202,4.7949,4.7694,4.7538,4.7366,4.7279,4.677,4.6372,4.58,4.5184,4.4637,4.431,4.3635,4.319,4.2721,4.195,4.1426,4.0972,4.0802,4.0659,4.0702,4.0616,4.0457,4.0298,4.0198,4.0097,3.9908,3.9645,3.9496,3.9394,3.9319,3.9168,3.9065,3.9127,3.9127,3.923,3.9216,3.9127,3.8769,3.8395,3.8291,3.7848,3.7294,3.7108,3.6828,3.6559,3.6275,3.6181,3.6181,3.6345,3.6156,3.5787,3.5895,3.5596,3.532,3.503,3.4932,3.4823,3.4823,3.469,3.457,3.4341,3.3922,3.3419,3.2885,3.2449,3.2208,3.195,3.1476,3.1338,3.123,3.1045,3.0745,3.0419,3.0166,3.006,2.9916,2.9646,2.974,2.953,2.922,2.8894,2.8363,2.7723,2.74,2.6885,2.6132,2.5352,2.4538,2.3963,2.3628,2.3384,2.3103,2.292,2.2946,2.2687,5.2624,5.2069,5.198,5.1762,5.145,5.1392,5.1408,5.1333,5.1124,5.1048,5.0912,5.0743,5.0418,5.0168,5.001,4.9773,4.9291,4.9241,4.898,4.8883,4.862,4.837,4.8133,4.8049,4.7709,4.7178,4.6872,4.6254,4.5595,4.4967,4.4471,4.3603,4.3227,4.284,4.2267,4.154,4.1071,4.0774,4.0745,4.0702,4.0716,4.0544,4.0471,4.0385,4.0198,4.0009,3.9936,3.9774,3.97,3.951,3.9407,3.923,3.9305,3.9216,3.9319,3.9305,3.923,3.9127,3.8845,3.8679,3.833,3.7769,3.7108,3.6922,3.664,3.6559,3.637,3.637,3.6734,3.6546,3.6275,3.637,3.6168,3.5692,3.532,3.5126,3.492,3.4775,3.4618,3.4401,3.4234,3.4078,3.3589,3.2861,3.2517,3.2313,3.1951,3.1493,3.1313,3.1142,3.0874,3.0504,3.0354,3.0088,2.996,2.9906,2.9821,2.9647,2.9434,2.9176,2.8863,2.8512,2.8007,2.7775,2.7552,2.7013,2.6127,2.5285,2.443,2.4115,2.38,2.3601,2.3411,2.3438,2.3247,5.3212,5.2747,5.2395,5.2252,5.2164,5.202,5.1818,5.1704,5.1499,5.1333,5.1183,5.0972,5.0743,5.0573,5.0496,5.0324,5.0058,4.9757,4.9517,4.9194,4.8867,4.8687,4.8537,4.8286,4.7964,4.7694,4.7231,4.6542,4.5912,4.5257,4.4531,4.3646,4.3085,4.2639,4.2138,4.1611,4.1043,4.0816,4.0688,4.0702,4.0702,4.063,4.063,4.0485,4.0399,4.0211,3.9788,3.9788,3.9686,3.9482,3.9394,3.9305,3.9305,3.9305,3.9305,3.9305,3.9305,3.9216,3.9127,3.9127,3.8948,3.8408,3.7756,3.7188,3.7002,3.664,3.6452,3.664,3.7108,3.6951,3.679,3.664,3.6439,3.5854,3.5257,3.5017,3.4897,3.4679,3.451,3.4221,3.4006,3.3911,3.3611,3.2936,3.2569,3.2453,3.1882,3.1339,3.0844,3.0646,3.0383,3.0119,2.9966,2.9773,2.9623,2.9504,2.9622,2.9417,2.9214,2.8967,2.8742,2.8445,2.8126,2.7862,2.7535,2.721,2.6843,2.5799,2.4944,2.4501,2.4214,2.3926,2.3728,2.3646,2.3447,5.3433,5.328,5.3058,5.2764,5.2324,5.2236,5.2109,5.1908,5.1818,5.1631,5.135,5.1199,5.0972,5.082,5.0743,5.065,5.048,5.034,5.0089,4.9931,4.9693,4.9437,4.9113,4.8769,4.8537,4.8042,4.7347,4.6337,4.5416,4.5261,4.4141,4.3248,4.2919,4.2852,4.2437,4.1766,4.1171,4.093,4.0773,4.0702,4.0702,4.0702,4.0702,4.063,4.0544,4.0544,4.0284,4.0023,3.9848,3.9659,3.9482,3.9292,3.9251,3.9251,3.9224,3.9299,3.9271,3.9271,3.9312,3.9251,3.9038,3.8589,3.7939,3.7546,3.7533,3.7361,3.7268,3.7374,3.7441,3.7337,3.6726,3.6667,3.6458,3.5787,3.5227,3.4883,3.4655,3.4462,3.4234,3.3827,3.3732,3.3671,3.3359,3.2966,3.2746,3.2547,3.1849,3.123,3.0756,3.0411,3.0196,2.9894,2.9753,2.9753,2.9633,2.9547,2.9483,2.9288,2.9094,2.889,2.8772,2.8548,2.8261,2.7893,2.7589,2.7284,2.6768,2.6028,2.5373,2.4875,2.4538,2.426,2.4062,2.3845,2.3646,5.3734,5.3734,5.3685,5.3264,5.2677,5.2607,5.2449,5.2252,5.2092,5.1835,5.1499,5.1275,5.1124,5.1048,5.0972,5.0896,5.0804,5.065,5.0589,5.0434,5.0184,4.9931,4.9534,4.9103,4.8655,4.8208,4.7546,4.6576,4.5725,4.5417,4.4437,4.3553,4.2937,4.2948,4.2502,4.199,4.1367,4.1015,4.093,4.0787,4.0702,4.0702,4.0702,4.0702,4.0702,4.0616,4.0457,4.0198,3.9936,3.976,3.9557,3.9183,3.9088,3.9095,3.9101,3.9005,3.9038,3.9125,3.9139,3.9054,3.8932,3.8523,3.8063,3.7885,3.7939,3.79,3.7638,3.7638,3.7717,3.7416,3.6677,3.6404,3.609,3.5261,3.4617,3.4278,3.4086,3.3895,3.3657,3.3489,3.3452,3.3452,3.2996,3.2568,3.2162,3.2014,3.1483,3.1008,3.0552,3.0247,3.0092,2.9902,2.9617,2.9723,2.9734,2.9518,2.9303,2.9321,2.9146,2.9036,2.8833,2.8664,2.8477,2.8279,2.7893,2.741,2.6819,2.6224,2.5741,2.5285,2.4922,2.4458,2.435,2.4143,2.3945,5.4205,5.4188,5.4045,5.38,5.3416,5.3264,5.3041,5.2764,5.2395,5.2053,5.1573,5.135,5.1275,5.1199,5.1199,5.1183,5.1124,5.0972,5.082,5.0589,5.0512,5.0168,4.9663,4.922,4.8887,4.8914,4.8171,4.7184,4.6444,4.6194,4.5198,4.4052,4.3459,4.2946,4.2218,4.1912,4.1437,4.1085,4.1085,4.0944,4.0773,4.0787,4.0787,4.0702,4.0702,4.0616,4.0457,4.0131,3.9844,3.9669,3.9284,3.8978,3.8651,3.8855,3.8792,3.8379,3.8658,3.8768,3.8726,3.8553,3.8415,3.8249,3.7899,3.7869,3.8246,3.8094,3.769,3.7584,3.7427,3.7177,3.6558,3.5917,3.5468,3.4891,3.4262,3.3849,3.3579,3.3365,3.314,3.2935,3.3068,3.3092,3.2575,3.2154,3.1633,3.1347,3.1008,3.0796,3.0526,3.0273,3.0179,2.9807,2.9537,2.9515,2.9504,2.9327,2.9205,2.9161,2.9161,2.9139,2.9117,2.9024,2.8943,2.8757,2.8186,2.76,2.7071,2.6526,2.6033,2.5538,2.5118,2.4735,2.4627,2.443,2.4242,5.4414,5.4431,5.4367,5.4158,5.3898,5.3551,5.3264,5.3041,5.2537,5.2164,5.198,5.1778,5.1631,5.1557,5.1424,5.1424,5.135,5.1183,5.0956,5.082,5.0743,5.0589,5.0181,4.9693,4.919,4.878,4.8135,4.7398,4.6524,4.6643,4.5959,4.4883,4.3796,4.3105,4.2703,4.2363,4.1951,4.1673,4.1437,4.1114,4.093,4.0916,4.083,4.0688,4.0659,4.0546,4.039,3.9939,3.9515,3.936,3.8937,3.8539,3.8391,3.8588,3.863,3.849,3.8737,3.8391,3.8005,3.7703,3.7699,3.765,3.7682,3.7663,3.7792,3.7765,3.7504,3.7281,3.7135,3.6717,3.5995,3.5493,3.4984,3.454,3.3925,3.3533,3.3211,3.2895,3.2659,3.2473,3.2449,3.2895,3.2653,3.2248,3.1793,3.1543,3.1377,3.1286,3.1031,3.0628,3.0388,2.9793,2.9402,2.9357,2.929,2.9301,2.9312,2.9416,2.9416,2.9405,2.9405,2.9312,2.9128,2.885,2.8269,2.7694,2.7231,2.6678,2.6267,2.5781,2.545,2.503,2.4833,2.4735,2.4637,5.4364,5.4381,5.4579,5.4385,5.4006,5.3795,5.3465,5.3028,5.265,5.2341,5.1781,5.1756,5.1671,5.1589,5.159,5.1647,5.1557,5.154,5.1376,5.1167,5.1242,5.0914,5.051,5.0025,4.9162,4.8509,4.7963,4.7355,4.6733,4.7029,4.6283,4.5001,4.4185,4.3832,4.3394,4.301,4.2363,4.202,4.1717,4.1283,4.1015,4.0901,4.0718,4.0506,4.0322,4.0252,3.9915,3.9564,3.9061,3.8838,3.8519,3.8104,3.8131,3.8267,3.8305,3.8422,3.8333,3.7962,3.747,3.6999,3.7003,3.6782,3.7053,3.7311,3.7473,3.7578,3.738,3.7155,3.6815,3.6279,3.5601,3.5146,3.4501,3.3959,3.3532,3.306,3.2767,3.2454,3.2316,3.2128,3.2079,3.2475,3.2739,3.2479,3.2034,3.187,3.1817,3.1639,3.1328,3.0936,3.0534,3.0034,2.9588,2.9611,2.9611,2.9588,2.9588,2.9588,2.968,2.968,2.9497,2.9405,2.9128,2.885,2.829,2.7715,2.7284,2.6819,2.638,2.612,2.583,2.5421,2.5128,2.503,2.4941,5.408,5.4185,5.4687,5.4392,5.3679,5.3834,5.3447,5.2581,5.2893,5.2203,5.0811,5.1711,5.1735,5.1333,5.1579,5.1858,5.1851,5.198,5.172,5.1671,5.1572,5.1026,5.0253,4.9515,4.8891,4.8211,4.7675,4.7478,4.6823,4.6743,4.6017,4.5199,4.471,4.4435,4.4112,4.3488,4.285,4.2511,4.186,4.1417,4.1041,4.0675,4.028,3.9971,3.9732,3.9606,3.9256,3.8851,3.8602,3.827,3.7993,3.7634,3.7579,3.7724,3.7676,3.7756,3.7767,3.7522,3.7211,3.6847,3.6436,3.6361,3.6443,3.6836,3.7107,3.7148,3.6912,3.672,3.6364,3.592,3.5417,3.4679,3.3858,3.3452,3.3046,3.2611,3.2335,3.2135,3.2047,3.1974,3.1886,3.2047,3.2138,3.1928,3.2022,3.1882,3.1704,3.13,3.116,3.1038,3.067,3.0239,2.9988,2.9954,2.9931,2.9874,2.9863,2.9863,2.9954,2.9954,2.9772,2.9508,2.9231,2.8768,2.8228,2.7652,2.7315,2.6979,2.6567,2.631,2.6177,2.5907,2.5509,2.5333,2.5245,5.3449,5.3484,5.3637,5.3451,5.3119,5.303,5.263,5.1975,5.1987,5.1824,5.2012,5.1597,5.1933,5.2622,5.1905,5.2084,5.2229,5.2186,5.1713,5.1548,5.1458,5.0839,5.0167,4.9458,4.8849,4.8352,4.7935,4.7442,4.6998,4.6681,4.6426,4.6072,4.5042,4.4858,4.451,4.4035,4.36,4.3036,4.2239,4.1637,4.104,4.0553,4.0032,3.9626,3.9377,3.9224,3.9114,3.8482,3.8249,3.8433,3.7693,3.7233,3.7358,3.7522,3.7725,3.7987,3.802,3.7839,3.7534,3.7303,3.6929,3.6298,3.6358,3.621,3.628,3.6361,3.6306,3.6183,3.6033,3.5595,3.5319,3.4664,3.4063,3.3569,3.3154,3.2896,3.2537,3.2288,3.2201,3.2113,3.2025,3.1916,3.1882,3.1816,3.1809,3.1781,3.1514,3.1163,3.0859,3.0851,3.0682,3.0341,3.0148,3.0102,3.0091,3.0034,3.0136,3.0136,3.0136,3.0136,2.9874,2.9611,2.9242,2.8686,2.804,2.7662,2.7357,2.702,2.6778,2.6672,2.6522,2.6264,2.5984,2.5644,2.5441,5.2883,5.2919,5.3218,5.3036,5.2437,5.1969,5.144,5.1175,5.176,5.214,5.1924,5.2174,5.255,5.2807,5.2539,5.2402,5.2521,5.2249,5.181,5.1345,5.116,5.0592,5.0007,4.9384,4.8629,4.8172,4.7706,4.7181,4.6836,4.645,4.6092,4.5589,4.4892,4.4682,4.444,4.4125,4.4006,4.3529,4.2891,4.2084,4.1376,4.0741,4.0149,3.9415,3.9211,3.912,3.8855,3.8009,3.7971,3.8008,3.7032,3.6999,3.7204,3.7465,3.7715,3.7991,3.7839,3.7672,3.7443,3.7303,3.7007,3.6693,3.647,3.6259,3.6033,3.5981,3.5805,3.5683,3.5602,3.5453,3.5223,3.4908,3.4397,3.3992,3.3654,3.3313,3.297,3.2636,3.2463,3.2388,3.2227,3.203,3.1942,3.1765,3.1572,3.1342,3.1175,3.1062,3.0758,3.051,3.0443,3.0227,3.0227,3.0148,3.0216,3.0125,3.0125,3.0136,3.0057,2.9966,2.9886,2.9508,2.8943,2.8395,2.7841,2.7568,2.7388,2.7251,2.702,2.6979,2.6791,2.6486,2.6139,2.5763,2.5467,5.2343,5.2325,5.3104,5.2709,5.1707,5.0987,5.0446,5.0293,5.1932,5.2214,5.1535,5.2669,5.2915,5.2847,5.2753,5.2552,5.2416,5.2115,5.1695,5.115,5.1068,5.0534,4.9689,4.9127,4.8463,4.7531,4.6989,4.6969,4.6374,4.6017,4.5484,4.4717,4.4297,4.4138,4.3977,4.3847,4.3753,4.3685,4.3042,4.2361,4.2144,4.1661,4.0963,3.9787,3.9255,3.8831,3.7877,3.7325,3.7176,3.692,3.6749,3.6898,3.7197,3.7402,3.7715,3.7853,3.7777,3.7687,3.7596,3.7443,3.7134,3.6836,3.6615,3.6391,3.6218,3.5804,3.5642,3.5601,3.5533,3.5399,3.5183,3.4927,3.4479,3.4022,3.3643,3.3382,3.3043,3.276,3.2537,3.2463,3.2289,3.2055,3.1478,3.1279,3.1492,3.1033,3.0937,3.0949,3.0859,3.0499,3.0397,3.0306,3.0193,3.0193,3.0034,3.0034,3.0034,3.0045,2.9966,2.9783,2.96,2.9128,2.8549,2.8186,2.7715,2.7683,2.7599,2.7367,2.7169,2.6993,2.6826,2.6587,2.6286,2.5698,2.5367,5.1564,5.1582,5.1759,5.1617,5.1262,5.0799,5.0492,5.0406,5.1173,5.1709,5.1882,5.1907,5.2379,5.3038,5.2477,5.2175,5.2067,5.1741,5.1269,5.089,5.0686,5.0193,4.9316,4.8885,4.8281,4.7869,4.7319,4.6791,4.6448,4.5901,4.5292,4.4849,4.422,4.3733,4.3561,4.3363,4.3366,4.3491,4.2921,4.2319,4.1987,4.0456,3.922,3.8952,3.8667,3.8586,3.7896,3.7579,3.7607,3.7555,3.7097,3.7155,3.7451,3.7596,3.781,3.8052,3.7991,3.7915,3.7901,3.7825,3.7658,3.7289,3.707,3.6772,3.6377,3.5965,3.5642,3.5573,3.545,3.5318,3.5144,3.4848,3.4486,3.4078,3.3662,3.3385,3.3114,3.2905,3.2585,3.2438,3.2377,3.1859,3.1149,3.1026,3.124,3.118,3.1069,3.096,3.105,3.0871,3.0769,3.0566,3.0316,3.0135,3.0011,2.9874,2.9886,2.9772,2.9669,2.9497,2.9324,2.8943,2.8549,2.8154,2.7788,2.7757,2.7694,2.7378,2.7243,2.6983,2.6743,2.6516,2.5971,2.5361,2.5097,5.1487,5.1487,5.1487,5.1333,5.1193,5.0999,5.0784,5.0596,5.0793,5.1228,5.1862,5.182,5.2252,5.2995,5.233,5.183,5.1787,5.1415,5.0918,5.0472,5.012,4.9654,4.912,4.869,4.8325,4.7919,4.7454,4.6997,4.6662,4.5938,4.5298,4.4713,4.3902,4.3384,4.3132,4.3025,4.2958,4.3074,4.2519,4.2104,4.174,4.0643,3.9772,3.9535,3.9194,3.883,3.8326,3.7983,3.7944,3.7841,3.7508,3.7331,3.7519,3.7738,3.789,3.8098,3.8202,3.8366,3.8352,3.8277,3.8188,3.7782,3.7429,3.712,3.6836,3.6429,3.6138,3.5946,3.5549,3.5311,3.4988,3.4749,3.4112,3.3582,3.3177,3.2872,3.2713,3.2626,3.2419,3.2347,3.1956,3.1259,3.0687,3.0524,3.07,3.0854,3.0767,3.1116,3.1139,3.1151,3.105,3.0937,3.0598,3.0147,2.9749,2.9622,2.9575,2.9541,2.9393,2.9209,2.9035,2.885,2.8466,2.8258,2.8081,2.7935,2.7768,2.7473,2.7087,2.6765,2.6645,2.6367,2.5716,2.5102,2.4755,5.169,5.169,5.169,5.1589,5.1333,5.1281,5.1052,5.0729,5.062,5.0858,5.1332,5.1917,5.224,5.2379,5.2421,5.1923,5.1483,5.1094,5.0517,5.0142,4.9828,4.9573,4.9253,4.8798,4.845,4.8081,4.7621,4.7223,4.6873,4.5937,4.5024,4.4361,4.3682,4.2988,4.2773,4.2655,4.2647,4.2569,4.2291,4.1935,4.1759,4.1571,4.0852,4.0454,4.0202,3.955,3.8825,3.8441,3.8292,3.8081,3.782,3.7792,3.781,3.7979,3.813,3.8248,3.8427,3.8501,3.8501,3.8575,3.8354,3.8161,3.7724,3.73,3.6951,3.6654,3.6277,3.5917,3.5509,3.51,3.4785,3.418,3.3536,3.3132,3.2723,3.2401,3.237,3.2294,3.2139,3.2139,3.1536,3.0713,3.0457,3.0209,3.0411,3.0477,3.0702,3.1128,3.1395,3.1496,3.1496,3.1217,3.0902,3.0374,2.9772,2.9449,2.9402,2.9265,2.9117,2.8932,2.8839,2.8757,2.8664,2.8571,2.8395,2.8113,2.7862,2.7589,2.7233,2.667,2.6346,2.608,2.5409,2.4743,2.4456,5.169,5.169,5.169,5.1658,5.1607,5.1384,5.1176,5.0981,5.0712,5.0669,5.0788,5.0875,5.115,5.1697,5.1697,5.1389,5.0959,5.065,5.0488,5.0149,4.9999,4.9784,4.9411,4.9073,4.8601,4.8256,4.7933,4.7489,4.6832,4.5799,4.474,4.3913,4.3057,4.2462,4.2202,4.2153,4.2216,4.2113,4.198,4.1724,4.1304,4.1032,4.0607,4.0249,3.9934,3.9499,3.9119,3.887,3.8486,3.8277,3.8142,3.8217,3.8277,3.8323,3.8486,3.8487,3.8664,3.8649,3.8635,3.8311,3.8106,3.7521,3.702,3.6504,3.6113,3.5774,3.5523,3.5308,3.4919,3.4511,3.4086,3.3185,3.2508,3.2528,3.2317,3.2102,3.1983,3.1732,3.1592,3.1477,3.1169,3.0603,3.0158,3.0301,3.0783,3.0913,3.1261,3.1577,3.1661,3.1673,3.1849,3.156,3.1282,3.0679,3.0068,2.9357,2.9205,2.9057,2.8932,2.8932,2.885,2.885,2.8757,2.8664,2.8538,2.8236,2.7998,2.7778,2.7076,2.6462,2.6144,2.5711,2.4992,2.4553,2.4339]},{"header":{"parameterUnit":"m.s-1","parameterCategory":1,"la1":31.0,"la2":29.5877,"lo1":-88.7671,"lo2":-86.6584,"dy":0.0162,"dx":0.0185,"nx":115,"ny":88,"refTime":"2024-02-16T06:00:00:Z","depth":0,"parameterNumber":3,"parameterNumberName":"V-component_of_WINDS"},"data":[0.0,0.0,0.0,0.0,0.0,0.0,0.0,0.0,0.0,0.0,0.0,0.0,0.0,0.0,0.0,0.0,0.0,0.0,0.0,0.0,0.0,0.0,0.0,0.0,0.0,0.0,0.0,0.0,0.0,0.0,0.0,0.0,0.0,0.0,0.0,0.0,0.0,0.0,0.0,0.0,0.0,0.0,0.0,0.0,0.0,0.0,0.0,0.0,0.0,0.0,0.0,0.0,0.0,0.0,0.0,0.0,0.0,0.0,0.0,0.0,0.0,0.0,0.0,0.0,0.0,0.0,0.0,0.0,0.0,0.0,0.0,0.0,0.0,0.0,0.0,0.0,0.0,0.0,0.0,0.0,0.0,0.0,0.0,0.0,0.0,0.0,0.0,0.0,0.0,0.0,0.0,0.0,0.0,0.0,0.0,0.0,0.0,0.0,0.0,0.0,0.0,0.0,0.0,0.0,0.0,0.0,0.0,0.0,0.0,0.0,0.0,0.0,0.0,0.0,0.0,0.0,0.0,0.0,0.0,0.0,0.0,0.0,0.0,0.0,0.0,0.0,0.0,0.0,0.0,0.0,0.0,0.0,0.0,0.0,0.0,0.0,0.0,0.0,0.0,0.0,0.0,0.0,0.0,0.0,0.0,0.0,0.0,0.0,0.0,0.0,0.0,0.0,0.0,0.0,0.0,0.0,0.0,0.0,0.0,0.0,0.0,0.0,0.0,0.0,0.0,0.0,0.0,0.0,0.0,0.0,0.0,0.0,0.0,0.0,0.0,0.0,0.0,0.0,0.0,0.0,0.0,0.0,0.0,0.0,0.0,0.0,0.0,0.0,0.0,0.0,0.0,0.0,0.0,0.0,0.0,0.0,0.0,0.0,0.0,0.0,0.0,0.0,0.0,0.0,0.0,0.0,0.0,0.0,0.0,0.0,0.0,0.0,0.0,0.0,0.0,0.0,0.0,0.0,0.0,0.0,0.0,0.0,0.0,0.0,0.0,0.0,0.0,0.0,0.0,0.0,0.0,0.0,0.0,0.0,0.0,0.0,0.0,0.0,0.0,0.0,0.0,0.0,0.0,0.0,0.0,0.0,0.0,0.0,0.0,0.0,0.0,0.0,0.0,0.0,0.0,0.0,0.0,0.0,0.0,0.0,0.0,0.0,0.0,0.0,0.0,0.0,0.0,0.0,0.0,0.0,0.0,0.0,0.0,0.0,0.0,0.0,0.0,0.0,0.0,0.0,0.0,0.0,0.0,0.0,0.0,0.0,0.0,0.0,0.0,0.0,0.0,0.0,0.0,0.0,0.0,0.0,0.0,0.0,0.0,0.0,0.0,0.0,0.0,0.0,0.0,0.0,0.0,0.0,0.0,0.0,0.0,0.0,0.0,0.0,0.0,0.0,0.0,0.0,0.0,0.0,0.0,0.0,0.0,0.0,0.0,0.0,0.0,0.0,0.0,0.0,0.0,0.0,0.0,0.0,0.0,0.0,0.0,0.0,0.0,0.0,0.0,0.0,0.0,0.0,0.0,0.0,0.0,0.0,0.0,0.0,0.0,0.0,0.0,0.0,0.0,0.0,0.0,0.0,0.0,0.0,0.0,0.0,0.0,0.0,0.0,0.0,0.0,0.0,0.0,0.0,0.0,0.0,0.0,0.0,0.0,0.0,0.0,0.0,0.0,0.0,0.0,0.0,0.0,0.0,0.0,0.0,0.0,0.0,0.0,0.0,0.0,0.0,0.0,0.0,0.0,0.0,0.0,0.0,0.0,0.0,0.0,0.0,0.0,0.0,0.0,0.0,0.0,0.0,0.0,0.0,0.0,0.0,0.0,0.0,0.0,0.0,0.0,0.0,0.0,0.0,0.0,0.0,0.0,0.0,0.0,0.0,0.0,0.0,0.0,0.0,0.0,0.0,0.0,0.0,0.0,0.0,0.0,0.0,0.0,0.0,0.0,0.0,0.0,0.0,0.0,0.0,0.0,0.0,0.0,0.0,0.0,0.0,0.0,0.0,0.0,0.0,0.0,0.0,0.0,0.0,0.0,0.0,0.0,0.0,0.0,0.0,0.0,0.0,0.0,0.0,0.0,0.0,0.0,0.0,0.0,0.0,0.0,0.0,0.0,0.0,0.0,0.0,0.0,0.0,0.0,0.0,0.0,0.0,0.0,0.0,0.0,0.0,0.0,0.0,0.0,0.0,0.0,0.0,0.0,0.0,0.0,0.0,0.0,0.0,0.0,0.0,0.0,0.0,0.0,0.0,0.0,0.0,0.0,0.0,0.0,0.0,0.0,0.0,0.0,0.0,0.0,0.0,0.0,0.0,0.0,0.0,0.0,0.0,0.0,0.0,0.0,0.0,0.0,0.0,0.0,0.0,0.0,0.0,0.0,0.0,0.0,0.0,0.0,0.0,0.0,0.0,0.0,0.0,0.0,0.0,0.0,0.0,0.0,0.0,0.0,0.0,0.0,0.0,0.0,0.0,0.0,0.0,0.0,0.0,0.0,0.0,0.0,0.0,0.0,0.0,0.0,0.0,0.0,0.0,0.0,0.0,0.0,0.0,0.0,0.0,0.0,0.0,0.0,0.0,0.0,0.0,0.0,0.0,0.0,0.0,0.0,0.0,0.0,0.0,0.0,0.0,0.0,0.0,0.0,0.0,0.0,0.0,0.0,0.0,0.0,0.0,0.0,0.0,0.0,0.0,0.0,0.0,0.0,0.0,0.0,0.0,0.0,0.0,0.0,0.0,0.0,0.0,0.0,0.0,0.0,0.0,0.0,0.0,0.0,0.0,0.0,0.0,0.0,0.0,0.0,0.0,0.0,0.0,0.0,0.0,0.0,0.0,0.0,0.0,0.0,0.0,0.0,0.0,0.0,0.0,0.0,0.0,0.0,0.0,0.0,0.0,0.0,0.0,0.0,0.0,0.0,0.0,0.0,0.0,0.0,0.0,0.0,0.0,0.0,0.0,0.0,0.0,0.0,0.0,0.0,0.0,0.0,0.0,0.0,0.0,0.0,0.0,0.0,0.0,0.0,0.0,0.0,0.0,0.0,0.0,0.0,0.0,0.0,0.0,0.0,0.0,0.0,0.0,0.0,0.0,0.0,0.0,0.0,0.0,0.0,0.0,0.0,0.0,0.0,0.0,0.0,0.0,0.0,0.0,0.0,0.0,0.0,0.0,0.0,0.0,0.0,0.0,0.0,0.0,0.0,0.0,0.0,0.0,0.0,0.0,0.0,0.0,0.0,0.0,0.0,0.0,0.0,0.0,0.0,0.0,0.0,0.0,0.0,0.0,0.0,0.0,0.0,0.0,0.0,0.0,0.0,0.0,0.0,0.0,0.0,0.0,0.0,0.0,0.0,0.0,0.0,0.0,0.0,0.0,0.0,0.0,0.0,0.0,0.0,0.0,0.0,0.0,0.0,0.0,0.0,0.0,0.0,0.0,0.0,0.0,0.0,0.0,0.0,0.0,0.0,0.0,0.0,0.0,0.0,0.0,0.0,0.0,0.0,0.0,0.0,0.0,0.0,0.0,0.0,0.0,0.0,0.0,0.0,0.0,0.0,0.0,0.0,0.0,0.0,0.0,0.0,0.0,0.0,0.0,0.0,0.0,0.0,0.0,0.0,0.0,0.0,0.0,0.0,0.0,0.0,0.0,0.0,0.0,0.0,0.0,0.0,0.0,0.0,0.0,0.0,0.0,0.0,0.0,0.0,0.0,0.0,0.0,0.0,0.0,0.0,0.0,0.0,0.0,0.0,0.0,0.0,0.0,0.0,0.0,0.0,0.0,0.0,0.0,0.0,0.0,0.0,0.0,0.0,0.0,0.0,0.0,0.0,0.0,0.0,0.0,0.0,0.0,0.0,0.0,0.0,0.0,0.0,0.0,0.0,0.0,0.0,0.0,0.0,0.0,0.0,0.0,0.0,0.0,0.0,0.0,0.0,0.0,0.0,0.0,0.0,0.0,0.0,0.0,0.0,0.0,0.0,0.0,0.0,0.0,0.0,0.0,0.0,0.0,0.0,0.0,0.0,0.0,0.0,0.0,0.0,0.0,0.0,0.0,0.0,0.0,0.0,0.0,0.0,0.0,0.0,0.0,0.0,0.0,0.0,0.0,0.0,0.0,0.0,0.0,0.0,0.0,0.0,0.0,0.0,0.0,0.0,0.0,0.0,0.0,0.0,0.0,0.0,0.0,0.0,0.0,0.0,0.0,0.0,0.0,0.0,0.0,0.0,0.0,0.0,0.0,0.0,0.0,0.0,0.0,0.0,0.0,-1.2839,0.0,0.0,0.0,0.0,0.0,0.0,0.0,0.0,0.0,0.0,0.0,0.0,0.0,0.0,0.0,0.0,0.0,0.0,0.0,0.0,0.0,0.0,0.0,0.0,0.0,0.0,0.0,0.0,0.0,0.0,0.0,0.0,0.0,0.0,0.0,0.0,0.0,0.0,0.0,0.0,0.0,0.0,0.0,0.0,0.0,0.0,0.0,0.0,0.0,0.0,0.0,0.0,0.0,0.0,0.0,0.0,0.0,0.0,0.0,0.0,0.0,0.0,0.0,0.0,0.0,0.0,0.0,0.0,0.0,0.0,0.0,0.0,0.0,0.0,0.0,0.0,0.0,0.0,0.0,0.0,0.0,0.0,0.0,0.0,0.0,0.0,0.0,0.0,0.0,0.0,0.0,0.0,0.0,0.0,0.0,0.0,0.0,0.0,0.0,0.0,0.0,0.0,0.0,0.0,0.0,0.0,0.0,0.0,0.0,0.0,-1.3898,-1.2737,-1.5275,-1.5434,-1.2813,0.0,0.0,0.0,0.0,0.0,0.0,0.0,0.0,0.0,0.0,0.0,0.0,0.0,0.0,0.0,0.0,0.0,0.0,0.0,0.0,0.0,0.0,0.0,0.0,0.0,0.0,0.0,0.0,0.0,0.0,0.0,0.0,0.0,0.0,0.0,0.0,0.0,0.0,0.0,0.0,0.0,0.0,0.0,0.0,0.0,0.0,0.0,0.0,0.0,0.0,0.0,0.0,0.0,0.0,0.0,0.0,0.0,0.0,0.0,0.0,0.0,0.0,0.0,0.0,0.0,0.0,0.0,0.0,0.0,0.0,0.0,0.0,0.0,0.0,0.0,0.0,0.0,0.0,0.0,0.0,0.0,0.0,0.0,0.0,0.0,0.0,0.0,0.0,0.0,0.0,0.0,0.0,0.0,0.0,0.0,0.0,0.0,0.0,0.0,0.0,0.0,0.0,0.0,0.0,0.0,0.0,0.0,0.0,0.0,0.0,0.0,0.0,-1.5141,-1.5426,-1.3716,0.0,0.0,0.0,0.0,0.0,0.0,0.0,0.0,0.0,0.0,0.0,0.0,0.0,0.0,0.0,0.0,0.0,0.0,0.0,0.0,0.0,0.0,0.0,0.0,0.0,0.0,0.0,0.0,0.0,0.0,0.0,0.0,0.0,0.0,0.0,0.0,0.0,0.0,0.0,0.0,0.0,0.0,0.0,0.0,0.0,0.0,0.0,0.0,0.0,0.0,0.0,0.0,0.0,0.0,0.0,0.0,0.0,0.0,0.0,0.0,0.0,0.0,0.0,0.0,0.0,0.0,0.0,0.0,0.0,0.0,0.0,0.0,0.0,0.0,0.0,0.0,0.0,0.0,0.0,0.0,0.0,0.0,0.0,0.0,0.0,0.0,0.0,0.0,0.0,0.0,0.0,0.0,0.0,0.0,0.0,0.0,0.0,0.0,0.0,0.0,0.0,0.0,0.0,0.0,0.0,0.0,0.0,0.0,0.0,0.0,-1.3663,-1.4753,-1.5304,0.0,-1.5975,0.0,0.0,0.0,0.0,0.0,0.0,0.0,0.0,0.0,0.0,0.0,0.0,0.0,0.0,0.0,0.0,0.0,0.0,0.0,0.0,0.0,0.0,0.0,0.0,0.0,0.0,0.0,0.0,0.0,0.0,0.0,0.0,0.0,0.0,0.0,0.0,0.0,0.0,0.0,0.0,0.0,0.0,0.0,0.0,0.0,0.0,0.0,0.0,0.0,0.0,0.0,0.0,0.0,0.0,0.0,0.0,0.0,0.0,0.0,0.0,0.0,0.0,0.0,0.0,0.0,0.0,0.0,0.0,0.0,0.0,0.0,0.0,0.0,0.0,0.0,0.0,0.0,0.0,0.0,0.0,0.0,0.0,0.0,0.0,0.0,0.0,0.0,0.0,0.0,0.0,0.0,0.0,0.0,0.0,0.0,0.0,0.0,0.0,0.0,0.0,0.0,0.0,0.0,0.0,0.0,0.0,0.0,0.0,0.0,0.0,-1.395,-1.5359,-1.5648,-1.5582,0.0,0.0,0.0,0.0,0.0,0.0,0.0,0.0,0.0,0.0,0.0,0.0,0.0,0.0,0.0,0.0,0.0,0.0,0.0,0.0,0.0,0.0,0.0,0.0,0.0,0.0,0.0,0.0,0.0,0.0,0.0,0.0,0.0,0.0,0.0,0.0,0.0,0.0,0.0,0.0,0.0,0.0,0.0,0.0,0.0,0.0,0.0,0.0,0.0,0.0,0.0,0.0,0.0,0.0,0.0,0.0,0.0,0.0,0.0,0.0,0.0,0.0,0.0,0.0,0.0,0.0,0.0,0.0,0.0,0.0,0.0,0.0,0.0,0.0,0.0,0.0,0.0,0.0,0.0,0.0,0.0,0.0,0.0,0.0,0.0,0.0,0.0,0.0,0.0,0.0,0.0,0.0,0.0,0.0,0.0,0.0,0.0,0.0,0.0,0.0,0.0,0.0,0.0,0.0,0.0,0.0,0.0,0.0,0.0,0.0,-1.4459,-1.5044,-1.658,-1.5869,-1.5317,-1.5124,0.0,0.0,0.0,0.0,0.0,0.0,0.0,0.0,0.0,0.0,0.0,0.0,0.0,0.0,0.0,0.0,0.0,0.0,0.0,0.0,0.0,0.0,0.0,0.0,0.0,0.0,0.0,0.0,0.0,0.0,0.0,0.0,0.0,0.0,0.0,0.0,0.0,0.0,0.0,0.0,0.0,0.0,0.0,0.0,0.0,0.0,0.0,0.0,0.0,0.0,0.0,0.0,0.0,0.0,0.0,0.0,0.0,0.0,0.0,0.0,0.0,0.0,0.0,0.0,0.0,0.0,0.0,0.0,0.0,0.0,0.0,0.0,0.0,0.0,0.0,0.0,0.0,0.0,0.0,0.0,0.0,0.0,0.0,0.0,0.0,0.0,0.0,0.0,0.0,0.0,0.0,0.0,0.0,0.0,0.0,0.0,0.0,0.0,0.0,0.0,0.0,0.0,0.0,0.0,0.0,0.0,0.0,0.0,-1.76,-1.6814,-1.7289,-1.9073,-1.5825,-1.4979,0.0,0.0,0.0,0.0,0.0,0.0,0.0,0.0,0.0,0.0,0.0,0.0,0.0,0.0,0.0,0.0,0.0,0.0,0.0,0.0,0.0,0.0,0.0,0.0,0.0,0.0,0.0,0.0,0.0,0.0,0.0,0.0,0.0,0.0,0.0,0.0,0.0,0.0,0.0,0.0,0.0,0.0,0.0,0.0,0.0,0.0,0.0,0.0,0.0,0.0,0.0,0.0,0.0,0.0,0.0,0.0,0.0,0.0,0.0,0.0,0.0,0.0,0.0,0.0,0.0,0.0,0.0,0.0,0.0,0.0,0.0,0.0,0.0,0.0,0.0,0.0,0.0,0.0,0.0,0.0,0.0,0.0,0.0,0.0,0.0,0.0,0.0,0.0,0.0,0.0,0.0,0.0,0.0,0.0,0.0,0.0,0.0,0.0,0.0,0.0,0.0,0.0,0.0,0.0,0.0,0.0,0.0,0.0,0.0,-1.5615,-1.7093,-1.7645,-1.7138,-1.7123,-1.7195,0.0,0.0,0.0,0.0,0.0,0.0,0.0,0.0,0.0,0.0,0.0,0.0,0.0,0.0,0.0,0.0,0.0,0.0,0.0,0.0,0.0,0.0,0.0,0.0,0.0,0.0,0.0,0.0,0.0,0.0,0.0,0.0,0.0,0.0,0.0,0.0,0.0,0.0,0.0,0.0,0.0,0.0,0.0,0.0,0.0,0.0,0.0,0.0,0.0,0.0,0.0,0.0,0.0,0.0,0.0,0.0,0.0,0.0,0.0,0.0,0.0,0.0,0.0,0.0,0.0,0.0,0.0,0.0,0.0,0.0,0.0,0.0,0.0,0.0,0.0,0.0,0.0,0.0,0.0,0.0,0.0,0.0,0.0,0.0,0.0,0.0,0.0,0.0,0.0,0.0,0.0,0.0,0.0,0.0,0.0,0.0,0.0,0.0,0.0,0.0,0.0,0.0,0.0,0.0,0.0,0.0,0.0,0.0,0.0,-1.5667,0.0,-1.8578,-1.7467,-1.7946,-1.7937,0.0,0.0,0.0,0.0,0.0,0.0,0.0,0.0,0.0,0.0,0.0,0.0,0.0,0.0,0.0,0.0,0.0,0.0,0.0,0.0,0.0,0.0,0.0,0.0,0.0,0.0,0.0,0.0,0.0,0.0,0.0,0.0,0.0,0.0,0.0,0.0,0.0,0.0,0.0,0.0,0.0,0.0,0.0,0.0,0.0,0.0,0.0,0.0,0.0,0.0,0.0,0.0,0.0,0.0,0.0,0.0,0.0,0.0,0.0,0.0,0.0,0.0,0.0,0.0,0.0,0.0,0.0,0.0,0.0,0.0,0.0,0.0,0.0,0.0,0.0,0.0,0.0,0.0,0.0,0.0,0.0,0.0,0.0,0.0,0.0,0.0,0.0,0.0,0.0,0.0,0.0,0.0,0.0,0.0,0.0,0.0,0.0,0.0,0.0,0.0,0.0,0.0,0.0,0.0,0.0,0.0,0.0,0.0,-1.5792,-1.8238,-1.9409,-2.008,-2.0521,-1.8134,-1.6941,0.0,0.0,0.0,0.0,0.0,0.0,0.0,0.0,0.0,0.0,0.0,0.0,0.0,0.0,0.0,0.0,0.0,0.0,0.0,0.0,0.0,0.0,0.0,0.0,0.0,0.0,0.0,0.0,0.0,0.0,0.0,0.0,0.0,0.0,0.0,0.0,0.0,0.0,0.0,0.0,0.0,0.0,0.0,0.0,0.0,0.0,0.0,0.0,0.0,0.0,0.0,0.0,0.0,0.0,0.0,0.0,0.0,0.0,0.0,0.0,0.0,0.0,0.0,0.0,0.0,0.0,0.0,0.0,0.0,0.0,0.0,0.0,0.0,0.0,0.0,0.0,0.0,0.0,0.0,0.0,0.0,0.0,0.0,0.0,0.0,0.0,0.0,0.0,0.0,0.0,0.0,0.0,0.0,0.0,0.0,0.0,0.0,0.0,0.0,0.0,0.0,0.0,0.0,0.0,0.0,0.0,0.0,0.0,0.0,-1.7234,-1.9221,-2.0463,-2.0849,-1.9204,-1.8422,0.0,0.0,0.0,0.0,0.0,0.0,0.0,0.0,0.0,0.0,0.0,0.0,0.0,0.0,0.0,0.0,0.0,0.0,0.0,0.0,0.0,0.0,0.0,0.0,0.0,0.0,0.0,0.0,0.0,0.0,0.0,0.0,0.0,0.0,0.0,0.0,0.0,0.0,0.0,0.0,0.0,0.0,0.0,0.0,0.0,0.0,0.0,0.0,0.0,0.0,0.0,0.0,0.0,0.0,0.0,0.0,0.0,0.0,0.0,0.0,0.0,0.0,0.0,0.0,0.0,0.0,0.0,0.0,0.0,0.0,0.0,0.0,0.0,0.0,0.0,0.0,0.0,0.0,0.0,0.0,0.0,0.0,0.0,0.0,0.0,0.0,0.0,0.0,0.0,0.0,0.0,0.0,0.0,0.0,0.0,0.0,0.0,0.0,0.0,0.0,0.0,0.0,0.0,0.0,0.0,0.0,0.0,0.0,0.0,-1.8746,-2.0256,-2.1233,-2.1537,-1.9921,-1.9073,-1.8941,0.0,0.0,0.0,0.0,0.0,0.0,0.0,0.0,0.0,0.0,0.0,0.0,0.0,0.0,0.0,0.0,0.0,0.0,0.0,0.0,0.0,0.0,0.0,0.0,0.0,0.0,0.0,0.0,0.0,0.0,0.0,0.0,0.0,0.0,0.0,0.0,0.0,0.0,0.0,0.0,0.0,0.0,0.0,0.0,0.0,0.0,0.0,0.0,0.0,0.0,0.0,0.0,0.0,0.0,0.0,0.0,0.0,0.0,0.0,0.0,0.0,0.0,0.0,0.0,0.0,0.0,0.0,0.0,0.0,0.0,0.0,0.0,0.0,0.0,0.0,0.0,0.0,0.0,0.0,0.0,0.0,0.0,0.0,0.0,0.0,0.0,0.0,0.0,0.0,0.0,0.0,0.0,0.0,0.0,0.0,0.0,0.0,0.0,0.0,0.0,0.0,0.0,0.0,0.0,0.0,0.0,0.0,0.0,-2.2105,-2.2403,-2.2495,-2.24,-2.0381,-1.8927,0.0,0.0,0.0,0.0,0.0,0.0,0.0,0.0,0.0,0.0,0.0,0.0,0.0,0.0,0.0,0.0,0.0,0.0,0.0,0.0,0.0,0.0,0.0,0.0,0.0,0.0,0.0,0.0,0.0,0.0,0.0,0.0,0.0,0.0,0.0,0.0,0.0,0.0,0.0,0.0,0.0,0.0,0.0,0.0,0.0,0.0,0.0,0.0,0.0,0.0,0.0,0.0,0.0,0.0,0.0,0.0,0.0,0.0,0.0,0.0,0.0,0.0,0.0,0.0,0.0,0.0,0.0,0.0,0.0,0.0,0.0,0.0,0.0,0.0,0.0,0.0,0.0,0.0,0.0,0.0,0.0,0.0,0.0,0.0,0.0,0.0,0.0,0.0,0.0,0.0,0.0,0.0,0.0,0.0,0.0,0.0,0.0,0.0,0.0,0.0,0.0,0.0,0.0,0.0,0.0,0.0,0.0,0.0,0.0,-2.3513,-2.4696,-2.4806,-2.3635,-2.1122,-1.9356,0.0,0.0,0.0,0.0,0.0,0.0,0.0,0.0,0.0,0.0,0.0,0.0,0.0,0.0,0.0,0.0,0.0,0.0,0.0,0.0,0.0,0.0,0.0,0.0,0.0,0.0,0.0,0.0,0.0,0.0,0.0,0.0,0.0,0.0,0.0,0.0,0.0,0.0,0.0,0.0,0.0,0.0,0.0,0.0,0.0,0.0,0.0,0.0,0.0,0.0,0.0,0.0,0.0,0.0,0.0,0.0,0.0,0.0,0.0,0.0,0.0,0.0,0.0,0.0,0.0,0.0,0.0,0.0,0.0,0.0,0.0,0.0,0.0,0.0,0.0,0.0,0.0,0.0,0.0,0.0,0.0,0.0,0.0,0.0,0.0,0.0,0.0,0.0,0.0,0.0,0.0,0.0,0.0,0.0,0.0,0.0,0.0,0.0,0.0,0.0,0.0,0.0,0.0,0.0,0.0,0.0,0.0,0.0,-2.2482,-2.4614,-2.6031,-2.61,-2.4696,-2.2607,-2.0664,0.0,0.0,0.0,0.0,0.0,0.0,0.0,0.0,0.0,0.0,0.0,0.0,0.0,0.0,0.0,0.0,0.0,0.0,0.0,0.0,0.0,0.0,0.0,0.0,0.0,0.0,0.0,0.0,0.0,0.0,0.0,0.0,0.0,0.0,0.0,0.0,0.0,0.0,0.0,0.0,0.0,0.0,0.0,0.0,0.0,0.0,0.0,0.0,0.0,0.0,0.0,0.0,0.0,0.0,0.0,0.0,0.0,0.0,0.0,0.0,0.0,0.0,0.0,0.0,0.0,0.0,0.0,0.0,0.0,0.0,0.0,0.0,0.0,0.0,0.0,0.0,0.0,0.0,0.0,0.0,0.0,0.0,0.0,0.0,0.0,0.0,0.0,0.0,0.0,0.0,0.0,0.0,0.0,0.0,0.0,0.0,0.0,0.0,0.0,0.0,0.0,0.0,0.0,0.0,0.0,0.0,0.0,0.0,-2.3155,-2.5659,-2.6848,-2.6976,-2.5855,-2.4459,-2.2418,0.0,0.0,0.0,0.0,0.0,0.0,0.0,0.0,0.0,0.0,0.0,0.0,0.0,0.0,0.0,0.0,0.0,0.0,0.0,0.0,0.0,0.0,0.0,0.0,0.0,0.0,0.0,0.0,0.0,0.0,0.0,0.0,0.0,0.0,0.0,0.0,0.0,0.0,0.0,0.0,0.0,0.0,0.0,0.0,0.0,0.0,0.0,0.0,0.0,0.0,0.0,0.0,0.0,0.0,0.0,0.0,0.0,0.0,0.0,0.0,0.0,0.0,0.0,0.0,0.0,0.0,0.0,0.0,0.0,0.0,0.0,0.0,0.0,0.0,0.0,0.0,0.0,0.0,0.0,0.0,0.0,0.0,0.0,0.0,0.0,0.0,0.0,0.0,0.0,0.0,0.0,0.0,0.0,0.0,0.0,0.0,0.0,0.0,0.0,0.0,0.0,0.0,0.0,0.0,0.0,0.0,0.0,0.0,-2.3891,-2.7478,-2.8326,-2.8463,-2.8026,-2.5702,-2.3031,0.0,0.0,0.0,0.0,0.0,0.0,0.0,0.0,0.0,0.0,0.0,0.0,0.0,0.0,0.0,0.0,0.0,0.0,0.0,0.0,0.0,0.0,0.0,0.0,0.0,0.0,0.0,0.0,0.0,0.0,0.0,0.0,0.0,0.0,0.0,0.0,0.0,0.0,0.0,0.0,0.0,0.0,0.0,0.0,0.0,0.0,0.0,0.0,-1.817,0.0,0.0,0.0,0.0,0.0,0.0,0.0,0.0,0.0,0.0,0.0,0.0,0.0,0.0,0.0,0.0,0.0,0.0,0.0,0.0,0.0,0.0,0.0,0.0,0.0,0.0,0.0,0.0,0.0,0.0,0.0,0.0,0.0,0.0,0.0,0.0,0.0,0.0,0.0,0.0,0.0,0.0,0.0,0.0,0.0,0.0,0.0,0.0,0.0,0.0,0.0,0.0,0.0,0.0,0.0,0.0,0.0,0.0,0.0,-2.5427,-2.8132,-2.9018,-2.9279,-2.8873,-2.7612,-2.5173,0.0,0.0,0.0,0.0,0.0,0.0,0.0,0.0,0.0,0.0,0.0,0.0,0.0,0.0,0.0,0.0,0.0,0.0,0.0,0.0,0.0,0.0,0.0,0.0,0.0,0.0,0.0,0.0,0.0,0.0,0.0,0.0,0.0,0.0,0.0,0.0,0.0,0.0,0.0,0.0,0.0,0.0,0.0,0.0,0.0,0.0,0.0,0.0,0.0,0.0,0.0,0.0,0.0,0.0,0.0,0.0,0.0,0.0,0.0,0.0,0.0,0.0,0.0,0.0,0.0,0.0,0.0,0.0,0.0,0.0,0.0,0.0,0.0,0.0,0.0,0.0,0.0,0.0,0.0,0.0,0.0,0.0,0.0,0.0,0.0,0.0,0.0,0.0,0.0,0.0,0.0,0.0,0.0,0.0,0.0,0.0,0.0,0.0,0.0,0.0,0.0,0.0,0.0,0.0,0.0,0.0,0.0,-2.4239,-2.6546,-2.8298,-2.9246,-2.9567,-2.9237,-2.9315,-2.7481,-2.3407,0.0,0.0,0.0,0.0,0.0,0.0,0.0,0.0,0.0,0.0,0.0,0.0,0.0,0.0,0.0,0.0,0.0,0.0,0.0,0.0,0.0,0.0,0.0,0.0,0.0,0.0,0.0,0.0,0.0,0.0,0.0,0.0,0.0,0.0,0.0,0.0,0.0,0.0,-1.7121,-1.8838,0.0,0.0,0.0,0.0,0.0,0.0,0.0,0.0,-2.1293,0.0,0.0,0.0,0.0,0.0,0.0,0.0,0.0,0.0,0.0,0.0,0.0,0.0,0.0,0.0,0.0,0.0,0.0,0.0,0.0,0.0,0.0,0.0,0.0,0.0,0.0,0.0,0.0,0.0,0.0,0.0,0.0,0.0,0.0,0.0,0.0,0.0,0.0,0.0,0.0,0.0,0.0,0.0,0.0,0.0,0.0,0.0,0.0,0.0,0.0,0.0,0.0,0.0,0.0,0.0,0.0,-2.1373,-2.2512,-2.5047,-2.8997,-2.9254,-2.9504,-2.9652,-2.9531,-2.7835,-2.4603,0.0,0.0,0.0,0.0,0.0,0.0,0.0,0.0,0.0,0.0,0.0,0.0,0.0,0.0,0.0,0.0,0.0,0.0,0.0,0.0,0.0,0.0,0.0,0.0,0.0,0.0,0.0,0.0,0.0,0.0,0.0,0.0,0.0,0.0,0.0,0.0,0.0,0.0,0.0,-2.2283,-2.288,0.0,0.0,0.0,0.0,0.0,0.0,0.0,0.0,-2.2112,0.0,0.0,0.0,0.0,0.0,0.0,0.0,0.0,0.0,0.0,0.0,0.0,0.0,0.0,0.0,0.0,0.0,0.0,0.0,0.0,0.0,0.0,0.0,0.0,0.0,0.0,0.0,0.0,0.0,0.0,0.0,0.0,0.0,0.0,0.0,0.0,0.0,0.0,0.0,0.0,0.0,0.0,0.0,0.0,0.0,0.0,0.0,0.0,0.0,0.0,0.0,0.0,0.0,0.0,0.0,-2.1091,-2.442,-2.729,-2.9496,-2.9732,-3.0007,-3.0433,-3.0337,-2.8575,0.0,0.0,0.0,0.0,0.0,0.0,0.0,0.0,0.0,0.0,0.0,0.0,0.0,0.0,0.0,0.0,0.0,0.0,0.0,0.0,0.0,0.0,0.0,0.0,0.0,0.0,0.0,0.0,0.0,0.0,0.0,0.0,0.0,0.0,0.0,0.0,0.0,0.0,0.0,0.0,-2.3395,-2.4437,-2.5501,0.0,0.0,0.0,0.0,0.0,0.0,-2.3842,-2.4064,0.0,0.0,0.0,0.0,0.0,0.0,0.0,0.0,0.0,0.0,0.0,0.0,0.0,0.0,0.0,0.0,0.0,0.0,0.0,0.0,0.0,0.0,0.0,0.0,0.0,0.0,0.0,0.0,0.0,0.0,0.0,0.0,0.0,0.0,0.0,0.0,0.0,0.0,0.0,0.0,0.0,0.0,0.0,0.0,0.0,0.0,0.0,0.0,0.0,0.0,0.0,0.0,0.0,0.0,0.0,-2.1705,-2.6407,-2.9242,-2.9954,-3.0222,-3.0507,-3.1028,-3.1073,-2.9116,0.0,0.0,0.0,0.0,0.0,0.0,0.0,0.0,0.0,0.0,0.0,0.0,0.0,0.0,0.0,0.0,0.0,0.0,0.0,0.0,0.0,0.0,0.0,0.0,0.0,0.0,0.0,0.0,0.0,0.0,0.0,0.0,0.0,0.0,0.0,0.0,0.0,0.0,0.0,0.0,0.0,-2.5673,-2.6892,-2.5828,0.0,0.0,0.0,0.0,-2.3038,-2.5617,0.0,0.0,0.0,0.0,0.0,0.0,0.0,0.0,0.0,0.0,0.0,0.0,0.0,0.0,0.0,0.0,0.0,0.0,0.0,0.0,0.0,0.0,0.0,0.0,0.0,0.0,0.0,0.0,0.0,0.0,0.0,0.0,0.0,0.0,0.0,0.0,0.0,0.0,0.0,0.0,0.0,0.0,0.0,0.0,0.0,0.0,0.0,0.0,0.0,0.0,0.0,0.0,0.0,0.0,0.0,0.0,-2.4679,-2.5951,-2.7785,-3.0047,-3.0237,-3.0447,-3.0836,-3.1117,-2.906,0.0,0.0,0.0,0.0,0.0,0.0,0.0,0.0,0.0,0.0,0.0,0.0,0.0,0.0,0.0,0.0,0.0,0.0,0.0,0.0,0.0,0.0,0.0,0.0,0.0,0.0,0.0,0.0,0.0,0.0,0.0,0.0,0.0,0.0,0.0,0.0,0.0,0.0,0.0,0.0,0.0,-2.6887,-2.5846,-2.5661,-2.5749,0.0,0.0,0.0,-2.8219,-2.9022,0.0,0.0,0.0,0.0,0.0,0.0,0.0,0.0,0.0,0.0,0.0,0.0,0.0,0.0,0.0,0.0,0.0,0.0,0.0,0.0,0.0,0.0,0.0,0.0,0.0,0.0,0.0,0.0,0.0,0.0,0.0,0.0,0.0,0.0,0.0,0.0,0.0,0.0,0.0,0.0,0.0,0.0,0.0,0.0,0.0,0.0,0.0,0.0,0.0,0.0,0.0,0.0,0.0,0.0,0.0,-2.2893,-2.5198,-2.7185,-2.9029,-3.0551,-3.0884,-3.1112,-3.119,-3.1723,-2.9495,0.0,0.0,0.0,0.0,0.0,0.0,0.0,0.0,0.0,0.0,0.0,0.0,0.0,0.0,0.0,0.0,0.0,0.0,0.0,0.0,0.0,0.0,0.0,0.0,0.0,0.0,0.0,0.0,0.0,0.0,0.0,0.0,0.0,0.0,0.0,0.0,0.0,0.0,0.0,0.0,0.0,0.0,-2.9443,-2.8652,0.0,0.0,0.0,-2.538,-2.8971,0.0,0.0,0.0,0.0,0.0,0.0,0.0,0.0,0.0,0.0,0.0,0.0,0.0,0.0,0.0,0.0,0.0,0.0,0.0,0.0,0.0,0.0,0.0,0.0,0.0,0.0,0.0,0.0,0.0,0.0,0.0,0.0,0.0,0.0,0.0,0.0,0.0,0.0,0.0,0.0,0.0,0.0,0.0,0.0,0.0,0.0,0.0,0.0,0.0,0.0,0.0,0.0,0.0,0.0,0.0,0.0,0.0,-2.4749,-2.8017,-3.005,-3.0713,-3.1311,-3.1526,-3.138,-3.2258,0.0,0.0,0.0,0.0,0.0,0.0,0.0,0.0,0.0,0.0,0.0,0.0,0.0,0.0,0.0,0.0,0.0,0.0,0.0,0.0,0.0,0.0,0.0,0.0,0.0,0.0,0.0,-1.2991,0.0,0.0,0.0,0.0,0.0,0.0,0.0,0.0,0.0,0.0,0.0,0.0,0.0,0.0,-3.0573,-3.2176,-3.1199,-3.0871,0.0,0.0,-2.8262,-3.0523,-3.3895,-3.5028,0.0,0.0,0.0,0.0,0.0,0.0,0.0,0.0,0.0,0.0,0.0,0.0,0.0,0.0,0.0,0.0,0.0,0.0,0.0,0.0,0.0,0.0,0.0,0.0,0.0,0.0,0.0,0.0,0.0,0.0,0.0,0.0,0.0,0.0,0.0,0.0,0.0,0.0,0.0,0.0,0.0,0.0,0.0,0.0,0.0,0.0,0.0,0.0,0.0,0.0,0.0,0.0,0.0,0.0,0.0,-2.3469,-2.7485,-2.9803,-3.014,-3.1069,-3.1404,-3.1073,-3.2571,-3.063,0.0,0.0,0.0,0.0,0.0,0.0,0.0,0.0,0.0,0.0,0.0,0.0,0.0,0.0,0.0,0.0,0.0,0.0,0.0,0.0,0.0,0.0,0.0,0.0,0.0,0.0,0.0,0.0,0.0,0.0,0.0,0.0,0.0,0.0,0.0,0.0,0.0,0.0,0.0,0.0,0.0,-3.1029,-3.1757,-3.1792,-3.2719,0.0,0.0,-3.0564,-3.4935,-3.7683,-3.8252,-3.5012,0.0,0.0,0.0,0.0,0.0,0.0,0.0,0.0,0.0,0.0,0.0,0.0,0.0,0.0,0.0,0.0,0.0,0.0,0.0,0.0,0.0,0.0,0.0,0.0,0.0,0.0,0.0,0.0,0.0,0.0,0.0,0.0,0.0,0.0,0.0,0.0,0.0,0.0,0.0,0.0,0.0,0.0,0.0,0.0,0.0,0.0,0.0,0.0,0.0,0.0,0.0,0.0,0.0,-2.3567,-2.3241,-2.7788,-3.0122,-3.0168,-3.1459,-3.1926,-3.1482,-3.3211,-3.196,0.0,0.0,0.0,0.0,0.0,0.0,0.0,0.0,0.0,0.0,0.0,0.0,0.0,0.0,0.0,0.0,0.0,0.0,0.0,0.0,0.0,0.0,0.0,0.0,0.0,0.0,0.0,0.0,-1.8588,-1.8775,-1.755,0.0,0.0,0.0,0.0,0.0,0.0,0.0,0.0,0.0,0.0,-3.3177,-3.4766,-3.4664,0.0,0.0,-3.5797,-3.4978,-3.7817,-3.8091,-3.7787,-3.717,-3.7097,0.0,0.0,0.0,0.0,0.0,0.0,0.0,0.0,0.0,0.0,0.0,0.0,0.0,0.0,0.0,0.0,0.0,0.0,0.0,0.0,0.0,0.0,0.0,0.0,0.0,0.0,0.0,0.0,0.0,0.0,0.0,0.0,0.0,0.0,0.0,0.0,0.0,0.0,0.0,0.0,0.0,0.0,0.0,0.0,0.0,0.0,0.0,0.0,0.0,0.0,0.0,0.0,-2.3689,-2.2697,-2.8033,-3.075,-3.0444,-3.1974,-3.2596,-3.2138,-3.3847,-3.3169,0.0,0.0,0.0,0.0,0.0,0.0,0.0,0.0,0.0,0.0,0.0,0.0,0.0,0.0,0.0,0.0,0.0,0.0,0.0,0.0,0.0,0.0,0.0,0.0,0.0,0.0,0.0,0.0,-1.962,-1.9324,-1.8789,0.0,0.0,0.0,0.0,0.0,0.0,0.0,0.0,0.0,0.0,-3.5287,-3.7058,-3.7154,-3.7668,-3.9517,-3.8607,-3.8192,-3.9647,-3.9048,-3.8456,-3.8642,0.0,0.0,0.0,0.0,0.0,0.0,0.0,0.0,0.0,0.0,0.0,0.0,0.0,0.0,0.0,0.0,0.0,0.0,0.0,0.0,0.0,0.0,0.0,0.0,0.0,0.0,0.0,0.0,0.0,0.0,-1.2521,0.0,0.0,0.0,0.0,0.0,0.0,0.0,0.0,0.0,0.0,0.0,0.0,0.0,0.0,0.0,0.0,0.0,0.0,0.0,0.0,0.0,0.0,0.0,-2.1454,-2.816,-3.1551,-3.1231,-3.2702,-3.3252,-3.2845,-3.4515,-3.3903,-3.0638,0.0,0.0,0.0,0.0,0.0,0.0,0.0,0.0,0.0,0.0,0.0,0.0,0.0,0.0,0.0,0.0,0.0,0.0,0.0,0.0,0.0,0.0,0.0,0.0,0.0,0.0,-1.8203,-1.7592,-1.8483,0.0,0.0,0.0,0.0,0.0,0.0,0.0,0.0,0.0,0.0,-3.6155,-3.7061,-3.7965,-3.8743,-3.948,-4.0383,-3.9773,-3.9538,-4.0375,-4.1025,-4.1007,0.0,0.0,0.0,0.0,0.0,0.0,0.0,0.0,0.0,0.0,0.0,0.0,0.0,0.0,0.0,0.0,0.0,0.0,0.0,0.0,0.0,0.0,0.0,0.0,0.0,0.0,0.0,-1.3333,-1.3616,0.0,0.0,0.0,0.0,0.0,0.0,0.0,0.0,0.0,0.0,0.0,-2.8705,-2.8826,0.0,0.0,0.0,0.0,0.0,0.0,0.0,0.0,0.0,0.0,0.0,0.0,-2.3619,-2.1764,-2.8616,-3.235,-3.2291,-3.3078,-3.3354,-3.3071,-3.4412,-3.3606,-3.0529,0.0,0.0,0.0,0.0,0.0,0.0,0.0,0.0,0.0,0.0,0.0,0.0,0.0,0.0,0.0,0.0,0.0,0.0,0.0,0.0,0.0,0.0,0.0,0.0,0.0,-2.2339,0.0,0.0,0.0,0.0,0.0,0.0,0.0,0.0,0.0,0.0,0.0,-3.3196,-3.581,-3.637,-3.7252,-3.9172,-3.9643,-4.0123,0.0,0.0,0.0,0.0,0.0,0.0,0.0,0.0,0.0,0.0,0.0,0.0,0.0,0.0,-3.8056,-3.517,-3.5174,-3.55,-3.5037,0.0,0.0,0.0,0.0,0.0,0.0,0.0,0.0,0.0,0.0,0.0,0.0,0.0,0.0,0.0,0.0,-1.5844,0.0,0.0,0.0,0.0,0.0,0.0,0.0,0.0,-2.6538,-2.8879,-3.099,-3.1045,-3.1213,0.0,-3.1433,-2.9866,0.0,0.0,0.0,0.0,0.0,0.0,0.0,0.0,-2.5643,-2.4072,-2.9937,-3.3197,-3.3374,-3.3651,-3.3804,-3.3738,-3.4699,-3.4196,-3.2148,-3.1524,-2.9766,0.0,0.0,0.0,0.0,0.0,0.0,0.0,0.0,0.0,0.0,0.0,0.0,0.0,0.0,0.0,0.0,0.0,0.0,0.0,0.0,0.0,0.0,0.0,-2.5346,0.0,0.0,0.0,0.0,0.0,0.0,0.0,0.0,0.0,-3.1117,-3.3242,-3.5339,-3.7007,-3.7422,-3.8157,-3.9859,0.0,0.0,0.0,0.0,0.0,0.0,0.0,-4.298,-4.3167,-4.2296,-4.1743,-4.2324,-4.2851,-4.3009,-4.25,0.0,0.0,-3.9898,-3.8566,-3.8192,-3.9487,-4.0673,-4.1207,-4.016,-4.0356,-4.061,0.0,0.0,0.0,0.0,0.0,0.0,0.0,0.0,-2.0381,-2.0511,0.0,-1.8625,0.0,0.0,0.0,0.0,0.0,0.0,0.0,0.0,-3.0132,-3.173,-3.2648,-3.2662,-3.2611,-3.2497,-3.2793,-3.2751,-3.2176,-2.9149,0.0,0.0,0.0,0.0,0.0,0.0,-2.8962,-2.8326,-3.1952,-3.4088,-3.4317,-3.4399,-3.4481,-3.4683,-3.5314,-3.5561,-3.54,-3.331,-3.1435,-2.9879,-2.1397,0.0,0.0,0.0,0.0,0.0,0.0,0.0,0.0,0.0,0.0,0.0,0.0,0.0,0.0,0.0,0.0,0.0,0.0,0.0,0.0,-2.7005,0.0,0.0,0.0,0.0,0.0,0.0,0.0,0.0,0.0,0.0,-3.5915,-3.6182,-3.6922,-3.8405,0.0,0.0,0.0,0.0,-4.225,-4.2427,-4.1981,-4.2171,-4.3545,-4.511,-4.5711,-4.4284,0.0,0.0,-4.3974,-4.3974,-4.3992,-4.3974,-4.3992,-4.35,-4.2043,-4.0552,-4.0019,-4.1516,-4.3266,-4.3984,-4.2632,-4.2294,-4.2412,-2.3667,0.0,0.0,0.0,0.0,-2.0059,-2.0653,-2.1719,-2.21,-2.2404,-2.2665,-2.2078,0.0,0.0,0.0,0.0,0.0,0.0,-2.5448,-2.8249,-2.8879,-3.0419,-3.2676,-3.269,-3.2834,-3.3087,-3.3592,-3.3578,-3.3003,-3.2403,-3.0687,-2.8166,0.0,0.0,0.0,0.0,-2.899,-2.8539,-3.2023,-3.4048,-3.438,-3.4375,-3.4481,-3.4698,-3.5148,-3.5434,-3.5607,-3.5232,-3.3648,-3.0852,-2.8226,0.0,0.0,0.0,0.0,0.0,0.0,0.0,0.0,0.0,0.0,0.0,0.0,0.0,0.0,0.0,0.0,0.0,0.0,0.0,-3.1422,-3.1424,-3.0435,0.0,0.0,0.0,0.0,0.0,0.0,0.0,0.0,0.0,-3.8944,-3.8322,-3.8156,0.0,0.0,-4.0018,-4.1294,-4.1812,-4.2296,-4.2961,0.0,0.0,0.0,-4.6195,-4.7241,-4.642,-4.633,-4.6204,-4.5642,-4.5572,-4.5554,-4.5554,-4.5554,-4.5396,-4.4957,-4.3647,-4.284,-4.3409,-4.4813,-4.5481,-4.4209,-4.4306,-4.4624,-2.8627,-2.5374,-2.3694,-2.321,-2.3537,-2.3839,-2.4723,-2.5972,-2.6251,-2.6438,-2.6411,-2.5497,-2.49,-2.4551,-2.4236,0.0,0.0,0.0,-2.7944,-3.0508,-3.0647,-3.1689,-3.3526,-3.3654,-3.3884,-3.4142,-3.4566,-3.448,-3.4056,-3.3996,-3.3072,-3.1285,0.0,0.0,-2.8546,-3.0076,-3.0741,-3.0653,-3.2993,-3.4278,-3.4365,-3.4443,-3.4747,-3.5266,-3.5347,-3.5694,-3.6258,-3.6285,-3.5355,-3.3364,-3.1805,-3.0107,0.0,0.0,0.0,0.0,0.0,0.0,0.0,0.0,0.0,0.0,0.0,-2.339,0.0,0.0,0.0,0.0,-3.0278,-3.2681,-3.3186,-3.322,0.0,0.0,0.0,0.0,0.0,0.0,0.0,-3.5001,-3.6899,-3.8836,-4.0309,-4.0275,-4.022,-4.05,-4.0422,-4.0868,-4.2285,0.0,-4.3011,-4.361,-4.4025,-4.4405,-4.5006,-4.6673,-4.7858,-4.7666,-4.7682,-4.7645,-4.7206,-4.7151,-4.7169,-4.7151,-4.7134,-4.7134,-4.7084,-4.5877,-4.4861,-4.4917,-4.5729,-4.6127,-4.5443,-4.5828,-4.606,-3.2712,-3.2623,-2.8585,-2.7026,-2.7412,-2.7815,-2.9391,-3.1669,-3.1669,-3.154,-3.1057,-2.9008,-2.7881,-2.747,-2.6209,0.0,-3.005,-3.0261,-3.1631,-3.3932,-3.4251,-3.454,-3.4929,-3.5064,-3.53,-3.5447,-3.5504,-3.543,-3.5198,-3.4646,-3.4365,-3.4281,-3.3563,-3.3255,-3.3312,-3.3297,-3.355,-3.3954,-3.4496,-3.4735,-3.4574,-3.4777,-3.5272,-3.6238,-3.5944,-3.6179,-3.7094,-3.6704,-3.6492,-3.6399,-3.3233,-3.1515,-3.1558,0.0,0.0,0.0,0.0,0.0,0.0,0.0,0.0,0.0,0.0,0.0,0.0,0.0,0.0,0.0,-3.2833,0.0,-3.3322,-3.3426,0.0,0.0,0.0,-3.605,-3.6857,-3.7475,-3.793,-3.806,0.0,0.0,-4.0774,0.0,-4.2637,-4.202,-4.1816,-4.2106,-4.3147,-4.3718,-4.4147,-4.4354,-4.4941,-4.5406,-4.5684,-4.6968,-4.8013,-4.8277,-4.8382,-4.8417,-4.8399,-4.8468,-4.8556,-4.8486,-4.8538,-4.8468,-4.8503,-4.7299,-4.6377,-4.64,-4.6425,-4.6535,-4.6767,-4.6915,-4.7073,-3.3303,-3.3692,-3.2943,-3.2129,-3.1351,-3.1562,-3.1855,-3.2227,-3.2542,-3.2787,-3.2979,-3.2474,-3.228,-3.2206,-3.1936,-3.2339,-3.3227,-3.3449,-3.3839,-3.4376,-3.4465,-3.4643,-3.4929,-3.4929,-3.5078,-3.5268,-3.5705,-3.5691,-3.5268,-3.5638,-3.5554,-3.5015,-3.5238,-3.4683,-3.3354,-3.3466,-3.3902,-3.4554,-3.4837,-3.5307,-3.5851,-3.6076,-3.6373,-3.6744,-3.6417,-3.6466,-3.6975,-3.6514,-3.6352,-3.6492,-3.6137,-3.5814,-3.559,-3.2521,0.0,0.0,0.0,0.0,0.0,0.0,0.0,0.0,0.0,-2.9154,-3.1974,0.0,-3.2268,0.0,-3.4152,-3.5218,-3.6281,-3.6285,0.0,0.0,-3.6944,-3.741,-3.7968,-3.8807,-3.9446,-3.958,-4.0932,-4.2363,-4.3494,-4.3048,-4.2773,-4.3165,-4.2877,-4.2928,-4.3752,-4.401,-4.4336,-4.4974,-4.5303,-4.563,-4.6391,-4.7709,-4.8754,-4.8806,-4.9042,-4.9012,-4.8452,-4.8417,-4.8538,-4.8538,-4.8502,-4.8502,-4.8591,-4.8277,-4.805,-4.796,-4.794,-4.8038,-4.8275,-4.844,-4.8585,-3.4293,-3.4966,-3.5269,-3.4387,-3.2729,-3.3815,-3.4321,-3.4188,-3.4186,-3.4259,-3.4391,-3.4035,-3.3941,-3.4339,-3.443,-3.4735,-3.5137,-3.5214,-3.543,-3.5572,-3.548,-3.5662,-3.6207,-3.6169,-3.6208,-3.6447,-3.6788,-3.6699,-3.6283,-3.6429,-3.6273,-3.5872,-3.5969,-3.5483,-3.4612,-3.4654,-3.4939,-3.5481,-3.5567,-3.6012,-3.6722,-3.6831,-3.7028,-3.7419,-3.7293,-3.7349,-3.7547,-3.7021,-3.6674,-3.6507,-3.6846,-3.7002,-3.6877,-3.5298,-3.482,0.0,0.0,0.0,0.0,0.0,0.0,0.0,0.0,0.0,0.0,0.0,-3.3986,0.0,-3.5393,0.0,-3.6986,-3.7052,-3.7252,-3.7703,-3.8271,-3.8841,-3.9393,-4.0232,-4.0838,-4.1076,-4.2095,-4.3277,-4.4399,-4.3985,-4.3481,-4.3562,-4.3729,-4.4026,-4.4473,-4.4576,-4.4783,-4.5284,-4.5386,-4.6111,-4.7772,-4.8571,-4.9128,-4.9478,-4.9716,-4.9742,-4.9396,-4.9451,-4.9574,-4.9556,-4.9574,-4.9574,-4.9609,-4.9626,-4.9609,-4.9592,-4.9591,-4.9397,-4.89,-4.8909,-4.9057,-3.5307,-3.6061,-3.6263,-3.5146,-3.3403,-3.5444,-3.6027,-3.5463,-3.4892,-3.4881,-3.5036,-3.4468,-3.4624,-3.5167,-3.5432,-3.5812,-3.6291,-3.6317,-3.6591,-3.7085,-3.6778,-3.7139,-3.7976,-3.7778,-3.7816,-3.7983,-3.7897,-3.7777,-3.7596,-3.7082,-3.6825,-3.6782,-3.6327,-3.6215,-3.6375,-3.6433,-3.6461,-3.6446,-3.6576,-3.691,-3.7463,-3.7497,-3.7749,-3.8281,-3.8379,-3.8366,-3.832,-3.7904,-3.7432,-3.6862,-3.6893,-3.6971,-3.7049,-3.7265,-3.7167,0.0,-3.669,0.0,0.0,0.0,0.0,0.0,0.0,0.0,0.0,-3.5963,-3.6142,-3.649,-3.6609,-3.6796,-3.7019,-3.7378,-3.7915,-3.8633,-3.9473,-4.021,-4.0812,-4.1531,-4.2093,-4.2219,-4.2896,-4.3669,-4.4463,-4.4715,-4.4449,-4.3847,-4.4436,-4.5063,-4.5277,-4.5331,-4.5365,-4.5526,-4.5711,-4.6986,-4.9124,-4.9383,-4.9292,-4.9976,-5.0233,-5.0453,-5.046,-5.0659,-5.0855,-5.0838,-5.0785,-5.082,-5.0891,-5.0892,-5.0857,-5.0822,-5.0786,-5.04,-4.9449,-4.925,-4.921,-3.5404,-3.6263,-3.6358,-3.6536,-3.6923,-3.7339,-3.4627,-2.9933,-2.9892,-3.1276,-3.37,-3.5386,-3.6442,-3.7012,-3.7235,-3.7386,-3.7468,-3.7344,-3.7536,-3.791,-3.798,-3.8154,-3.8594,-3.851,-3.846,-3.8431,-3.779,-3.7471,-3.761,-3.751,-3.7439,-3.7453,-3.7852,-3.8017,-3.8091,0.0,0.0,0.0,-3.8018,-3.8414,-3.8532,-3.9009,-3.9294,-3.9399,-3.9184,0.0,-3.8993,-3.8743,-3.8521,-3.8412,-3.9054,0.0,0.0,0.0,0.0,0.0,0.0,0.0,0.0,0.0,0.0,0.0,-3.7291,-3.659,-3.5758,-3.5856,-3.6316,-3.7096,-3.778,-3.8515,-3.9347,-4.0122,-4.0718,-4.0995,-4.12,-4.1421,-4.1533,-4.2205,-4.2489,-4.2055,-4.3199,-4.4215,-4.4553,-4.4604,-4.4575,-4.4384,-4.5066,-4.566,-4.5904,-4.5922,-4.6028,-4.6387,-4.7283,-4.8493,-4.9825,-4.9867,-4.9752,-5.0051,-5.0263,-5.0397,-5.0453,-5.0692,-5.0891,-5.0891,-5.0891,-5.0891,-5.0891,-5.0911,-5.0947,-5.1017,-5.0982,-5.0858,-5.07,-5.0647,-5.0769,-3.5404,0.0,-3.637,-3.6192,0.0,-3.5898,-3.3354,-2.9264,-3.1744,-3.3548,-3.5086,-3.6397,-3.7243,-3.7375,-3.6102,-3.5642,-3.5655,-3.4126,-3.4475,-3.628,-3.6355,-3.7433,-3.924,-3.8902,-3.8788,-3.8851,-3.7987,-3.7625,-3.7777,-3.7625,-3.7687,-3.7915,-3.8202,-3.8516,-3.8826,-3.887,-3.8708,-3.8165,-3.8708,-3.8943,-3.8943,-3.9553,-3.9839,-3.9839,0.0,0.0,0.0,0.0,0.0,0.0,0.0,0.0,0.0,0.0,0.0,-3.8952,-3.8935,-3.8855,-3.8491,-3.8144,-3.8239,-3.8918,-3.8681,-3.8254,-3.7729,-3.7785,-3.8099,-3.8589,-3.9059,-3.9557,-4.0246,-4.0721,-4.114,-4.1402,-4.183,-4.2119,-4.2185,-4.2767,-4.3066,-4.2874,-4.3605,-4.4286,-4.4377,-4.4547,-4.457,-4.4587,-4.4931,-4.5524,-4.5998,-4.6357,-4.6754,-4.743,-4.8139,-4.9022,-4.9775,-4.9982,-5.0011,-4.9993,-5.0206,-5.0341,-5.0397,-5.071,-5.0891,-5.0908,-5.0926,-5.0997,-5.0928,-5.0964,-5.1051,-5.1105,-5.1123,-5.1105,-5.1088,-5.1158,-5.1246,-3.5404,-3.6383,-3.6471,-3.5821,-3.4555,-3.4831,-3.3579,-3.164,0.0,0.0,0.0,-3.7201,-3.7659,-3.7619,-3.5344,-3.4406,-3.4431,-3.2053,-3.2465,-3.5211,-3.5356,-3.6948,-3.9802,-3.9424,-3.9289,-3.9431,-3.8577,-3.8198,-3.8184,-3.7839,-3.7844,-3.8211,-3.8185,-3.8427,-3.8943,-3.9031,-3.9017,-3.8855,-3.909,-3.925,-3.925,-3.9783,-4.0066,-4.0066,-4.0331,-4.0262,-3.9724,-3.9693,-3.9447,-3.8959,-3.858,-3.8616,-3.9191,-3.9797,-4.0006,-3.9723,-3.9803,-3.9866,-3.9866,-3.9756,-3.9692,-3.9692,-3.9803,-3.9834,-3.9831,-3.9815,-3.9861,-3.9984,-4.0142,-4.0389,-4.0675,-4.0983,-4.1269,-4.1576,-4.2278,-4.2717,-4.275,-4.323,-4.3545,-4.363,-4.3898,-4.4138,-4.4236,-4.4423,-4.457,-4.466,-4.5021,-4.5524,-4.6385,-4.7073,-4.7626,-4.8425,-4.8798,-4.9154,-4.9746,-4.9993,-5.0011,-5.0011,-5.0206,-5.0397,-5.0453,-5.0655,-5.0891,-5.0891,-5.0961,-5.0997,-5.0999,-5.1105,-5.1174,-5.1211,-5.1281,-5.1334,-5.1211,-5.1264,-5.135,-3.5404,-3.6395,-3.6872,-3.7444,-3.8056,-3.8564,-3.8303,-3.7248,-3.4933,-3.4197,-3.4821,-3.701,-3.8297,-3.8728,-3.8492,-3.8458,-3.8491,-3.7663,-3.7786,0.0,-3.864,-3.9382,-4.0505,-4.0331,-4.033,-4.0478,-3.9699,-3.9239,-3.9196,-3.8445,-3.8254,-3.8431,-3.8127,-3.8156,-3.8575,-3.8738,-3.8929,-3.9031,-3.9466,-3.9696,-3.9854,-4.0261,-4.0401,-4.0401,-4.0455,-4.0493,-4.0401,-4.0507,-4.0545,-4.0452,-4.0557,-4.0707,-4.0754,-4.0955,-4.1088,-4.1041,-4.1238,-4.1288,-4.1257,-4.0767,-4.0451,-4.0482,-4.0972,-4.0879,-3.9927,-3.9815,-3.9861,-4.0016,-4.0667,-4.122,-4.1634,-4.2227,-4.278,-4.3129,-4.332,-4.3462,-4.3446,-4.3545,-4.3628,-4.3595,-4.3906,-4.4114,-4.4188,-4.44,-4.457,-4.4756,-4.5574,-4.6929,-4.798,-4.847,-4.8661,-4.9196,-4.9468,-4.9711,-4.9942,-5.0011,-5.0011,-5.0011,-5.0206,-5.0397,-5.0397,-5.0655,-5.0891,-5.0891,-5.0926,-5.0997,-5.1193,-5.1278,-5.1363,-5.1525,-5.1489,-5.1365,-5.1384,-5.1472,-5.1454,-3.5596,-3.6609,-3.7152,-3.7954,-3.8749,-3.9351,-3.9272,-3.8593,-3.6961,-3.6305,-3.652,-3.7843,-3.8591,-3.8787,-3.7417,-3.6855,-3.6932,-3.5304,-3.5425,-3.6918,-3.7414,-3.8546,-4.0204,-4.0238,-4.0274,-4.0342,-3.9662,-3.9349,-3.9335,-3.8809,-3.8748,-3.9024,-3.8828,-3.8641,-3.8545,-3.8708,-3.887,-3.909,-3.9409,-3.9711,-3.9996,-4.0277,-4.0401,-4.0455,-4.0524,-4.0524,-4.0524,-4.0593,-4.0662,-4.0662,-4.0746,-4.0814,-4.095,-4.12,-4.1319,-4.1323,-4.1522,-4.1588,-4.1588,-4.1304,-4.1146,-4.1162,-4.1778,-4.2002,-4.145,-4.1007,-4.0785,-4.0849,-4.1263,-4.1613,-4.207,-4.2548,-4.299,-4.3432,-4.3552,-4.3628,-4.3645,-4.3645,-4.3645,-4.3628,-4.3822,-4.4015,-4.4147,-4.4286,-4.4514,-4.4705,-4.5913,-4.7327,-4.8291,-4.8771,-4.9076,-4.9445,-4.9563,-4.9681,-4.9918,-5.0011,-5.0011,-5.0011,-5.0206,-5.0341,-5.0397,-5.0655,-5.0891,-5.0891,-5.0943,-5.0997,-5.1087,-5.1331,-5.1538,-5.1647,-5.1627,-5.1521,-5.1505,-5.1556,-5.1607,-3.5775,-3.6666,-3.7343,-3.8203,-3.9128,-3.9586,-3.9455,-3.8919,-3.8762,-3.8476,-3.8175,-3.8408,-3.8679,-3.8631,-3.6571,-3.5787,-3.5662,-3.3794,-3.4047,-3.5878,-3.651,-3.7936,-3.9802,-4.0097,-4.0153,-4.0195,-3.9839,-3.9612,-3.9516,-3.9224,-3.9247,-3.9467,-3.9338,-3.9004,-3.8675,-3.8648,-3.8782,-3.8973,-3.9119,-3.9409,-3.9925,-4.0207,-4.0331,-4.0401,-4.0455,-4.0524,-4.0524,-4.0524,-4.0524,-4.0524,-4.0524,-4.0593,-4.073,-4.1168,-4.1382,-4.144,-4.1767,-4.2062,-4.2062,-4.2062,-4.2062,-4.2078,-4.2584,-4.2916,-4.28,-4.228,-4.192,-4.1841,-4.1652,-4.1754,-4.2206,-4.2492,-4.2759,-4.3251,-4.3492,-4.3568,-4.3568,-4.3645,-4.3645,-4.3628,-4.3763,-4.3956,-4.4114,-4.4196,-4.4552,-4.5229,-4.6326,-4.7412,-4.8115,-4.8768,-4.9239,-4.9394,-4.9479,-4.9639,-4.9918,-5.0011,-5.0011,-4.9993,-5.0206,-5.0341,-5.0471,-5.0692,-5.0891,-5.0891,-5.0961,-5.098,-5.0946,-5.1207,-5.1554,-5.1734,-5.1714,-5.1654,-5.1607,-5.1658,-5.169,-3.5704,-3.6445,-3.726,-3.8653,-4.0089,-4.0305,-4.0004,-3.9468,-3.8958,-3.841,-3.8031,-3.8135,-3.8408,-3.8575,-3.8448,-3.8464,-3.8756,-3.8634,-3.8566,-3.8742,-3.8979,-3.9352,-3.9982,-4.0173,-4.0404,-4.0589,-4.0732,-4.0562,-4.0478,-3.9943,-3.9657,-3.9482,-3.8853,-3.8788,-3.9059,-3.8597,-3.8381,-3.8634,-3.8604,-3.8958,-3.9681,-4.0137,-4.0207,-4.0066,-4.0331,-4.0524,-4.047,-4.0524,-4.0524,-4.0524,-4.047,-4.0539,-4.0601,-4.1318,-4.1728,-4.1829,-4.2692,-4.3293,-4.3431,-4.35,-4.3421,-4.35,-4.3532,-4.3542,-4.3355,-4.3019,-4.2827,-4.2548,-4.2015,-4.1896,-4.2125,-4.2382,-4.278,-4.3248,-4.346,-4.3449,-4.3618,-4.3645,-4.3645,-4.3645,-4.3763,-4.3956,-4.4056,-4.4196,-4.4889,-4.621,-4.6972,-4.7868,-4.8629,-4.8995,-4.9236,-4.9307,-4.9402,-4.9639,-4.9918,-5.0011,-5.0011,-4.9993,-5.0206,-5.0359,-5.0453,-5.0655,-5.0891,-5.0891,-5.0908,-5.0927,-5.0929,-5.0996,-5.1269,-5.1818,-5.1833,-5.1701,-5.1672,-5.169,-5.169,-3.5596,-3.6218,-3.726,-3.8413,-3.9642,-4.0016,-3.9829,-3.9117,-3.9159,-3.8919,-3.8423,-3.845,-3.8451,-3.8395,-3.8575,-3.8845,-3.91,-3.9203,-3.9305,-3.9305,-3.9305,-3.9394,-3.9557,-3.9834,-4.0097,-4.027,-4.053,-4.0702,-4.0659,-4.0435,-4.0167,-3.9864,-3.9701,-3.9642,-3.9506,-3.904,-3.8993,-3.9293,-3.8764,-3.8679,-3.9046,-3.9409,-3.9625,-3.9681,-3.998,-4.0207,-4.0207,-4.0401,-4.0524,-4.0555,-4.0909,-4.1155,-4.117,-4.1913,-4.241,-4.2426,-4.2887,-4.3255,-4.3341,-4.3466,-4.3466,-4.3396,-4.3859,-4.4008,-4.385,-4.3653,-4.3599,-4.3451,-4.2868,-4.2616,-4.3142,-4.3456,-4.3751,-4.4057,-4.4344,-4.4384,-4.4125,-4.4092,-4.3943,-4.3668,-4.3704,-4.3822,-4.3998,-4.4155,-4.5007,-4.6389,-4.7124,-4.7767,-4.8765,-4.9097,-4.928,-4.935,-4.9479,-4.9598,-4.9784,-4.9935,-5.0011,-5.0051,-5.0206,-5.0397,-5.0453,-5.0655,-5.0891,-5.0891,-5.0891,-5.0909,-5.0911,-5.112,-5.1408,-5.1851,-5.1869,-5.1705,-5.169,-5.169,-5.169,-3.5416,-3.6077,-3.722,-3.8159,-3.8992,-3.9668,-3.9612,-3.9017,-3.911,-3.8925,-3.8535,-3.8353,-3.8067,-3.79,-3.8463,-3.8906,-3.915,-3.9284,-3.9305,-3.9305,-3.9305,-3.9305,-3.9305,-3.9598,-3.9788,-3.9922,-4.0211,-4.0457,-4.0702,-4.0702,-4.0548,-4.0406,-4.0345,-4.0196,-3.9966,-3.9535,-3.9421,-3.9382,-3.8906,-3.86,-3.8527,-3.8723,-3.8943,-3.9235,-3.9768,-4.0011,-3.9996,-4.0331,-4.0547,-4.0662,-4.1238,-4.1576,-4.1612,-4.2489,-4.3128,-4.3355,-4.3531,-4.3603,-4.3675,-4.3818,-4.3834,-4.3722,-4.4304,-4.4497,-4.4408,-4.433,-4.4403,-4.4403,-4.4063,-4.3949,-4.3881,-4.4237,-4.4556,-4.4739,-4.5033,-4.5013,-4.4479,-4.4397,-4.4163,-4.3717,-4.3645,-4.3787,-4.4181,-4.48,-4.5765,-4.6759,-4.7241,-4.7622,-4.8652,-4.908,-4.928,-4.9428,-4.953,-4.9649,-4.9725,-4.986,-4.9993,-5.0051,-5.0206,-5.0397,-5.0397,-5.071,-5.0891,-5.0891,-5.0891,-5.0909,-5.0911,-5.1173,-5.1494,-5.1815,-5.1851,-5.174,-5.169,-5.169,-5.169,-3.532,-3.6164,-3.7427,-3.8101,-3.851,-3.9204,-3.9607,-3.9316,-3.8479,-3.8075,-3.7972,-3.7429,-3.7053,-3.7011,-3.8569,-3.948,-3.9674,-3.9357,-3.9305,-3.9305,-3.9305,-3.9305,-3.9292,-3.9598,-3.97,-3.9788,-4.0124,-4.0457,-4.0702,-4.0702,-4.0759,-4.0916,-4.0434,-4.0205,-4.0296,-4.0009,-3.929,-3.8853,-3.9015,-3.8909,-3.8347,-3.8301,-3.8545,-3.887,-3.9553,-3.994,-4.0011,-4.0347,-4.0677,-4.1133,-4.1459,-4.1659,-4.1675,-4.2855,-4.3936,-4.4611,-4.4734,-4.4825,-4.4958,-4.5001,-4.5001,-4.5064,-4.5017,-4.5052,-4.4794,-4.4903,-4.5034,-4.5374,-4.5453,-4.5126,-4.4129,-4.4493,-4.4766,-4.4867,-4.4984,-4.4918,-4.445,-4.4512,-4.413,-4.375,-4.3694,-4.4069,-4.4787,-4.6269,-4.6876,-4.739,-4.8085,-4.868,-4.8731,-4.9024,-4.9192,-4.928,-4.9496,-4.9684,-4.9911,-4.997,-4.9952,-5.0051,-5.0206,-5.0397,-5.0526,-5.0637,-5.0764,-5.0891,-5.0891,-5.0909,-5.0964,-5.1104,-5.1444,-5.1687,-5.1844,-5.179,-5.179,-5.174,-5.174,-3.5427,-3.6003,-3.6687,-3.7189,-3.7747,-3.8351,-3.8328,-3.8079,-3.8086,-3.7792,-3.7475,-3.726,-3.7362,-3.7594,-3.8183,-3.8488,-3.8608,-3.8772,-3.8948,-3.9011,-3.9203,-3.9305,-3.9305,-3.9407,-3.951,-3.97,-4.0023,-4.0357,-4.0702,-4.0702,-4.0688,-4.083,-4.0718,-4.0675,-4.0729,-4.0381,-4.0354,-4.0829,-4.0141,-3.9596,-3.9525,-3.9247,-3.8925,-3.8811,-3.9177,-3.9553,-3.9768,-4.0462,-4.0939,-4.1209,-4.2007,-4.2557,-4.2724,-4.3637,-4.4386,-4.4692,-4.4739,-4.4723,-4.4814,-4.4964,-4.498,-4.4814,-4.4964,-4.4874,-4.4768,-4.4806,-4.4981,-4.5332,-4.6072,-4.6039,-4.5671,-4.5619,-4.5842,-4.5979,-4.6083,-4.5781,-4.5081,-4.4882,-4.4598,-4.3828,-4.3932,-4.4726,-4.5574,-4.6252,-4.6781,-4.7435,-4.7833,-4.8265,-4.8731,-4.9052,-4.9219,-4.9402,-4.9667,-4.9897,-4.9952,-5.0004,-5.0021,-5.0011,-5.0149,-5.0302,-5.0415,-5.0564,-5.0747,-5.0891,-5.0891,-5.0946,-5.0947,-5.1296,-5.1515,-5.1701,-5.184,-5.1907,-5.1938,-5.1889,-5.1938,-3.5669,-3.5966,-3.6321,-3.6637,-3.7052,-3.7424,-3.7458,-3.7302,-3.7418,-3.7265,-3.698,-3.6902,-3.7027,-3.718,-3.7266,-3.7373,-3.7505,-3.8226,-3.8679,-3.8845,-3.9114,-3.9305,-3.9305,-3.9305,-3.9407,-3.9598,-3.9834,-4.0257,-4.0616,-4.0702,-4.0702,-4.0702,-4.0845,-4.093,-4.0845,-4.0841,-4.1324,-4.182,-4.1011,-4.0514,-4.0672,-4.018,-3.9826,-3.9594,-3.9654,-3.9771,-3.9971,-4.0792,-4.1407,-4.1754,-4.2485,-4.3153,-4.3624,-4.422,-4.4618,-4.4572,-4.4572,-4.4572,-4.4572,-4.4723,-4.4723,-4.4663,-4.4739,-4.4723,-4.4617,-4.4595,-4.4834,-4.5421,-4.6207,-4.6737,-4.6506,-4.6566,-4.6668,-4.6722,-4.6807,-4.6475,-4.557,-4.5538,-4.5175,-4.457,-4.4726,-4.549,-4.6262,-4.655,-4.7074,-4.7697,-4.7855,-4.8186,-4.8697,-4.9001,-4.9168,-4.9367,-4.9581,-4.9761,-4.9828,-4.988,-4.998,-5.0045,-5.0109,-5.0246,-5.0341,-5.0509,-5.0675,-5.0819,-5.0909,-5.091,-5.1105,-5.1418,-5.1589,-5.174,-5.1858,-5.1907,-5.1956,-5.2054,-5.2084,-3.59,-3.5983,-3.6457,-3.6694,-3.6799,-3.6807,-3.7066,-3.7319,-3.6701,-3.6487,-3.6345,-3.6335,-3.6007,-3.5586,-3.6007,-3.6275,-3.6734,-3.7848,-3.8498,-3.8589,-3.9038,-3.9305,-3.9305,-3.9305,-3.9305,-3.9407,-3.9821,-4.0257,-4.0702,-4.0702,-4.0702,-4.0702,-4.0773,-4.0859,-4.0773,-4.1296,-4.1645,-4.1763,-4.1595,-4.1592,-4.1597,-4.1052,-4.0867,-4.0976,-4.0991,-4.0904,-4.0487,-4.1413,-4.2062,-4.25,-4.2818,-4.3396,-4.4052,-4.4435,-4.4557,-4.4603,-4.4572,-4.4572,-4.4572,-4.4587,-4.4648,-4.4572,-4.4663,-4.4648,-4.4677,-4.4607,-4.4825,-4.5478,-4.6271,-4.6781,-4.6615,-4.6738,-4.6876,-4.6892,-4.6876,-4.6621,-4.6238,-4.6175,-4.6208,-4.5755,-4.5798,-4.6096,-4.6808,-4.7403,-4.7849,-4.8044,-4.8286,-4.843,-4.8673,-4.8877,-4.9063,-4.9202,-4.9375,-4.9496,-4.9607,-4.9795,-4.988,-5.0004,-5.0126,-5.0206,-5.0359,-5.0509,-5.0675,-5.0819,-5.0909,-5.091,-5.1035,-5.1333,-5.147,-5.1571,-5.174,-5.1925,-5.2102,-5.2198,-5.218,-3.5701,-3.597,-3.6247,-3.6575,-3.6671,-3.6708,-3.6694,-3.6537,-3.6162,-3.5803,-3.5417,-3.5284,-3.5114,-3.5114,-3.5679,-3.6061,-3.625,-3.7479,-3.8135,-3.8213,-3.8756,-3.8997,-3.91,-3.9203,-3.9496,-3.9788,-3.9936,-4.027,-4.0616,-4.0702,-4.0873,-4.1128,-4.1015,-4.117,-4.1506,-4.1688,-4.1854,-4.2319,-4.2254,-4.2202,-4.2153,-4.1837,-4.1525,-4.1413,-4.1741,-4.1953,-4.1788,-4.2091,-4.2363,-4.2588,-4.301,-4.3449,-4.3801,-4.4096,-4.425,-4.4358,-4.4343,-4.4496,-4.4572,-4.4572,-4.4572,-4.4648,-4.4723,-4.4799,-4.4752,-4.4693,-4.4956,-4.5624,-4.623,-4.6518,-4.6652,-4.6807,-4.6876,-4.6876,-4.6876,-4.6686,-4.612,-4.5701,-4.5783,-4.6255,-4.6335,-4.6794,-4.7502,-4.8,-4.8033,-4.8179,-4.8356,-4.8483,-4.8483,-4.8753,-4.9018,-4.908,-4.9185,-4.9246,-4.9419,-4.9616,-4.9742,-4.9894,-5.0011,-5.0149,-5.0302,-5.0415,-5.0582,-5.0747,-5.0838,-5.0946,-5.107,-5.1175,-5.1278,-5.1589,-5.1812,-5.2041,-5.2246,-5.234,-5.234,-3.5903,-3.6044,-3.6236,-3.6375,-3.6557,-3.6406,-3.6168,-3.5833,-3.598,-3.5617,-3.5041,-3.5211,-3.5295,-3.5391,-3.5775,-3.6061,-3.6345,-3.7188,-3.7677,-3.7861,-3.8485,-3.8832,-3.8908,-3.9203,-3.9598,-3.9963,-4.0097,-4.0329,-4.0773,-4.0958,-4.1142,-4.1297,-4.1213,-4.1353,-4.1771,-4.1868,-4.2117,-4.2541,-4.2541,-4.2577,-4.2648,-4.2465,-4.2272,-4.2222,-4.2506,-4.2701,-4.2716,-4.2731,-4.2809,-4.2917,-4.3135,-4.3409,-4.3675,-4.3786,-4.3849,-4.4127,-4.4205,-4.4205,-4.4343,-4.4358,-4.4419,-4.4572,-4.4723,-4.4874,-4.4902,-4.483,-4.517,-4.564,-4.5969,-4.6173,-4.6372,-4.6668,-4.6738,-4.6807,-4.6876,-4.675,-4.6315,-4.5765,-4.593,-4.6618,-4.6717,-4.7159,-4.7671,-4.8049,-4.8049,-4.8179,-4.8292,-4.842,-4.842,-4.869,-4.8815,-4.894,-4.9012,-4.9152,-4.929,-4.9419,-4.9546,-4.9674,-4.9877,-5.0092,-5.0246,-5.0302,-5.0415,-5.0655,-5.0819,-5.0891,-5.1016,-5.0964,-5.1065,-5.1465,-5.1897,-5.2089,-5.2275,-5.2387,-5.2434,-3.6254,-3.6266,-3.6266,-3.6266,-3.6329,-3.6033,-3.5794,-3.5444,-3.5853,-3.5634,-3.5187,-3.562,-3.6061,-3.5966,-3.6061,-3.6345,-3.6709,-3.7108,-3.7413,-3.769,-3.8239,-3.8666,-3.8895,-3.9189,-3.9571,-3.9908,-4.0142,-4.0474,-4.0916,-4.1213,-4.1396,-4.148,-4.1465,-4.148,-4.1731,-4.1883,-4.2213,-4.2459,-4.2607,-4.282,-4.319,-4.3016,-4.3001,-4.313,-4.3225,-4.3254,-4.324,-4.324,-4.3284,-4.3314,-4.3314,-4.3409,-4.3566,-4.3461,-4.3554,-4.3988,-4.3988,-4.3988,-4.3988,-4.4065,-4.4205,-4.4587,-4.4648,-4.4814,-4.5114,-4.5243,-4.5342,-4.5557,-4.5753,-4.5881,-4.612,-4.6404,-4.6528,-4.6598,-4.6738,-4.6913,-4.7101,-4.6515,-4.655,-4.7043,-4.7013,-4.6914,-4.7622,-4.7836,-4.7984,-4.8098,-4.8227,-4.8292,-4.8373,-4.8564,-4.8786,-4.8798,-4.8872,-4.9012,-4.9152,-4.9214,-4.9342,-4.9479,-4.9725,-5.0034,-5.0159,-5.0163,-5.0192,-5.041,-5.0694,-5.0801,-5.0909,-5.0946,-5.1101,-5.1467,-5.1858,-5.2132,-5.2268,-5.2325,-5.2154,-3.6266,-3.6266,-3.6266,-3.6266,-3.6254,-3.6225,-3.5998,-3.5713,-3.5524,-3.5503,-3.5425,-3.5284,-3.5537,-3.5704,-3.6263,-3.6628,-3.6854,-3.7333,-3.7703,-3.7808,-3.7979,-3.8355,-3.8841,-3.9162,-3.9469,-3.9793,-4.0128,-4.0488,-4.0773,-4.1213,-4.1549,-4.1785,-4.1717,-4.1868,-4.2295,-4.2295,-4.2377,-4.2622,-4.2688,-4.2673,-4.285,-4.2915,-4.2981,-4.3076,-4.3235,-4.325,-4.3344,-4.3344,-4.3344,-4.3344,-4.3344,-4.3344,-4.3409,-4.3364,-4.3457,-4.3675,-4.3769,-4.3832,-4.3988,-4.3988,-4.4205,-4.4572,-4.4723,-4.498,-4.5399,-4.5573,-4.5646,-4.5719,-4.5769,-4.5897,-4.6064,-4.6278,-4.6404,-4.6388,-4.6684,-4.6876,-4.6913,-4.6815,-4.6835,-4.7169,-4.7106,-4.7273,-4.7539,-4.777,-4.7853,-4.7984,-4.8115,-4.8163,-4.8244,-4.85,-4.8707,-4.8719,-4.8748,-4.8889,-4.9057,-4.9086,-4.9129,-4.9282,-4.959,-4.9959,-5.0038,-5.009,-4.9992,-5.0066,-5.04,-5.0558,-5.0894,-5.1086,-5.1347,-5.15,-5.1629,-5.185,-5.1903,-5.1971,-5.1601,-3.6266,-3.6266,-3.6266,-3.6266,-3.6266,-3.6266,-3.6087,-3.5744,-3.5748,-3.56,-3.5577,-3.5513,-3.5855,-3.6447,-3.69,-3.7184,-3.7266,-3.7668,-3.7831,-3.7782,-3.8148,-3.8535,-3.8841,-3.8984,-3.9353,-3.9853,-4.0229,-4.0516,-4.0787,-4.1396,-4.1731,-4.1717,-4.1814,-4.2049,-4.231,-4.231,-4.2407,-4.257,-4.2555,-4.2459,-4.2644,-4.2578,-4.2673,-4.2769,-4.293,-4.309,-4.325,-4.325,-4.325,-4.3265,-4.3344,-4.3344,-4.3344,-4.3344,-4.3344,-4.3518,-4.3518,-4.3596,-4.366,-4.3738,-4.3895,-4.4281,-4.4572,-4.4964,-4.5278,-4.5589,-4.5807,-4.5807,-4.5817,-4.5905,-4.608,-4.6278,-4.6474,-4.6598,-4.6754,-4.6892,-4.6807,-4.6876,-4.6961,-4.703,-4.7183,-4.7251,-4.7504,-4.7571,-4.7721,-4.7853,-4.8001,-4.8049,-4.8049,-4.8373,-4.8547,-4.8593,-4.8736,-4.8956,-4.9046,-4.9033,-4.912,-4.9239,-4.9573,-4.9942,-5.0055,-5.0058,-4.9906,-4.9872,-5.0136,-5.0347,-5.0558,-5.0854,-5.12,-5.1315,-5.1428,-5.1233,-5.1135,-5.1184,-5.085,-3.6266,-3.6266,-3.6266,-3.6266,-3.6266,-3.6254,-3.6036,-3.5764,-3.6051,-3.6057,-3.5966,-3.6197,-3.6701,-3.7673,-3.745,-3.7693,-3.7935,-3.7916,-3.7822,-3.795,-3.8385,-3.8839,-3.8973,-3.9316,-3.9632,-4.0148,-4.0642,-4.0898,-4.1155,-4.1793,-4.1861,-4.1748,-4.1984,-4.215,-4.2189,-4.2092,-4.2272,-4.2368,-4.2257,-4.2295,-4.24,-4.2266,-4.2213,-4.2377,-4.2622,-4.2864,-4.309,-4.3076,-4.3076,-4.3235,-4.325,-4.3344,-4.3344,-4.3344,-4.3344,-4.3344,-4.3344,-4.3344,-4.3344,-4.3423,-4.3503,-4.3972,-4.4358,-4.4677,-4.5095,-4.5452,-4.5709,-4.563,-4.5719,-4.5703,-4.5936,-4.6262,-4.6404,-4.6545,-4.6668,-4.6738,-4.6668,-4.6738,-4.6876,-4.6876,-4.7098,-4.7183,-4.7319,-4.7437,-4.7638,-4.7721,-4.7869,-4.8001,-4.7984,-4.8163,-4.8356,-4.8547,-4.8723,-4.8996,-4.9035,-4.904,-4.9101,-4.9212,-4.9632,-4.9982,-5.0102,-5.0032,-4.9849,-4.9677,-4.9153,-4.9291,-4.9869,-5.0216,-5.0788,-5.0374,-4.9959,-4.984,-4.9757,-4.992,-4.9767,-3.6266,-3.6266,-3.6266,-3.6266,-3.6266,-3.6266,-3.6197,-3.6071,-3.6024,-3.6343,-3.6585,-3.6315,-3.6801,-3.79,-3.7792,-3.7813,-3.8227,-3.8031,-3.7972,-3.8298,-3.8527,-3.907,-3.9588,-4.0123,-4.0522,-4.0872,-4.1644,-4.1854,-4.1804,-4.241,-4.2681,-4.1875,-4.2175,-4.2557,-4.2136,-4.2009,-4.2107,-4.2189,-4.2092,-4.2078,-4.2131,-4.2034,-4.2049,-4.2131,-4.2295,-4.2526,-4.2769,-4.2769,-4.2835,-4.3076,-4.3155,-4.3265,-4.3265,-4.3344,-4.3344,-4.3344,-4.3344,-4.3344,-4.3344,-4.3344,-4.3503,-4.391,-4.4112,-4.4281,-4.4674,-4.5216,-4.5341,-4.5157,-4.5169,-4.529,-4.5499,-4.5662,-4.5848,-4.5992,-4.6152,-4.6365,-4.642,-4.6684,-4.6892,-4.6892,-4.6961,-4.703,-4.7183,-4.7386,-4.7521,-4.7604,-4.7737,-4.7869,-4.7984,-4.8033,-4.8227,-4.8356,-4.866,-4.8899,-4.899,-4.9029,-4.909,-4.9273,-4.9649,-4.9999,-5.0102,-4.9893,-4.9604,-4.875,-4.7664,-4.8115,-4.9005,-4.9877,-5.0481,-4.9488,-4.8687,-4.884,-4.8926,-4.8892,-4.8848,-3.5813,-3.5944,-3.6065,-3.6157,-3.6277,-3.6266,-3.6266,-3.622,-3.6229,-3.6485,-3.6808,-3.6453,-3.7039,-3.8154,-3.8103,-3.8265,-3.8427,-3.8329,-3.8114,-3.8381,-3.8851,-3.9544,-4.0186,-4.0842,-4.1366,-4.1369,-4.2063,-4.2214,-4.2368,-4.2505,-4.2323,-4.1725,-4.1896,-4.1737,-4.1691,-4.1731,-4.1774,-4.1872,-4.2024,-4.1995,-4.1702,-4.1785,-4.1868,-4.1785,-4.1868,-4.1937,-4.2541,-4.2444,-4.2607,-4.2769,-4.293,-4.309,-4.325,-4.3344,-4.3265,-4.3344,-4.3344,-4.3344,-4.3344,-4.3344,-4.3409,-4.366,-4.3817,-4.4052,-4.4399,-4.4796,-4.4949,-4.4962,-4.502,-4.511,-4.5321,-4.5557,-4.563,-4.563,-4.5792,-4.6064,-4.6262,-4.6598,-4.6807,-4.6876,-4.6876,-4.6945,-4.7098,-4.7251,-4.7319,-4.7403,-4.7554,-4.7737,-4.7787,-4.7902,-4.8033,-4.8227,-4.8534,-4.874,-4.8849,-4.9001,-4.9107,-4.929,-4.959,-4.9942,-5.0154,-4.9754,-4.9345,-4.8417,-4.7559,-4.7432,-4.8249,-4.9185,-4.9581,-4.8857,-4.8288,-4.8241,-4.824,-4.8271,-4.8156,-3.5216,-3.5454,-3.567,-3.5852,-3.6157,-3.6157,-3.6157,-3.6157,-3.6266,-3.6552,-3.672,-3.6742,-3.7327,-3.8194,-3.8274,-3.8515,-3.8705,-3.8728,-3.8541,-3.8518,-3.9342,-4.0,-4.0595,-4.1313,-4.1721,-4.1647,-4.2389,-4.267,-4.2396,-4.2411,-4.2414,-4.1716,-4.1264,-4.1269,-4.1142,-4.1213,-4.1354,-4.1496,-4.1607,-4.1604,-4.1212,-4.1324,-4.1423,-4.1437,-4.1269,-4.1437,-4.1966,-4.2049,-4.2199,-4.2526,-4.2607,-4.285,-4.301,-4.317,-4.317,-4.3185,-4.3185,-4.3185,-4.3265,-4.3344,-4.3344,-4.3344,-4.366,-4.3864,-4.3944,-4.422,-4.4479,-4.4737,-4.4812,-4.4977,-4.5305,-4.5468,-4.5557,-4.5614,-4.5687,-4.5832,-4.6088,-4.6372,-4.6442,-4.6876,-4.6876,-4.6945,-4.6945,-4.7098,-4.7115,-4.7199,-4.7403,-4.7554,-4.7588,-4.777,-4.7902,-4.8081,-4.8356,-4.858,-4.869,-4.8719,-4.8889,-4.9107,-4.9411,-4.9649,-4.9763,-4.8998,-4.8494,-4.8435,-4.7978,-4.7643,-4.7184,-4.747,-4.7709,-4.7656,-4.7784,-4.7678,-4.7647,-4.7696,-4.759,-3.5189,-3.5409,-3.5488,-3.5522,-3.5643,-3.5742,-3.584,-3.5961,-3.6386,-3.6773,-3.6943,-3.7106,-3.7573,-3.816,-3.8189,-3.8246,-3.8515,-3.8793,-3.903,-3.9102,-3.9762,-4.0252,-4.0814,-4.1412,-4.1857,-4.2299,-4.2699,-4.2716,-4.2578,-4.3174,-4.2607,-4.185,-4.1807,-4.1583,-4.0898,-4.0801,-4.0929,-4.1071,-4.1086,-4.1001,-4.076,-4.0703,-4.0745,-4.0944,-4.0859,-4.1114,-4.1465,-4.1717,-4.1868,-4.2131,-4.231,-4.2474,-4.2459,-4.2541,-4.2622,-4.2769,-4.2769,-4.293,-4.317,-4.325,-4.3265,-4.3344,-4.3423,-4.3423,-4.3551,-4.3708,-4.4004,-4.422,-4.4465,-4.4708,-4.4723,-4.4949,-4.5024,-4.5098,-4.5188,-4.5426,-4.5614,-4.5744,-4.6088,-4.6598,-4.6738,-4.6909,-4.6941,-4.6994,-4.6961,-4.7046,-4.7251,-4.7403,-4.747,-4.7638,-4.7836,-4.8,-4.8096,-4.8322,-4.8467,-4.8497,-4.8543,-4.8719,-4.8906,-4.9073,-4.8959,-4.7953,-4.7557,-4.7744,-4.7527,-4.7035,-4.6613,-4.6326,-4.646,-4.6976,-4.7032,-4.7097,-4.7198,-4.7298,-4.7365,-3.4472,-3.4933,-3.509,-3.5312,-3.5423,-3.5522,-3.5632,-3.5632,-3.6059,-3.6375,-3.663,-3.6885,-3.731,-3.789,-3.8073,-3.8197,-3.8537,-3.8978,-3.9221,-3.9398,-3.9865,-4.0284,-4.0681,-4.1198,-4.1076,-4.1294,-4.2008,-4.2481,-4.2158,-4.2347,-4.22,-4.137,-4.1315,-4.088,-4.0406,-4.0284,-4.0371,-4.0471,-4.063,-4.0516,-4.0388,-4.0343,-4.0443,-4.0616,-4.0702,-4.0859,-4.1114,-4.1269,-4.1437,-4.1647,-4.1843,-4.1814,-4.18,-4.18,-4.1966,-4.2266,-4.2348,-4.2511,-4.2915,-4.301,-4.3105,-4.3265,-4.3265,-4.3344,-4.3344,-4.3581,-4.3738,-4.3957,-4.4112,-4.4358,-4.4435,-4.4587,-4.4648,-4.4723,-4.4889,-4.5039,-4.5247,-4.5321,-4.5728,-4.623,-4.6198,-4.6333,-4.6862,-4.6883,-4.6856,-4.6892,-4.7098,-4.7251,-4.7335,-4.7521,-4.7704,-4.7836,-4.79,-4.7847,-4.8025,-4.8122,-4.8303,-4.845,-4.8396,-4.8568,-4.8287,-4.7479,-4.724,-4.7369,-4.6978,-4.6239,-4.6355,-4.6175,-4.6239,-4.6301,-4.6504,-4.6689,-4.6784,-4.6879,-4.702,-3.3703,-3.4383,-3.4803,-3.498,-3.5202,-3.5312,-3.5312,-3.5423,-3.5643,-3.584,-3.6157,-3.6472,-3.6904,-3.7358,-3.7737,-3.8073,-3.8317,-3.898,-3.9191,-3.9449,-3.9842,-4.0173,-4.0389,-4.0465,-4.0526,-4.0621,-4.0952,-4.1666,-4.1856,-4.1923,-4.1298,-4.1073,-4.0618,-4.0169,-4.0028,-3.9944,-3.9922,-3.9954,-4.0142,-4.0198,-4.0065,-4.0152,-4.0385,-4.053,-4.053,-4.0674,-4.093,-4.1001,-4.1085,-4.1297,-4.1424,-4.1453,-4.1114,-4.1156,-4.141,-4.1688,-4.1825,-4.2087,-4.243,-4.2607,-4.2688,-4.3105,-4.317,-4.317,-4.3344,-4.3518,-4.3754,-4.391,-4.3895,-4.405,-4.4266,-4.4281,-4.4358,-4.4572,-4.4648,-4.4723,-4.4949,-4.5083,-4.5184,-4.5447,-4.5416,-4.5602,-4.5977,-4.6657,-4.6598,-4.6668,-4.6892,-4.7098,-4.7251,-4.7335,-4.7504,-4.7622,-4.7671,-4.7469,-4.75,-4.7728,-4.7944,-4.8292,-4.8072,-4.7981,-4.7653,-4.7154,-4.6955,-4.6595,-4.5935,-4.5333,-4.5632,-4.6042,-4.6125,-4.6175,-4.6207,-4.6274,-4.6487,-4.6737,-4.6932,-3.3395,-3.3733,-3.4368,-3.4524,-3.4635,-3.498,-3.5091,-3.5102,-3.5312,-3.5423,-3.5621,-3.6059,-3.6386,-3.67,-3.7262,-3.7737,-3.8125,-3.8546,-3.8884,-3.92,-3.9609,-3.9865,-4.0173,-4.0389,-4.0364,-4.0248,-4.0279,-4.0625,-4.1253,-4.181,-4.2017,-4.1517,-4.0829,-4.0464,-3.9983,-3.9611,-3.9394,-3.938,-3.9469,-3.9482,-3.9496,-3.9686,-3.9936,-4.0009,-4.017,-4.0257,-4.0688,-4.0845,-4.1015,-4.1029,-4.1354,-4.1354,-4.1114,-4.1156,-4.0986,-4.1057,-4.1198,-4.1619,-4.2005,-4.2087,-4.2348,-4.2688,-4.285,-4.301,-4.325,-4.3503,-4.3675,-4.3675,-4.3645,-4.3801,-4.4112,-4.4127,-4.4281,-4.4435,-4.4587,-4.4587,-4.4723,-4.4874,-4.4887,-4.4837,-4.4865,-4.4731,-4.4824,-4.5659,-4.6356,-4.6512,-4.6668,-4.6929,-4.7098,-4.7251,-4.7419,-4.7621,-4.7424,-4.7144,-4.7027,-4.7239,-4.7305,-4.7801,-4.75,-4.7198,-4.6891,-4.6402,-4.5805,-4.537,-4.4823,-4.4746,-4.5159,-4.5598,-4.5908,-4.5974,-4.5955,-4.6038,-4.6253,-4.6504,-4.6742,-3.281,-3.3614,-3.3851,-3.4188,-3.4524,-3.4646,-3.4758,-3.4747,-3.5091,-3.5202,-3.5202,-3.5632,-3.595,-3.6266,-3.6712,-3.7251,-3.7679,-3.801,-3.8315,-3.8514,-3.8828,-3.9141,-3.9362,-3.9569,-3.9672,-4.0122,-4.0134,-4.0166,-4.0684,-4.1081,-4.1319,-4.0869,-4.0629,-4.0187,-3.9809,-3.914,-3.9051,-3.906,-3.9264,-3.9305,-3.9394,-3.9584,-3.9774,-3.9848,-3.9922,-4.0083,-4.0343,-4.0544,-4.0616,-4.0716,-4.0915,-4.0986,-4.0873,-4.0873,-4.0801,-4.0787,-4.0873,-4.1213,-4.1535,-4.1604,-4.2034,-4.2526,-4.2688,-4.293,-4.3185,-4.3423,-4.3503,-4.3503,-4.3314,-4.3472,-4.3801,-4.3738,-4.3957,-4.4205,-4.4435,-4.4511,-4.4572,-4.4572,-4.4601,-4.4447,-4.4353,-4.4208,-4.4148,-4.4645,-4.5492,-4.5997,-4.6271,-4.6666,-4.69,-4.7183,-4.7351,-4.757,-4.7292,-4.6898,-4.6733,-4.6733,-4.6535,-4.6683,-4.6353,-4.6088,-4.6016,-4.5611,-4.502,-4.4714,-4.4524,-4.4586,-4.481,-4.5194,-4.5546,-4.5632,-4.5648,-4.5835,-4.597,-4.6023,-4.6259,-3.2248,-3.3172,-3.3275,-3.3614,-3.4054,-3.4177,-3.4188,-3.43,-3.4646,-3.4758,-3.4991,-3.5202,-3.5632,-3.595,-3.6168,-3.6495,-3.7143,-3.7274,-3.7584,-3.7679,-3.7986,-3.8303,-3.8631,-3.8736,-3.9154,-3.9762,-4.0032,-4.0031,-3.9986,-4.0311,-4.0394,-3.9955,-3.9959,-3.9774,-3.9415,-3.9077,-3.8805,-3.9033,-3.9176,-3.9305,-3.9319,-3.9496,-3.9598,-3.9686,-3.9848,-4.0009,-4.011,-4.0298,-4.0399,-4.0558,-4.063,-4.0801,-4.0702,-4.0787,-4.0716,-4.0702,-4.0801,-4.0873,-4.1114,-4.1297,-4.1647,-4.2131,-4.2688,-4.285,-4.309,-4.3185,-4.3344,-4.3344,-4.301,-4.317,-4.3423,-4.3344,-4.3488,-4.3879,-4.4205,-4.4358,-4.4496,-4.451,-4.4509,-4.443,-4.4214,-4.3815,-4.3774,-4.4006,-4.4551,-4.5301,-4.5843,-4.6253,-4.6423,-4.6608,-4.6645,-4.6748,-4.6519,-4.611,-4.5914,-4.5832,-4.5701,-4.5652,-4.5324,-4.5142,-4.5088,-4.4756,-4.4174,-4.4021,-4.4092,-4.4081,-4.4135,-4.4691,-4.523,-4.5354,-4.5477,-4.558,-4.57,-4.5752,-4.5871,-3.1344,-3.2008,-3.2581,-3.281,-3.2913,-3.314,-3.3491,-3.3738,-3.4086,-3.43,-3.4524,-3.4869,-3.5202,-3.5412,-3.5522,-3.573,-3.6036,-3.6483,-3.6808,-3.7239,-3.7667,-3.7868,-3.8092,-3.8409,-3.8841,-3.9141,-3.9456,-3.9576,-3.9561,-3.9689,-3.992,-3.9994,-3.948,-3.9415,-3.9295,-3.8973,-3.8948,-3.9073,-3.9292,-3.9305,-3.9305,-3.9407,-3.9407,-3.9612,-3.97,-3.9862,-4.0312,-4.0312,-4.0385,-4.053,-4.0616,-4.0702,-4.0702,-4.0702,-4.0702,-4.0702,-4.0702,-4.0787,-4.0873,-4.0873,-4.1043,-4.1549,-4.2117,-4.2592,-4.2754,-4.309,-4.325,-4.309,-4.2688,-4.2695,-4.2886,-4.309,-4.3235,-4.3494,-4.3929,-4.422,-4.4266,-4.4387,-4.437,-4.4397,-4.4118,-4.3599,-4.3214,-4.3314,-4.3615,-4.426,-4.4697,-4.5174,-4.5301,-4.5435,-4.5471,-4.5505,-4.5489,-4.5196,-4.4756,-4.4788,-4.4967,-4.4869,-4.4558,-4.4393,-4.4259,-4.3801,-4.3518,-4.3525,-4.3641,-4.3545,-4.3589,-4.4238,-4.477,-4.5125,-4.5302,-4.5477,-4.558,-4.5667,-4.577,-3.1005,-3.1228,-3.1566,-3.2018,-3.2696,-3.2799,-3.3037,-3.3388,-3.3491,-3.3851,-3.4311,-3.4534,-3.4869,-3.5091,-3.5202,-3.5301,-3.5511,-3.5742,-3.6059,-3.6277,-3.6603,-3.6916,-3.7346,-3.7761,-3.8092,-3.8558,-3.8856,-3.8881,-3.8789,-3.9,-3.8711,-3.86,-3.8645,-3.8924,-3.8886,-3.8777,-3.8899,-3.9011,-3.9203,-3.9305,-3.9305,-3.9305,-3.9305,-3.9407,-3.9496,-3.9496,-3.976,-4.0023,-4.0198,-4.0357,-4.053,-4.0688,-4.0645,-4.0645,-4.0617,-4.0518,-4.049,-4.049,-4.0532,-4.0645,-4.0958,-4.1381,-4.1951,-4.2252,-4.2237,-4.2415,-4.2496,-4.243,-4.2319,-4.2202,-4.2063,-4.2554,-4.3066,-4.322,-4.3502,-4.3853,-4.3959,-4.3912,-4.3818,-4.3689,-4.3565,-4.3291,-4.289,-4.2577,-4.2869,-4.3192,-4.3636,-4.3986,-4.4129,-4.4248,-4.4348,-4.4529,-4.4529,-4.4529,-4.414,-4.422,-4.4334,-4.4041,-4.3748,-4.3649,-4.3469,-4.3336,-4.3105,-4.3157,-4.3306,-4.3453,-4.3681,-4.3967,-4.4393,-4.4875,-4.5194,-4.5388,-4.5493,-4.5563,-4.5667,-3.0401,-3.0401,-3.0528,-3.1218,-3.2123,-3.2238,-3.2457,-3.281,-3.3027,-3.3501,-3.4086,-3.4423,-3.4646,-3.4758,-3.4869,-3.498,-3.508,-3.5301,-3.5423,-3.5643,-3.5961,-3.6277,-3.6654,-3.7002,-3.7334,-3.8004,-3.799,-3.7885,-3.7693,-3.7941,-3.7619,-3.7362,-3.7655,-3.7997,-3.8437,-3.8477,-3.8575,-3.8922,-3.9011,-3.9216,-3.9305,-3.9305,-3.9305,-3.9305,-3.9305,-3.9394,-3.9584,-3.9848,-4.011,-4.0284,-4.043,-4.0575,-4.0477,-4.0307,-4.0138,-4.004,-3.9899,-3.9814,-3.9828,-4.0265,-4.0492,-4.0773,-4.1176,-4.1526,-4.1767,-4.1908,-4.217,-4.217,-4.1889,-4.1555,-4.1273,-4.1877,-4.207,-4.2209,-4.294,-4.3286,-4.3238,-4.319,-4.3079,-4.2863,-4.2817,-4.2817,-4.2232,-4.1873,-4.1914,-4.2101,-4.2354,-4.2679,-4.303,-4.3197,-4.3377,-4.3508,-4.3703,-4.3654,-4.367,-4.3557,-4.3443,-4.3266,-4.3008,-4.2846,-4.2747,-4.2696,-4.2821,-4.2929,-4.3157,-4.3443,-4.3764,-4.4078,-4.4361,-4.4691,-4.4961,-4.5282,-4.5318,-4.5406,-4.5511,-2.9431,-2.9422,-2.9804,-3.0284,-3.0995,-3.1218,-3.1556,-3.2018,-3.2581,-3.3161,-3.3974,-3.4311,-3.4423,-3.4534,-3.4534,-3.4524,-3.4646,-3.4869,-3.5091,-3.5423,-3.5533,-3.595,-3.6248,-3.6421,-3.6672,-3.7027,-3.713,-3.7031,-3.6614,-3.7241,-3.6764,-3.6314,-3.6628,-3.7168,-3.7847,-3.807,-3.8472,-3.8819,-3.8819,-3.9024,-3.9203,-3.9216,-3.9216,-3.9305,-3.9305,-3.9394,-3.9584,-3.961,-3.9844,-4.0017,-4.015,-4.0012,-3.9676,-3.9367,-3.8962,-3.8546,-3.8155,-3.7932,-3.7891,-3.9061,-3.9606,-3.9956,-4.0288,-4.061,-4.1194,-4.1573,-4.1676,-4.1377,-4.1203,-4.0929,-4.096,-4.1136,-4.1163,-4.1398,-4.2122,-4.2554,-4.2594,-4.2514,-4.2417,-4.2155,-4.2325,-4.2355,-4.1694,-4.1155,-4.104,-4.1038,-4.1148,-4.1429,-4.2015,-4.2246,-4.2505,-4.2767,-4.2977,-4.2945,-4.2929,-4.2671,-4.2494,-4.243,-4.243,-4.2397,-4.2365,-4.2429,-4.2508,-4.2634,-4.299,-4.3323,-4.3747,-4.4147,-4.4417,-4.4682,-4.4852,-4.5086,-4.5123,-4.523,-4.5353,-2.9085,-2.9094,-2.9213,-2.9558,-3.003,-3.0762,-3.1218,-3.1556,-3.2352,-3.2913,-3.3275,-3.3625,-3.3851,-3.3963,-3.4199,-3.4199,-3.4311,-3.4524,-3.4858,-3.5091,-3.5202,-3.5423,-3.5629,-3.5774,-3.6067,-3.626,-3.6437,-3.6534,-3.6512,-3.6771,-3.6722,-3.6346,-3.6102,-3.6653,-3.7121,-3.7479,-3.7939,-3.8187,-3.8472,-3.8845,-3.9011,-3.8997,-3.9087,-3.9292,-3.9264,-3.9326,-3.9346,-3.9248,-3.9343,-3.936,-3.945,-3.9047,-3.8727,-3.842,-3.8128,-3.7824,-3.7572,-3.7563,-3.751,-3.8034,-3.8531,-3.8988,-3.9363,-3.9516,-3.9825,-3.9796,-4.0043,-4.033,-4.0173,-3.9894,-3.9628,-4.065,-4.0961,-4.08,-4.1338,-4.1782,-4.1939,-4.1914,-4.1801,-4.1377,-4.1346,-4.1541,-4.1235,-4.0907,-4.0693,-4.0739,-4.0892,-4.133,-4.1935,-4.1771,-4.1825,-4.2156,-4.2382,-4.2318,-4.2222,-4.2238,-4.2254,-4.2206,-4.2206,-4.219,-4.219,-4.2254,-4.2381,-4.2571,-4.2912,-4.3262,-4.3578,-4.3964,-4.437,-4.4654,-4.4754,-4.4923,-4.5032,-4.5086,-4.514,-2.83,-2.8309,-2.8564,-2.8765,-2.9018,-2.9973,-3.0558,-3.0925,-3.1792,-3.2074,-3.22,-3.2972,-3.3395,-3.3342,-3.3663,-3.3861,-3.3963,-3.3952,-3.4166,-3.4513,-3.4401,-3.4504,-3.4714,-3.4866,-3.4905,-3.5244,-3.5329,-3.5362,-3.5376,-3.5924,-3.5836,-3.5636,-3.578,-3.5812,-3.625,-3.6734,-3.7479,-3.7835,-3.8226,-3.8666,-3.8922,-3.8984,-3.8979,-3.8945,-3.8939,-3.8871,-3.8714,-3.8542,-3.8553,-3.8501,-3.8351,-3.8104,-3.7965,-3.7605,-3.7315,-3.6942,-3.6696,-3.6659,-3.6661,-3.6999,-3.749,-3.8088,-3.8369,-3.8636,-3.8805,-3.9084,-3.9219,-3.9325,-3.9136,-3.9075,-3.9194,-4.0253,-4.0217,-4.0114,-4.0497,-4.1009,-4.1194,-4.1168,-4.1177,-4.0754,-4.0692,-4.0827,-4.0792,-4.0649,-4.0454,-4.0608,-4.0724,-4.1233,-4.1763,-4.1617,-4.1453,-4.172,-4.2061,-4.2093,-4.2093,-4.2061,-4.2061,-4.2061,-4.1996,-4.1996,-4.2125,-4.219,-4.2381,-4.2571,-4.2945,-4.3295,-4.3453,-4.3764,-4.4121,-4.4344,-4.4514,-4.4703,-4.4869,-4.4923,-4.4995,-2.6964,-2.7016,-2.7714,-2.7864,-2.8093,-2.8926,-2.9474,-2.9901,-3.0846,-3.0903,-3.0681,-3.2313,-3.2642,-3.2546,-3.3177,-3.3356,-3.3512,-3.3275,-3.3427,-3.3395,-3.3332,-3.3454,-3.342,-3.3399,-3.3759,-3.3915,-3.4164,-3.4337,-3.4175,-3.4746,-3.4834,-3.4683,-3.4931,-3.503,-3.5404,-3.6168,-3.6922,-3.7281,-3.7691,-3.8119,-3.8439,-3.8768,-3.856,-3.8431,-3.8369,-3.8247,-3.8075,-3.7847,-3.7934,-3.8103,-3.8159,-3.813,-3.7744,-3.7071,-3.6225,-3.5517,-3.5219,-3.5452,-3.5778,-3.6209,-3.6595,-3.7163,-3.7573,-3.8145,-3.8426,-3.8468,-3.8559,-3.8526,-3.8487,-3.8689,-3.8991,-3.9025,-3.9121,-3.9341,-3.9733,-4.0092,-4.0289,-4.0399,-4.0469,-4.0377,-4.0447,-4.0469,-4.0222,-4.0139,-4.0438,-4.0624,-4.0763,-4.0976,-4.1351,-4.1565,-4.1449,-4.162,-4.1849,-4.1994,-4.1962,-4.1882,-4.1866,-4.1866,-4.1801,-4.1801,-4.1931,-4.2141,-4.2334,-4.265,-4.3056,-4.3405,-4.3502,-4.3597,-4.3781,-4.4004,-4.4219,-4.4423,-4.4631,-4.4776,-4.4848,-2.6213,-2.6231,-2.6451,-2.665,-2.692,-2.7606,-2.8279,-2.9107,-2.9563,-2.977,-3.0029,-3.0393,-3.1051,-3.1307,-3.1963,-3.2231,-3.2478,-3.2768,-3.2786,-3.2682,-3.2311,-3.2232,-3.2268,-3.2426,-3.264,-3.2922,-3.3253,-3.3684,-3.3834,-3.4072,-3.4353,-3.4404,-3.4406,-3.4421,-3.4775,-3.55,-3.5941,-3.6433,-3.688,-3.7326,-3.7606,-3.7816,-3.7658,-3.7604,-3.7695,-3.7714,-3.7772,-3.7161,-3.7261,-3.7604,-3.688,-3.6429,-3.6076,-3.5763,-3.5179,-3.4809,-3.4686,-3.4825,-3.5154,-3.5399,-3.5817,-3.6457,-3.6837,-3.7009,-3.7405,-3.7653,-3.776,-3.7797,-3.7805,-3.8004,-3.8208,-3.833,-3.8501,-3.8958,-3.9337,-3.9553,-3.9824,-4.0051,-4.0121,-4.0191,-4.0261,-4.0124,-3.9902,-4.0178,-4.0532,-4.0678,-4.0885,-4.0982,-4.1138,-4.1315,-4.1464,-4.157,-4.1686,-4.1815,-4.1799,-4.172,-4.167,-4.167,-4.167,-4.167,-4.1882,-4.2093,-4.235,-4.2729,-4.3178,-4.3421,-4.3568,-4.3663,-4.3698,-4.3739,-4.3922,-4.4145,-4.4333,-4.4418,-4.4512,-2.5366,-2.5383,-2.5526,-2.5724,-2.6144,-2.6337,-2.7064,-2.793,-2.8691,-2.9051,-2.9079,-2.9669,-3.0035,-3.0488,-3.0948,-3.1331,-3.1247,-3.1549,-3.1594,-3.1157,-3.1197,-3.1003,-3.1096,-3.1461,-3.1731,-3.2036,-3.2482,-3.3037,-3.3254,-3.3593,-3.3951,-3.358,-3.3829,-3.3977,-3.41,-3.4475,-3.5004,-3.5565,-3.615,-3.6583,-3.6767,-3.7006,-3.7276,-3.6917,-3.7048,-3.7286,-3.7196,-3.6385,-3.6509,-3.6865,-3.6075,-3.5885,-3.5616,-3.5398,-3.5017,-3.466,-3.4825,-3.4977,-3.5223,-3.5399,-3.5737,-3.6058,-3.6312,-3.6577,-3.6828,-3.7097,-3.7239,-3.7275,-3.719,-3.7197,-3.7443,-3.7763,-3.8202,-3.859,-3.8885,-3.9177,-3.9466,-3.9768,-3.991,-3.9996,-3.9975,-3.9908,-3.9978,-4.0293,-4.0593,-4.0845,-4.0997,-4.1034,-4.1189,-4.1421,-4.1519,-4.1604,-4.1604,-4.1686,-4.1588,-4.1654,-4.1654,-4.167,-4.1752,-4.1817,-4.1898,-4.2141,-4.2508,-4.2899,-4.3284,-4.3482,-4.3618,-4.3611,-4.3663,-4.3597,-4.3506,-4.3647,-4.3719,-4.3738,-4.3888,-2.4408,-2.4539,-2.4763,-2.5141,-2.5639,-2.5421,-2.5842,-2.6601,-2.805,-2.835,-2.8127,-2.9346,-2.9786,-2.9748,-3.0151,-3.0188,-3.011,-3.0241,-3.0148,-2.9531,-2.9633,-2.9618,-2.9856,-3.0253,-3.0726,-3.1163,-3.1695,-3.2281,-3.2623,-3.2823,-3.2895,-3.2489,-3.2928,-3.3109,-3.329,-3.3493,-3.403,-3.4749,-3.5481,-3.602,-3.6154,-3.6858,-3.7372,-3.6458,-3.6287,-3.6369,-3.5787,-3.5575,-3.5589,-3.5966,-3.6113,-3.6101,-3.5764,-3.5493,-3.5017,-3.4839,-3.4921,-3.499,-3.5059,-3.5223,-3.5548,-3.5884,-3.6138,-3.6391,-3.6536,-3.6915,-3.707,-3.6866,-3.6796,-3.6979,-3.7238,-3.7291,-3.7627,-3.8119,-3.8532,-3.8913,-3.9379,-3.9565,-3.9647,-3.9733,-3.9874,-3.9762,-3.9574,-3.9856,-4.0309,-4.0811,-4.1055,-4.107,-4.1138,-4.1406,-4.1456,-4.1522,-4.1557,-4.1557,-4.172,-4.172,-4.172,-4.1736,-4.1817,-4.1947,-4.2077,-4.2381,-4.2726,-4.299,-4.3295,-4.3454,-4.3531,-4.3585,-4.3479,-4.3197,-4.314,-4.3174,-4.3106,-4.2981,-4.3065,-2.4045,-2.4053,-2.4135,-2.4344,-2.4726,-2.5051,-2.545,-2.5961,-2.7066,-2.7639,-2.7731,-2.7891,-2.8292,-2.8797,-2.9089,-2.907,-2.8861,-2.9125,-2.9007,-2.8646,-2.8531,-2.8687,-2.876,-2.9373,-2.9877,-3.035,-3.1023,-3.171,-3.2072,-3.214,-3.2157,-3.2139,-3.2275,-3.2213,-3.238,-3.2677,-3.3126,-3.3827,-3.4141,-3.4576,-3.4612,-3.4553,-3.4547,-3.4614,-3.4816,-3.5513,-3.5339,-3.5505,-3.5844,-3.6266,-3.5981,-3.5724,-3.5385,-3.5059,-3.4799,-3.4564,-3.466,-3.4743,-3.4729,-3.4812,-3.4964,-3.5386,-3.5642,-3.5978,-3.6377,-3.6758,-3.6908,-3.6676,-3.655,-3.6732,-3.6872,-3.6883,-3.6982,-3.7517,-3.8047,-3.8575,-3.9116,-3.9215,-3.9354,-3.9526,-3.9627,-3.9519,-3.9336,-3.9533,-3.9985,-4.0452,-4.0857,-4.1086,-4.1018,-4.1153,-4.1205,-4.1307,-4.1346,-4.1478,-4.1688,-4.1882,-4.1898,-4.1931,-4.198,-4.2125,-4.227,-4.2508,-4.2726,-4.2941,-4.3202,-4.3361,-4.3471,-4.3602,-4.3386,-4.2973,-4.2385,-4.2229,-4.1969,-4.1794,-4.1976,-2.3464,-2.3464,-2.3464,-2.3801,-2.4144,-2.4462,-2.4906,-2.5503,-2.602,-2.6668,-2.7142,-2.7264,-2.7491,-2.7882,-2.7971,-2.7704,-2.7536,-2.8061,-2.779,-2.7547,-2.7782,-2.8093,-2.8359,-2.8824,-2.9469,-3.0088,-3.0817,-3.1403,-3.1622,-3.1573,-3.1571,-3.1454,-3.1315,-3.1232,-3.1481,-3.1692,-3.2078,-3.2606,-3.2626,-3.2747,-3.3053,-3.3355,-3.3819,-3.4066,-3.4221,-3.4809,-3.4813,-3.4958,-3.5229,-3.5597,-3.5438,-3.5426,-3.5141,-3.4733,-3.4568,-3.4454,-3.4397,-3.4243,-3.423,-3.4314,-3.4384,-3.4772,-3.5209,-3.5535,-3.5884,-3.627,-3.6615,-3.642,-3.5549,-3.562,-3.6073,-3.6141,-3.6262,-3.6648,-3.7172,-3.7649,-3.8302,-3.871,-3.8807,-3.8892,-3.9113,-3.9298,-3.9277,-3.9601,-4.0008,-4.021,-4.0645,-4.0919,-4.095,-4.0966,-4.1018,-4.1055,-4.1162,-4.1494,-4.19,-4.2109,-4.2237,-4.2189,-4.2174,-4.2302,-4.2445,-4.2571,-4.2805,-4.2896,-4.3035,-4.3223,-4.3377,-4.3542,-4.3138,-4.2626,-4.1824,-4.119,-4.0955,-4.0762,-4.0996,-2.3014,-2.3014,-2.3014,-2.3239,-2.3801,-2.3913,-2.4351,-2.5017,-2.5238,-2.5634,-2.6296,-2.6739,-2.705,-2.7122,-2.6998,-2.6599,-2.6515,-2.6882,-2.6719,-2.6801,-2.7054,-2.7479,-2.8008,-2.8601,-2.9112,-2.9754,-3.0484,-3.0813,-3.1025,-3.0985,-3.08,-3.0489,-3.0303,-3.024,-3.051,-3.0707,-3.0985,-3.1356,-3.1437,-3.1457,-3.2043,-3.292,-3.3378,-3.3645,-3.3734,-3.3929,-3.4049,-3.416,-3.4327,-3.459,-3.4961,-3.4934,-3.4799,-3.4498,-3.4332,-3.4288,-3.4147,-3.4063,-3.4063,-3.3979,-3.4082,-3.421,-3.4719,-3.5089,-3.5372,-3.5707,-3.6119,-3.576,-3.4895,-3.4947,-3.5398,-3.555,-3.565,-3.6,-3.6503,-3.6946,-3.7567,-3.8147,-3.8302,-3.8302,-3.8599,-3.8959,-3.9159,-3.9548,-3.9811,-4.008,-4.0375,-4.0566,-4.073,-4.0677,-4.0677,-4.0867,-4.1008,-4.1425,-4.1931,-4.2254,-4.2382,-4.2382,-4.2365,-4.2492,-4.2555,-4.2634,-4.2696,-4.2759,-4.2899,-4.3084,-4.3317,-4.3515,-4.2954,-4.227,-4.1157,-4.0352,-4.0271,-4.018,-4.0104,-2.3014,-2.3014,-2.3014,-2.3135,-2.3247,-2.3689,-2.4136,-2.459,-2.5008,-2.5401,-2.5599,-2.5643,-2.5922,-2.6483,-2.6483,-2.6184,-2.5825,-2.6086,-2.6143,-2.6245,-2.6445,-2.689,-2.753,-2.8048,-2.8628,-2.9282,-2.9807,-2.9964,-3.0268,-3.017,-3.0035,-2.9759,-2.9454,-2.9594,-2.9964,-3.0067,-3.0113,-3.0457,-3.064,-3.0593,-3.1125,-3.1771,-3.2156,-3.2448,-3.2773,-3.3144,-3.3411,-3.3641,-3.405,-3.4314,-3.4494,-3.441,-3.4314,-3.4204,-3.405,-3.3901,-3.3759,-3.3597,-3.3585,-3.3746,-3.3713,-3.3636,-3.4071,-3.4339,-3.4722,-3.5155,-3.5214,-3.4849,-3.4465,-3.5119,-3.5451,-3.5123,-3.5167,-3.5811,-3.6368,-3.6766,-3.7282,-3.7649,-3.7818,-3.8015,-3.8319,-3.8473,-3.86,-3.8959,-3.94,-3.9745,-4.0192,-4.0416,-4.0524,-4.0539,-4.0401,-4.0578,-4.0768,-4.1272,-4.1767,-4.2318,-4.2494,-4.2477,-4.2492,-4.2492,-4.2571,-4.2571,-4.2634,-4.2696,-4.271,-4.2863,-4.3113,-4.3394,-4.2706,-4.1939,-4.0451,-3.9591,-3.961,-3.9677,-3.9718]}]]